<?xml version="1.0" encoding="UTF-8" standalone="no" ?><gpx xmlns="http://www.topografix.com/GPX/1/1" xmlns:gpxx="http://www.garmin.com/xmlschemas/GpxExtensions/v3" xmlns:wptx1="http://www.garmin.com/xmlschemas/WaypointExtension/v1" xmlns:gpxtpx="http://www.garmin.com/xmlschemas/TrackPointExtension/v1" creator="GuideVTT.com" version="1.1" xmlns:xsi="http://www.w3.org/2001/XMLSchema-instance" xsi:schemaLocation="http://www.topografix.com/GPX/1/1 http://www.topografix.com/GPX/1/1/gpx.xsd http://www.garmin.com/xmlschemas/GpxExtensions/v3 http://www8.garmin.com/xmlschemas/GpxExtensionsv3.xsd http://www.garmin.com/xmlschemas/WaypointExtension/v1 http://www8.garmin.com/xmlschemas/WaypointExtensionv1.xsd http://www.garmin.com/xmlschemas/TrackPointExtension/v1 http://www.garmin.com/xmlschemas/TrackPointExtensionv1.xsd">
<metadata><link href="http://www.garmin.com"><text>Garmin International</text></link><time>2013-06-22T15:13:50Z</time></metadata>
<trk><name>bex-vallonde_van_29,05,2011.gpx</name><extensions><gpxx:TrackExtension><gpxx:DisplayColor>Cyan</gpxx:DisplayColor></gpxx:TrackExtension></extensions><trkseg>
<trkpt lat="46.24615498" lon="7.01237395"><ele>431.3999939928</ele><time>2011-05-29T06:25:04Z</time></trkpt>
<trkpt lat="46.24620292" lon="7.01216499"><ele>430.7999878776</ele><time>2011-05-29T06:25:12Z</time></trkpt>
<trkpt lat="46.24626294" lon="7.01205997"><ele>430.3999939608</ele><time>2011-05-29T06:25:14Z</time></trkpt>
<trkpt lat="46.24644692" lon="7.01187196"><ele>429.3999939288</ele><time>2011-05-29T06:25:18Z</time></trkpt>
<trkpt lat="46.24655396" lon="7.01168898"><ele>429.2000122104</ele><time>2011-05-29T06:25:21Z</time></trkpt>
<trkpt lat="46.24655496" lon="7.01160592"><ele>428.7999878136</ele><time>2011-05-29T06:25:22Z</time></trkpt>
<trkpt lat="46.24648799" lon="7.01092095"><ele>425.7999877176</ele><time>2011-05-29T06:25:31Z</time></trkpt>
<trkpt lat="46.24647592" lon="7.01084392"><ele>425.3999938008</ele><time>2011-05-29T06:25:32Z</time></trkpt>
<trkpt lat="46.24632899" lon="7.01016096"><ele>424.999999884</ele><time>2011-05-29T06:25:41Z</time></trkpt>
<trkpt lat="46.24618398" lon="7.00962192"><ele>424.999999884</ele><time>2011-05-29T06:25:47Z</time></trkpt>
<trkpt lat="46.24603193" lon="7.00916000"><ele>424.999999884</ele><time>2011-05-29T06:25:52Z</time></trkpt>
<trkpt lat="46.24604199" lon="7.00879295"><ele>424.6000059672</ele><time>2011-05-29T06:25:56Z</time></trkpt>
<trkpt lat="46.24618197" lon="7.00854200"><ele>423.60000624</ele><time>2011-05-29T06:25:59Z</time></trkpt>
<trkpt lat="46.24641197" lon="7.00800397"><ele>421.7999878944</ele><time>2011-05-29T06:26:04Z</time></trkpt>
<trkpt lat="46.24661800" lon="7.00768394"><ele>420.7999878624</ele><time>2011-05-29T06:26:07Z</time></trkpt>
<trkpt lat="46.24703097" lon="7.00731799"><ele>418.9999999968</ele><time>2011-05-29T06:26:12Z</time></trkpt>
<trkpt lat="46.24739894" lon="7.00700199"><ele>417.3999938496</ele><time>2011-05-29T06:26:17Z</time></trkpt>
<trkpt lat="46.24764092" lon="7.00667392"><ele>416.9999999328</ele><time>2011-05-29T06:26:21Z</time></trkpt>
<trkpt lat="46.24777294" lon="7.00648500"><ele>416.7999877344</ele><time>2011-05-29T06:26:25Z</time></trkpt>
<trkpt lat="46.24776296" lon="7.00632893"><ele>416.600006016</ele><time>2011-05-29T06:26:27Z</time></trkpt>
<trkpt lat="46.24765492" lon="7.00564999"><ele>414.7999876704</ele><time>2011-05-29T06:26:34Z</time></trkpt>
<trkpt lat="46.24748292" lon="7.00500098"><ele>413.0000001096</ele><time>2011-05-29T06:26:40Z</time></trkpt>
<trkpt lat="46.24719299" lon="7.00418098"><ele>414.20001234</ele><time>2011-05-29T06:26:48Z</time></trkpt>
<trkpt lat="46.24704296" lon="7.00392097"><ele>414.20001234</ele><time>2011-05-29T06:26:51Z</time></trkpt>
<trkpt lat="46.24690197" lon="7.00353499"><ele>413.7999879432</ele><time>2011-05-29T06:26:55Z</time></trkpt>
<trkpt lat="46.24660894" lon="7.00286795"><ele>412.7999879112</ele><time>2011-05-29T06:27:01Z</time></trkpt>
<trkpt lat="46.24632798" lon="7.00195894"><ele>409.7999878152</ele><time>2011-05-29T06:27:08Z</time></trkpt>
<trkpt lat="46.24622296" lon="7.00140699"><ele>408.9999999816</ele><time>2011-05-29T06:27:13Z</time></trkpt>
<trkpt lat="46.24601492" lon="7.00044299"><ele>410.0000000136</ele><time>2011-05-29T06:27:22Z</time></trkpt>
<trkpt lat="46.24579900" lon="6.99948099"><ele>410.6000061288</ele><time>2011-05-29T06:27:31Z</time></trkpt>
<trkpt lat="46.24557193" lon="6.99840593"><ele>407.3999938344</ele><time>2011-05-29T06:27:41Z</time></trkpt>
<trkpt lat="46.24543497" lon="6.99774493"><ele>405.7999876872</ele><time>2011-05-29T06:27:47Z</time></trkpt>
<trkpt lat="46.24548594" lon="6.99729097"><ele>404.9999998536</ele><time>2011-05-29T06:27:51Z</time></trkpt>
<trkpt lat="46.24552692" lon="6.99695494"><ele>404.6000062416</ele><time>2011-05-29T06:27:54Z</time></trkpt>
<trkpt lat="46.24543699" lon="6.99661095"><ele>404.3999940432</ele><time>2011-05-29T06:27:57Z</time></trkpt>
<trkpt lat="46.24523800" lon="6.99641297"><ele>404.3999940432</ele><time>2011-05-29T06:28:00Z</time></trkpt>
<trkpt lat="46.24507899" lon="6.99615296"><ele>404.2000123248</ele><time>2011-05-29T06:28:03Z</time></trkpt>
<trkpt lat="46.24502200" lon="6.99594199"><ele>404.0000001264</ele><time>2011-05-29T06:28:05Z</time></trkpt>
<trkpt lat="46.24480197" lon="6.99486793"><ele>403.0000000944</ele><time>2011-05-29T06:28:15Z</time></trkpt>
<trkpt lat="46.24463894" lon="6.99429695"><ele>403.0000000944</ele><time>2011-05-29T06:28:21Z</time></trkpt>
<trkpt lat="46.24441297" lon="6.99360997"><ele>402.2000122608</ele><time>2011-05-29T06:28:28Z</time></trkpt>
<trkpt lat="46.24426494" lon="6.99287999"><ele>402.3999939792</ele><time>2011-05-29T06:28:35Z</time></trkpt>
<trkpt lat="46.24406696" lon="6.99225998"><ele>402.2000122608</ele><time>2011-05-29T06:28:41Z</time></trkpt>
<trkpt lat="46.24381199" lon="6.99180694"><ele>400.799987832</ele><time>2011-05-29T06:28:46Z</time></trkpt>
<trkpt lat="46.24355894" lon="6.99136094"><ele>399.6000060816</ele><time>2011-05-29T06:28:51Z</time></trkpt>
<trkpt lat="46.24319893" lon="6.99077798"><ele>398.2000121328</ele><time>2011-05-29T06:28:58Z</time></trkpt>
<trkpt lat="46.24288696" lon="6.99022394"><ele>398.9999999664</ele><time>2011-05-29T06:29:05Z</time></trkpt>
<trkpt lat="46.24278696" lon="6.99020600"><ele>399.3999938832</ele><time>2011-05-29T06:29:08Z</time></trkpt>
<trkpt lat="46.24273592" lon="6.99030792"><ele>399.6000060816</ele><time>2011-05-29T06:29:10Z</time></trkpt>
<trkpt lat="46.24250994" lon="6.99058796"><ele>400.2000121968</ele><time>2011-05-29T06:29:15Z</time></trkpt>
<trkpt lat="46.24212798" lon="6.99105098"><ele>399.3999938832</ele><time>2011-05-29T06:29:22Z</time></trkpt>
<trkpt lat="46.24169799" lon="6.99150394"><ele>398.2000121328</ele><time>2011-05-29T06:29:30Z</time></trkpt>
<trkpt lat="46.24135894" lon="6.99178096"><ele>398.6000060496</ele><time>2011-05-29T06:29:36Z</time></trkpt>
<trkpt lat="46.24097899" lon="6.99215395"><ele>398.9999999664</ele><time>2011-05-29T06:29:44Z</time></trkpt>
<trkpt lat="46.24052695" lon="6.99264597"><ele>398.3999938512</ele><time>2011-05-29T06:29:55Z</time></trkpt>
<trkpt lat="46.24008698" lon="6.99313799"><ele>398.6000060496</ele><time>2011-05-29T06:30:06Z</time></trkpt>
<trkpt lat="46.23972799" lon="6.99352699"><ele>398.799987768</ele><time>2011-05-29T06:30:15Z</time></trkpt>
<trkpt lat="46.23942993" lon="6.99376093"><ele>398.6000060496</ele><time>2011-05-29T06:30:22Z</time></trkpt>
<trkpt lat="46.23902592" lon="6.99405899"><ele>398.3999938512</ele><time>2011-05-29T06:30:31Z</time></trkpt>
<trkpt lat="46.23864898" lon="6.99431992"><ele>399.2000121648</ele><time>2011-05-29T06:30:39Z</time></trkpt>
<trkpt lat="46.23821799" lon="6.99454296"><ele>399.7999878</ele><time>2011-05-29T06:30:48Z</time></trkpt>
<trkpt lat="46.23770099" lon="6.99472795"><ele>399.3999938832</ele><time>2011-05-29T06:30:58Z</time></trkpt>
<trkpt lat="46.23725499" lon="6.99487095"><ele>399.3999938832</ele><time>2011-05-29T06:31:07Z</time></trkpt>
<trkpt lat="46.23697797" lon="6.99499995"><ele>399.6000060816</ele><time>2011-05-29T06:31:14Z</time></trkpt>
<trkpt lat="46.23653498" lon="6.99524897"><ele>399.3999938832</ele><time>2011-05-29T06:31:24Z</time></trkpt>
<trkpt lat="46.23630297" lon="6.99536498"><ele>399.3999938832</ele><time>2011-05-29T06:31:29Z</time></trkpt>
<trkpt lat="46.23617096" lon="6.99546196"><ele>399.3999938832</ele><time>2011-05-29T06:31:32Z</time></trkpt>
<trkpt lat="46.23584398" lon="6.99589496"><ele>399.6000060816</ele><time>2011-05-29T06:31:41Z</time></trkpt>
<trkpt lat="46.23569093" lon="6.99615698"><ele>399.6000060816</ele><time>2011-05-29T06:31:46Z</time></trkpt>
<trkpt lat="46.23557299" lon="6.99618699"><ele>400.2000121968</ele><time>2011-05-29T06:31:49Z</time></trkpt>
<trkpt lat="46.23553494" lon="6.99614500"><ele>400.3999939152</ele><time>2011-05-29T06:31:50Z</time></trkpt>
<trkpt lat="46.23518198" lon="6.99578499"><ele>403.0000000944</ele><time>2011-05-29T06:31:59Z</time></trkpt>
<trkpt lat="46.23488995" lon="6.99549599"><ele>403.799987928</ele><time>2011-05-29T06:32:07Z</time></trkpt>
<trkpt lat="46.23473598" lon="6.99533799"><ele>404.0000001264</ele><time>2011-05-29T06:32:13Z</time></trkpt>
<trkpt lat="46.23465694" lon="6.99519197"><ele>404.2000123248</ele><time>2011-05-29T06:32:18Z</time></trkpt>
<trkpt lat="46.23454998" lon="6.99521394"><ele>404.2000123248</ele><time>2011-05-29T06:32:22Z</time></trkpt>
<trkpt lat="46.23451696" lon="6.99521595"><ele>404.2000123248</ele><time>2011-05-29T06:32:23Z</time></trkpt>
<trkpt lat="46.23422393" lon="6.99518795"><ele>404.3999940432</ele><time>2011-05-29T06:32:31Z</time></trkpt>
<trkpt lat="46.23403198" lon="6.99519298"><ele>404.9999998536</ele><time>2011-05-29T06:32:36Z</time></trkpt>
<trkpt lat="46.23383492" lon="6.99540496"><ele>405.6000059688</ele><time>2011-05-29T06:32:42Z</time></trkpt>
<trkpt lat="46.23346796" lon="6.99583998"><ele>406.200012084</ele><time>2011-05-29T06:32:53Z</time></trkpt>
<trkpt lat="46.23314098" lon="6.99623493"><ele>406.6000060008</ele><time>2011-05-29T06:33:03Z</time></trkpt>
<trkpt lat="46.23295197" lon="6.99635698"><ele>406.3999938024</ele><time>2011-05-29T06:33:08Z</time></trkpt>
<trkpt lat="46.23278299" lon="6.99653492"><ele>406.200012084</ele><time>2011-05-29T06:33:13Z</time></trkpt>
<trkpt lat="46.23272398" lon="6.99663593"><ele>405.9999998856</ele><time>2011-05-29T06:33:15Z</time></trkpt>
<trkpt lat="46.23261494" lon="6.99684095"><ele>406.200012084</ele><time>2011-05-29T06:33:19Z</time></trkpt>
<trkpt lat="46.23228000" lon="6.99724294"><ele>407.7999877512</ele><time>2011-05-29T06:33:28Z</time></trkpt>
<trkpt lat="46.23186392" lon="6.99770998"><ele>408.9999999816</ele><time>2011-05-29T06:33:38Z</time></trkpt>
<trkpt lat="46.23139294" lon="6.99825397"><ele>413.3999940264</ele><time>2011-05-29T06:33:49Z</time></trkpt>
<trkpt lat="46.23105892" lon="6.99864398"><ele>414.9999998688</ele><time>2011-05-29T06:33:57Z</time></trkpt>
<trkpt lat="46.23064695" lon="6.99911898"><ele>413.3999940264</ele><time>2011-05-29T06:34:07Z</time></trkpt>
<trkpt lat="46.23026398" lon="6.99950195"><ele>415.7999877024</ele><time>2011-05-29T06:34:16Z</time></trkpt>
<trkpt lat="46.22994396" lon="6.99979800"><ele>415.9999999008</ele><time>2011-05-29T06:34:25Z</time></trkpt>
<trkpt lat="46.22964699" lon="7.00005096"><ele>421.0000000608</ele><time>2011-05-29T06:34:34Z</time></trkpt>
<trkpt lat="46.22934197" lon="7.00027099"><ele>429.7999878456</ele><time>2011-05-29T06:34:43Z</time></trkpt>
<trkpt lat="46.22903394" lon="7.00048297"><ele>425.2000120824</ele><time>2011-05-29T06:34:52Z</time></trkpt>
<trkpt lat="46.22878097" lon="7.00063996"><ele>425.6000059992</ele><time>2011-05-29T06:35:00Z</time></trkpt>
<trkpt lat="46.22845097" lon="7.00081497"><ele>425.6000059992</ele><time>2011-05-29T06:35:09Z</time></trkpt>
<trkpt lat="46.22805292" lon="7.00094699"><ele>424.3999937688</ele><time>2011-05-29T06:35:19Z</time></trkpt>
<trkpt lat="46.22766894" lon="7.00105193"><ele>421.600006176</ele><time>2011-05-29T06:35:28Z</time></trkpt>
<trkpt lat="46.22717097" lon="7.00115897"><ele>418.2000121632</ele><time>2011-05-29T06:35:39Z</time></trkpt>
<trkpt lat="46.22685196" lon="7.00122493"><ele>416.2000120992</ele><time>2011-05-29T06:35:47Z</time></trkpt>
<trkpt lat="46.22669195" lon="7.00125494"><ele>415.3999937856</ele><time>2011-05-29T06:35:51Z</time></trkpt>
<trkpt lat="46.22644200" lon="7.00128998"><ele>417.3999938496</ele><time>2011-05-29T06:35:57Z</time></trkpt>
<trkpt lat="46.22612399" lon="7.00134094"><ele>420.0000000288</ele><time>2011-05-29T06:36:03Z</time></trkpt>
<trkpt lat="46.22577698" lon="7.00130892"><ele>425.7999877176</ele><time>2011-05-29T06:36:09Z</time></trkpt>
<trkpt lat="46.22567296" lon="7.00130800"><ele>429.000000012</ele><time>2011-05-29T06:36:11Z</time></trkpt>
<trkpt lat="46.22542896" lon="7.00143993"><ele>431.7999879096</ele><time>2011-05-29T06:36:17Z</time></trkpt>
<trkpt lat="46.22530097" lon="7.00153599"><ele>431.2000122744</ele><time>2011-05-29T06:36:21Z</time></trkpt>
<trkpt lat="46.22525294" lon="7.00167697"><ele>426.6000060312</ele><time>2011-05-29T06:36:25Z</time></trkpt>
<trkpt lat="46.22524892" lon="7.00183296"><ele>423.60000624</ele><time>2011-05-29T06:36:29Z</time></trkpt>
<trkpt lat="46.22509394" lon="7.00193396"><ele>423.60000624</ele><time>2011-05-29T06:36:34Z</time></trkpt>
<trkpt lat="46.22473494" lon="7.00209497"><ele>425.999999916</ele><time>2011-05-29T06:36:42Z</time></trkpt>
<trkpt lat="46.22423597" lon="7.00232699"><ele>425.999999916</ele><time>2011-05-29T06:36:53Z</time></trkpt>
<trkpt lat="46.22394595" lon="7.00253796"><ele>426.999999948</ele><time>2011-05-29T06:37:00Z</time></trkpt>
<trkpt lat="46.22371797" lon="7.00280299"><ele>429.7999878456</ele><time>2011-05-29T06:37:06Z</time></trkpt>
<trkpt lat="46.22340398" lon="7.00319594"><ele>424.999999884</ele><time>2011-05-29T06:37:14Z</time></trkpt>
<trkpt lat="46.22300299" lon="7.00348293"><ele>437.7999877968</ele><time>2011-05-29T06:37:22Z</time></trkpt>
<trkpt lat="46.22255799" lon="7.00378695"><ele>441.399994008</ele><time>2011-05-29T06:37:29Z</time></trkpt>
<trkpt lat="46.22199498" lon="7.00420998"><ele>430.3999939608</ele><time>2011-05-29T06:37:37Z</time></trkpt>
<trkpt lat="46.22169793" lon="7.00439497"><ele>432.000000108</ele><time>2011-05-29T06:37:41Z</time></trkpt>
<trkpt lat="46.22133692" lon="7.00451299"><ele>429.6000061272</ele><time>2011-05-29T06:37:46Z</time></trkpt>
<trkpt lat="46.22089896" lon="7.00445297"><ele>434.2000120656</ele><time>2011-05-29T06:37:53Z</time></trkpt>
<trkpt lat="46.22047794" lon="7.00426597"><ele>436.6000060464</ele><time>2011-05-29T06:38:01Z</time></trkpt>
<trkpt lat="46.22012892" lon="7.00417897"><ele>431.000000076</ele><time>2011-05-29T06:38:08Z</time></trkpt>
<trkpt lat="46.21980999" lon="7.00408299"><ele>428.7999878136</ele><time>2011-05-29T06:38:15Z</time></trkpt>
<trkpt lat="46.21940799" lon="7.00405793"><ele>424.2000123552</ele><time>2011-05-29T06:38:23Z</time></trkpt>
<trkpt lat="46.21892896" lon="7.00406397"><ele>420.2000122272</ele><time>2011-05-29T06:38:32Z</time></trkpt>
<trkpt lat="46.21843896" lon="7.00400194"><ele>418.60000608</ele><time>2011-05-29T06:38:41Z</time></trkpt>
<trkpt lat="46.21799598" lon="7.00387294"><ele>418.60000608</ele><time>2011-05-29T06:38:50Z</time></trkpt>
<trkpt lat="46.21765793" lon="7.00379692"><ele>419.3999939136</ele><time>2011-05-29T06:38:57Z</time></trkpt>
<trkpt lat="46.21723297" lon="7.00381796"><ele>419.7999878304</ele><time>2011-05-29T06:39:05Z</time></trkpt>
<trkpt lat="46.21709593" lon="7.00385392"><ele>419.7999878304</ele><time>2011-05-29T06:39:08Z</time></trkpt>
<trkpt lat="46.21696592" lon="7.00373397"><ele>420.2000122272</ele><time>2011-05-29T06:39:12Z</time></trkpt>
<trkpt lat="46.21694396" lon="7.00361193"><ele>420.7999878624</ele><time>2011-05-29T06:39:14Z</time></trkpt>
<trkpt lat="46.21689292" lon="7.00300198"><ele>422.2000122912</ele><time>2011-05-29T06:39:25Z</time></trkpt>
<trkpt lat="46.21680692" lon="7.00278497"><ele>422.600006208</ele><time>2011-05-29T06:39:30Z</time></trkpt>
<trkpt lat="46.21666593" lon="7.00254693"><ele>422.7999879264</ele><time>2011-05-29T06:39:37Z</time></trkpt>
<trkpt lat="46.21663199" lon="7.00234693"><ele>422.2000122912</ele><time>2011-05-29T06:39:42Z</time></trkpt>
<trkpt lat="46.21668094" lon="7.00217494"><ele>421.7999878944</ele><time>2011-05-29T06:39:47Z</time></trkpt>
<trkpt lat="46.21669896" lon="7.00211995"><ele>421.3999939776</ele><time>2011-05-29T06:39:52Z</time></trkpt>
<trkpt lat="46.21661992" lon="7.00258599"><ele>422.600006208</ele><time>2011-05-29T06:41:47Z</time></trkpt>
<trkpt lat="46.21644893" lon="7.00257199"><ele>422.2000122912</ele><time>2011-05-29T06:41:51Z</time></trkpt>
<trkpt lat="46.21628699" lon="7.00258397"><ele>421.7999878944</ele><time>2011-05-29T06:41:55Z</time></trkpt>
<trkpt lat="46.21597200" lon="7.00248700"><ele>421.2000122592</ele><time>2011-05-29T06:42:02Z</time></trkpt>
<trkpt lat="46.21547998" lon="7.00240192"><ele>421.600006176</ele><time>2011-05-29T06:42:11Z</time></trkpt>
<trkpt lat="46.21505292" lon="7.00241793"><ele>422.3999940096</ele><time>2011-05-29T06:42:19Z</time></trkpt>
<trkpt lat="46.21470792" lon="7.00243394"><ele>422.3999940096</ele><time>2011-05-29T06:42:26Z</time></trkpt>
<trkpt lat="46.21466300" lon="7.00243595"><ele>422.3999940096</ele><time>2011-05-29T06:42:27Z</time></trkpt>
<trkpt lat="46.21450994" lon="7.00244794"><ele>422.2000122912</ele><time>2011-05-29T06:43:11Z</time></trkpt>
<trkpt lat="46.21444297" lon="7.00245297"><ele>422.2000122912</ele><time>2011-05-29T06:43:16Z</time></trkpt>
<trkpt lat="46.21423694" lon="7.00247300"><ele>422.0000000928</ele><time>2011-05-29T06:43:21Z</time></trkpt>
<trkpt lat="46.21397492" lon="7.00257299"><ele>422.2000122912</ele><time>2011-05-29T06:43:26Z</time></trkpt>
<trkpt lat="46.21359900" lon="7.00267299"><ele>422.7999879264</ele><time>2011-05-29T06:43:33Z</time></trkpt>
<trkpt lat="46.21336196" lon="7.00274298"><ele>423.2000123232</ele><time>2011-05-29T06:43:39Z</time></trkpt>
<trkpt lat="46.21309097" lon="7.00283593"><ele>423.3999940416</ele><time>2011-05-29T06:43:47Z</time></trkpt>
<trkpt lat="46.21283096" lon="7.00294700"><ele>423.7999876536</ele><time>2011-05-29T06:43:54Z</time></trkpt>
<trkpt lat="46.21276592" lon="7.00291992"><ele>423.7999876536</ele><time>2011-05-29T06:43:56Z</time></trkpt>
<trkpt lat="46.21270993" lon="7.00269395"><ele>423.3999940416</ele><time>2011-05-29T06:44:01Z</time></trkpt>
<trkpt lat="46.21261396" lon="7.00216195"><ele>423.999999852</ele><time>2011-05-29T06:44:10Z</time></trkpt>
<trkpt lat="46.21251496" lon="7.00162592"><ele>425.7999877176</ele><time>2011-05-29T06:44:18Z</time></trkpt>
<trkpt lat="46.21248093" lon="7.00143197"><ele>426.2000121144</ele><time>2011-05-29T06:44:21Z</time></trkpt>
<trkpt lat="46.21244296" lon="7.00124396"><ele>426.7999877496</ele><time>2011-05-29T06:44:24Z</time></trkpt>
<trkpt lat="46.21232394" lon="7.00110599"><ele>427.6000060632</ele><time>2011-05-29T06:44:28Z</time></trkpt>
<trkpt lat="46.21228195" lon="7.00111798"><ele>427.7999877816</ele><time>2011-05-29T06:44:29Z</time></trkpt>
<trkpt lat="46.21178892" lon="7.00135100"><ele>430.000000044</ele><time>2011-05-29T06:44:41Z</time></trkpt>
<trkpt lat="46.21126397" lon="7.00160497"><ele>433.00000014</ele><time>2011-05-29T06:44:54Z</time></trkpt>
<trkpt lat="46.21051094" lon="7.00196799"><ele>435.9999999312</ele><time>2011-05-29T06:45:15Z</time></trkpt>
<trkpt lat="46.21009595" lon="7.00216396"><ele>437.7999877968</ele><time>2011-05-29T06:45:26Z</time></trkpt>
<trkpt lat="46.20971499" lon="7.00234593"><ele>439.399993944</ele><time>2011-05-29T06:45:36Z</time></trkpt>
<trkpt lat="46.20934292" lon="7.00252295"><ele>440.2000122576</ele><time>2011-05-29T06:45:46Z</time></trkpt>
<trkpt lat="46.20891293" lon="7.00276695"><ele>440.399993976</ele><time>2011-05-29T06:45:58Z</time></trkpt>
<trkpt lat="46.20857798" lon="7.00300994"><ele>440.0000000592</ele><time>2011-05-29T06:46:08Z</time></trkpt>
<trkpt lat="46.20854496" lon="7.00303400"><ele>440.0000000592</ele><time>2011-05-29T06:46:09Z</time></trkpt>
<trkpt lat="46.20846299" lon="7.00307197"><ele>440.0000000592</ele><time>2011-05-29T06:46:11Z</time></trkpt>
<trkpt lat="46.20829593" lon="7.00328898"><ele>439.0000000272</ele><time>2011-05-29T06:46:15Z</time></trkpt>
<trkpt lat="46.20829795" lon="7.00349995"><ele>437.39999388</ele><time>2011-05-29T06:46:18Z</time></trkpt>
<trkpt lat="46.20842795" lon="7.00371696"><ele>435.6000060144</ele><time>2011-05-29T06:46:22Z</time></trkpt>
<trkpt lat="46.20860196" lon="7.00397596"><ele>433.2000123384</ele><time>2011-05-29T06:46:25Z</time></trkpt>
<trkpt lat="46.20869894" lon="7.00443797"><ele>430.2000122424</ele><time>2011-05-29T06:46:28Z</time></trkpt>
<trkpt lat="46.20885593" lon="7.00538093"><ele>425.7999877176</ele><time>2011-05-29T06:46:34Z</time></trkpt>
<trkpt lat="46.20874998" lon="7.00556500"><ele>424.999999884</ele><time>2011-05-29T06:46:37Z</time></trkpt>
<trkpt lat="46.20866792" lon="7.00557397"><ele>424.999999884</ele><time>2011-05-29T06:46:38Z</time></trkpt>
<trkpt lat="46.20818596" lon="7.00577094"><ele>424.3999937688</ele><time>2011-05-29T06:46:45Z</time></trkpt>
<trkpt lat="46.20783594" lon="7.00611695"><ele>423.60000624</ele><time>2011-05-29T06:46:51Z</time></trkpt>
<trkpt lat="46.20743997" lon="7.00651693"><ele>422.600006208</ele><time>2011-05-29T06:46:58Z</time></trkpt>
<trkpt lat="46.20670396" lon="7.00707693"><ele>421.3999939776</ele><time>2011-05-29T06:47:10Z</time></trkpt>
<trkpt lat="46.20596794" lon="7.00762594"><ele>420.3999939456</ele><time>2011-05-29T06:47:21Z</time></trkpt>
<trkpt lat="46.20535900" lon="7.00807798"><ele>419.600006112</ele><time>2011-05-29T06:47:30Z</time></trkpt>
<trkpt lat="46.20473396" lon="7.00856597"><ele>418.60000608</ele><time>2011-05-29T06:47:40Z</time></trkpt>
<trkpt lat="46.20421898" lon="7.00896596"><ele>418.2000121632</ele><time>2011-05-29T06:47:49Z</time></trkpt>
<trkpt lat="46.20357994" lon="7.00945797"><ele>417.600006048</ele><time>2011-05-29T06:48:01Z</time></trkpt>
<trkpt lat="46.20296697" lon="7.00997598"><ele>419.7999878304</ele><time>2011-05-29T06:48:13Z</time></trkpt>
<trkpt lat="46.20274393" lon="7.01020195"><ele>419.7999878304</ele><time>2011-05-29T06:48:19Z</time></trkpt>
<trkpt lat="46.20244796" lon="7.01051200"><ele>420.0000000288</ele><time>2011-05-29T06:48:28Z</time></trkpt>
<trkpt lat="46.20212694" lon="7.01087594"><ele>421.2000122592</ele><time>2011-05-29T06:48:39Z</time></trkpt>
<trkpt lat="46.20185696" lon="7.01123695"><ele>422.7999879264</ele><time>2011-05-29T06:48:49Z</time></trkpt>
<trkpt lat="46.20157993" lon="7.01167298"><ele>424.999999884</ele><time>2011-05-29T06:49:00Z</time></trkpt>
<trkpt lat="46.20137198" lon="7.01204899"><ele>424.6000059672</ele><time>2011-05-29T06:49:09Z</time></trkpt>
<trkpt lat="46.20116897" lon="7.01243196"><ele>425.3999938008</ele><time>2011-05-29T06:49:18Z</time></trkpt>
<trkpt lat="46.20101499" lon="7.01265098"><ele>426.6000060312</ele><time>2011-05-29T06:49:24Z</time></trkpt>
<trkpt lat="46.20092296" lon="7.01293495"><ele>427.2000121464</ele><time>2011-05-29T06:49:30Z</time></trkpt>
<trkpt lat="46.20072096" lon="7.01341893"><ele>428.6000060952</ele><time>2011-05-29T06:49:40Z</time></trkpt>
<trkpt lat="46.20054100" lon="7.01389594"><ele>430.2000122424</ele><time>2011-05-29T06:49:49Z</time></trkpt>
<trkpt lat="46.20037093" lon="7.01440196"><ele>432.7999879416</ele><time>2011-05-29T06:49:58Z</time></trkpt>
<trkpt lat="46.20023296" lon="7.01485592"><ele>434.7999877008</ele><time>2011-05-29T06:50:06Z</time></trkpt>
<trkpt lat="46.20006692" lon="7.01543796"><ele>436.399993848</ele><time>2011-05-29T06:50:16Z</time></trkpt>
<trkpt lat="46.19998494" lon="7.01579394"><ele>436.9999999632</ele><time>2011-05-29T06:50:23Z</time></trkpt>
<trkpt lat="46.19996298" lon="7.01582495"><ele>436.9999999632</ele><time>2011-05-29T06:50:24Z</time></trkpt>
<trkpt lat="46.19993197" lon="7.01584197"><ele>437.2000121616</ele><time>2011-05-29T06:50:26Z</time></trkpt>
<trkpt lat="46.19993398" lon="7.01595294"><ele>436.9999999632</ele><time>2011-05-29T06:50:31Z</time></trkpt>
<trkpt lat="46.19989995" lon="7.01618395"><ele>436.6000060464</ele><time>2011-05-29T06:50:35Z</time></trkpt>
<trkpt lat="46.19991696" lon="7.01642099"><ele>435.9999999312</ele><time>2011-05-29T06:50:37Z</time></trkpt>
<trkpt lat="46.19976399" lon="7.01711392"><ele>435.9999999312</ele><time>2011-05-29T06:50:48Z</time></trkpt>
<trkpt lat="46.19958194" lon="7.01770392"><ele>436.2000121296</ele><time>2011-05-29T06:50:59Z</time></trkpt>
<trkpt lat="46.19934699" lon="7.01803098"><ele>436.7999877648</ele><time>2011-05-29T06:51:07Z</time></trkpt>
<trkpt lat="46.19907592" lon="7.01835092"><ele>438.2000121936</ele><time>2011-05-29T06:51:17Z</time></trkpt>
<trkpt lat="46.19887794" lon="7.01858394"><ele>441.2000122896</ele><time>2011-05-29T06:51:26Z</time></trkpt>
<trkpt lat="46.19864099" lon="7.01887596"><ele>444.2000120808</ele><time>2011-05-29T06:51:37Z</time></trkpt>
<trkpt lat="46.19844996" lon="7.01912893"><ele>445.9999999464</ele><time>2011-05-29T06:51:47Z</time></trkpt>
<trkpt lat="46.19827294" lon="7.01935600"><ele>447.3999938952</ele><time>2011-05-29T06:51:56Z</time></trkpt>
<trkpt lat="46.19810295" lon="7.01957795"><ele>449.2000122408</ele><time>2011-05-29T06:52:04Z</time></trkpt>
<trkpt lat="46.19789198" lon="7.01983293"><ele>451.2000123048</ele><time>2011-05-29T06:52:13Z</time></trkpt>
<trkpt lat="46.19766793" lon="7.02007198"><ele>453.200012064</ele><time>2011-05-29T06:52:22Z</time></trkpt>
<trkpt lat="46.19742092" lon="7.02032696"><ele>455.3999938464</ele><time>2011-05-29T06:52:32Z</time></trkpt>
<trkpt lat="46.19725395" lon="7.02050197"><ele>456.20001216</ele><time>2011-05-29T06:52:39Z</time></trkpt>
<trkpt lat="46.19695497" lon="7.02076499"><ele>457.6000061088</ele><time>2011-05-29T06:52:50Z</time></trkpt>
<trkpt lat="46.19666797" lon="7.02101695"><ele>458.3999939424</ele><time>2011-05-29T06:53:01Z</time></trkpt>
<trkpt lat="46.19642993" lon="7.02122600"><ele>459.3999939744</ele><time>2011-05-29T06:53:10Z</time></trkpt>
<trkpt lat="46.19623094" lon="7.02140696"><ele>460.200012288</ele><time>2011-05-29T06:53:18Z</time></trkpt>
<trkpt lat="46.19607696" lon="7.02153898"><ele>460.7999879232</ele><time>2011-05-29T06:53:24Z</time></trkpt>
<trkpt lat="46.19590597" lon="7.02169094"><ele>461.3999940384</ele><time>2011-05-29T06:53:31Z</time></trkpt>
<trkpt lat="46.19573892" lon="7.02185498"><ele>462.3999937656</ele><time>2011-05-29T06:53:38Z</time></trkpt>
<trkpt lat="46.19550096" lon="7.02204692"><ele>463.7999877144</ele><time>2011-05-29T06:53:47Z</time></trkpt>
<trkpt lat="46.19531597" lon="7.02223593"><ele>464.600006028</ele><time>2011-05-29T06:53:54Z</time></trkpt>
<trkpt lat="46.19504993" lon="7.02252394"><ele>465.3999938616</ele><time>2011-05-29T06:54:03Z</time></trkpt>
<trkpt lat="46.19478498" lon="7.02278495"><ele>464.600006028</ele><time>2011-05-29T06:54:12Z</time></trkpt>
<trkpt lat="46.19444895" lon="7.02309198"><ele>464.3999938296</ele><time>2011-05-29T06:54:23Z</time></trkpt>
<trkpt lat="46.19418693" lon="7.02330697"><ele>464.7999877464</ele><time>2011-05-29T06:54:31Z</time></trkpt>
<trkpt lat="46.19389499" lon="7.02355499"><ele>466.2000121752</ele><time>2011-05-29T06:54:40Z</time></trkpt>
<trkpt lat="46.19360397" lon="7.02372699"><ele>468.0000000408</ele><time>2011-05-29T06:54:48Z</time></trkpt>
<trkpt lat="46.19319392" lon="7.02394794"><ele>470.2000123032</ele><time>2011-05-29T06:54:59Z</time></trkpt>
<trkpt lat="46.19274298" lon="7.02418892"><ele>470.7999879384</ele><time>2011-05-29T06:55:10Z</time></trkpt>
<trkpt lat="46.19235800" lon="7.02439000"><ele>470.60000622</ele><time>2011-05-29T06:55:19Z</time></trkpt>
<trkpt lat="46.19186598" lon="7.02466099"><ele>469.3999939896</ele><time>2011-05-29T06:55:30Z</time></trkpt>
<trkpt lat="46.19140900" lon="7.02488797"><ele>469.600006188</ele><time>2011-05-29T06:55:40Z</time></trkpt>
<trkpt lat="46.19093198" lon="7.02513599"><ele>471.0000001368</ele><time>2011-05-29T06:55:51Z</time></trkpt>
<trkpt lat="46.19059595" lon="7.02534696"><ele>471.600006252</ele><time>2011-05-29T06:55:59Z</time></trkpt>
<trkpt lat="46.19016395" lon="7.02565298"><ele>471.0000001368</ele><time>2011-05-29T06:56:10Z</time></trkpt>
<trkpt lat="46.18985499" lon="7.02590394"><ele>469.7999879064</ele><time>2011-05-29T06:56:18Z</time></trkpt>
<trkpt lat="46.18944998" lon="7.02627794"><ele>468.7999878744</ele><time>2011-05-29T06:56:28Z</time></trkpt>
<trkpt lat="46.18897095" lon="7.02672997"><ele>469.0000000728</ele><time>2011-05-29T06:56:39Z</time></trkpt>
<trkpt lat="46.18845697" lon="7.02712099"><ele>469.7999879064</ele><time>2011-05-29T06:56:50Z</time></trkpt>
<trkpt lat="46.18790494" lon="7.02743397"><ele>468.7999878744</ele><time>2011-05-29T06:57:01Z</time></trkpt>
<trkpt lat="46.18741896" lon="7.02763899"><ele>468.0000000408</ele><time>2011-05-29T06:57:10Z</time></trkpt>
<trkpt lat="46.18685897" lon="7.02781292"><ele>466.600006092</ele><time>2011-05-29T06:57:20Z</time></trkpt>
<trkpt lat="46.18645496" lon="7.02793797"><ele>466.7999878104</ele><time>2011-05-29T06:57:27Z</time></trkpt>
<trkpt lat="46.18628497" lon="7.02798693"><ele>467.2000122072</ele><time>2011-05-29T06:57:30Z</time></trkpt>
<trkpt lat="46.18607492" lon="7.02809799"><ele>468.0000000408</ele><time>2011-05-29T06:57:34Z</time></trkpt>
<trkpt lat="46.18597593" lon="7.02816697"><ele>468.3999939576</ele><time>2011-05-29T06:57:36Z</time></trkpt>
<trkpt lat="46.18571693" lon="7.02828700"><ele>469.2000122712</ele><time>2011-05-29T06:57:41Z</time></trkpt>
<trkpt lat="46.18539096" lon="7.02846092"><ele>468.600006156</ele><time>2011-05-29T06:57:47Z</time></trkpt>
<trkpt lat="46.18493398" lon="7.02865798"><ele>467.600006124</ele><time>2011-05-29T06:57:55Z</time></trkpt>
<trkpt lat="46.18456895" lon="7.02884699"><ele>466.600006092</ele><time>2011-05-29T06:58:01Z</time></trkpt>
<trkpt lat="46.18406394" lon="7.02907196"><ele>465.3999938616</ele><time>2011-05-29T06:58:09Z</time></trkpt>
<trkpt lat="46.18349397" lon="7.02927799"><ele>463.3999937976</ele><time>2011-05-29T06:58:17Z</time></trkpt>
<trkpt lat="46.18290497" lon="7.02940598"><ele>461.9999998488</ele><time>2011-05-29T06:58:24Z</time></trkpt>
<trkpt lat="46.18231899" lon="7.02943699"><ele>460.0000000896</ele><time>2011-05-29T06:58:31Z</time></trkpt>
<trkpt lat="46.18169697" lon="7.02940498"><ele>455.9999999616</ele><time>2011-05-29T06:58:38Z</time></trkpt>
<trkpt lat="46.18118794" lon="7.02927497"><ele>455.3999938464</ele><time>2011-05-29T06:58:44Z</time></trkpt>
<trkpt lat="46.18053499" lon="7.02902997"><ele>454.7999877312</ele><time>2011-05-29T06:58:52Z</time></trkpt>
<trkpt lat="46.18045393" lon="7.02897993"><ele>454.9999999296</ele><time>2011-05-29T06:58:53Z</time></trkpt>
<trkpt lat="46.18029292" lon="7.02894992"><ele>454.6000060128</ele><time>2011-05-29T06:58:56Z</time></trkpt>
<trkpt lat="46.18018395" lon="7.02908898"><ele>453.6000059808</ele><time>2011-05-29T06:59:00Z</time></trkpt>
<trkpt lat="46.18015495" lon="7.02906199"><ele>453.6000059808</ele><time>2011-05-29T06:59:01Z</time></trkpt>
<trkpt lat="46.17992898" lon="7.02881095"><ele>453.9999998976</ele><time>2011-05-29T06:59:10Z</time></trkpt>
<trkpt lat="46.17968498" lon="7.02858699"><ele>453.9999998976</ele><time>2011-05-29T06:59:19Z</time></trkpt>
<trkpt lat="46.17938298" lon="7.02835095"><ele>452.9999998656</ele><time>2011-05-29T06:59:29Z</time></trkpt>
<trkpt lat="46.17903194" lon="7.02806496"><ele>452.9999998656</ele><time>2011-05-29T06:59:40Z</time></trkpt>
<trkpt lat="46.17881292" lon="7.02787394"><ele>453.6000059808</ele><time>2011-05-29T06:59:47Z</time></trkpt>
<trkpt lat="46.17847798" lon="7.02762298"><ele>453.7999876992</ele><time>2011-05-29T06:59:57Z</time></trkpt>
<trkpt lat="46.17823692" lon="7.02745694"><ele>453.9999998976</ele><time>2011-05-29T07:00:05Z</time></trkpt>
<trkpt lat="46.17802897" lon="7.02731092"><ele>454.200012096</ele><time>2011-05-29T07:00:12Z</time></trkpt>
<trkpt lat="46.17783895" lon="7.02720699"><ele>453.9999998976</ele><time>2011-05-29T07:00:17Z</time></trkpt>
<trkpt lat="46.17757693" lon="7.02712292"><ele>453.6000059808</ele><time>2011-05-29T07:00:21Z</time></trkpt>
<trkpt lat="46.17714300" lon="7.02698998"><ele>453.6000059808</ele><time>2011-05-29T07:00:26Z</time></trkpt>
<trkpt lat="46.17662592" lon="7.02685294"><ele>453.6000059808</ele><time>2011-05-29T07:00:31Z</time></trkpt>
<trkpt lat="46.17628595" lon="7.02682897"><ele>452.0000001384</ele><time>2011-05-29T07:00:34Z</time></trkpt>
<trkpt lat="46.17581095" lon="7.02677499"><ele>450.0000000744</ele><time>2011-05-29T07:00:39Z</time></trkpt>
<trkpt lat="46.17533100" lon="7.02671598"><ele>450.6000061896</ele><time>2011-05-29T07:00:45Z</time></trkpt>
<trkpt lat="46.17490193" lon="7.02675194"><ele>451.2000123048</ele><time>2011-05-29T07:00:51Z</time></trkpt>
<trkpt lat="46.17421897" lon="7.02688797"><ele>452.9999998656</ele><time>2011-05-29T07:01:01Z</time></trkpt>
<trkpt lat="46.17389794" lon="7.02697699"><ele>453.200012064</ele><time>2011-05-29T07:01:06Z</time></trkpt>
<trkpt lat="46.17337592" lon="7.02716793"><ele>452.9999998656</ele><time>2011-05-29T07:01:14Z</time></trkpt>
<trkpt lat="46.17272599" lon="7.02747395"><ele>450.799987908</ele><time>2011-05-29T07:01:24Z</time></trkpt>
<trkpt lat="46.17202098" lon="7.02780294"><ele>450.3999939912</ele><time>2011-05-29T07:01:35Z</time></trkpt>
<trkpt lat="46.17131498" lon="7.02812992"><ele>451.3999940232</ele><time>2011-05-29T07:01:46Z</time></trkpt>
<trkpt lat="46.17060897" lon="7.02846293"><ele>450.799987908</ele><time>2011-05-29T07:01:57Z</time></trkpt>
<trkpt lat="46.16995996" lon="7.02877893"><ele>450.3999939912</ele><time>2011-05-29T07:02:07Z</time></trkpt>
<trkpt lat="46.16946492" lon="7.02897197"><ele>450.0000000744</ele><time>2011-05-29T07:02:15Z</time></trkpt>
<trkpt lat="46.16921296" lon="7.02903299"><ele>449.799987876</ele><time>2011-05-29T07:02:21Z</time></trkpt>
<trkpt lat="46.16902496" lon="7.02906995"><ele>449.799987876</ele><time>2011-05-29T07:02:27Z</time></trkpt>
<trkpt lat="46.16885799" lon="7.02915293"><ele>449.799987876</ele><time>2011-05-29T07:02:33Z</time></trkpt>
<trkpt lat="46.16850696" lon="7.02936499"><ele>450.2000122728</ele><time>2011-05-29T07:02:40Z</time></trkpt>
<trkpt lat="46.16794495" lon="7.02960497"><ele>450.2000122728</ele><time>2011-05-29T07:02:50Z</time></trkpt>
<trkpt lat="46.16753398" lon="7.02980597"><ele>450.0000000744</ele><time>2011-05-29T07:02:58Z</time></trkpt>
<trkpt lat="46.16717398" lon="7.02996195"><ele>450.2000122728</ele><time>2011-05-29T07:03:05Z</time></trkpt>
<trkpt lat="46.16694499" lon="7.03005994"><ele>450.6000061896</ele><time>2011-05-29T07:03:10Z</time></trkpt>
<trkpt lat="46.16660695" lon="7.03016798"><ele>451.3999940232</ele><time>2011-05-29T07:03:17Z</time></trkpt>
<trkpt lat="46.16622197" lon="7.03031592"><ele>451.79998794</ele><time>2011-05-29T07:03:24Z</time></trkpt>
<trkpt lat="46.16572299" lon="7.03056193"><ele>451.6000062216</ele><time>2011-05-29T07:03:33Z</time></trkpt>
<trkpt lat="46.16517800" lon="7.03087692"><ele>450.3999939912</ele><time>2011-05-29T07:03:43Z</time></trkpt>
<trkpt lat="46.16476494" lon="7.03113592"><ele>451.0000001064</ele><time>2011-05-29T07:03:51Z</time></trkpt>
<trkpt lat="46.16435892" lon="7.03138394"><ele>451.79998794</ele><time>2011-05-29T07:03:59Z</time></trkpt>
<trkpt lat="46.16399095" lon="7.03157396"><ele>451.6000062216</ele><time>2011-05-29T07:04:06Z</time></trkpt>
<trkpt lat="46.16355300" lon="7.03177094"><ele>450.3999939912</ele><time>2011-05-29T07:04:15Z</time></trkpt>
<trkpt lat="46.16321898" lon="7.03190194"><ele>449.6000061576</ele><time>2011-05-29T07:04:22Z</time></trkpt>
<trkpt lat="46.16267893" lon="7.03209599"><ele>448.799987844</ele><time>2011-05-29T07:04:33Z</time></trkpt>
<trkpt lat="46.16229798" lon="7.03220394"><ele>449.0000000424</ele><time>2011-05-29T07:04:41Z</time></trkpt>
<trkpt lat="46.16216596" lon="7.03224393"><ele>449.3999939592</ele><time>2011-05-29T07:04:44Z</time></trkpt>
<trkpt lat="46.16203395" lon="7.03227393"><ele>449.6000061576</ele><time>2011-05-29T07:04:47Z</time></trkpt>
<trkpt lat="46.16152894" lon="7.03242900"><ele>450.6000061896</ele><time>2011-05-29T07:04:58Z</time></trkpt>
<trkpt lat="46.16111998" lon="7.03252899"><ele>451.79998794</ele><time>2011-05-29T07:05:07Z</time></trkpt>
<trkpt lat="46.16067197" lon="7.03262698"><ele>452.7999876672</ele><time>2011-05-29T07:05:16Z</time></trkpt>
<trkpt lat="46.16027693" lon="7.03264399"><ele>452.2000123368</ele><time>2011-05-29T07:05:24Z</time></trkpt>
<trkpt lat="46.15992095" lon="7.03258499"><ele>451.6000062216</ele><time>2011-05-29T07:05:31Z</time></trkpt>
<trkpt lat="46.15951493" lon="7.03250594"><ele>450.2000122728</ele><time>2011-05-29T07:05:39Z</time></trkpt>
<trkpt lat="46.15912300" lon="7.03241299"><ele>449.0000000424</ele><time>2011-05-29T07:05:47Z</time></trkpt>
<trkpt lat="46.15871195" lon="7.03231593"><ele>449.3999939592</ele><time>2011-05-29T07:05:55Z</time></trkpt>
<trkpt lat="46.15832294" lon="7.03221794"><ele>449.6000061576</ele><time>2011-05-29T07:06:03Z</time></trkpt>
<trkpt lat="46.15818095" lon="7.03217897"><ele>449.799987876</ele><time>2011-05-29T07:06:06Z</time></trkpt>
<trkpt lat="46.15799697" lon="7.03209096"><ele>450.0000000744</ele><time>2011-05-29T07:06:10Z</time></trkpt>
<trkpt lat="46.15781492" lon="7.03205500"><ele>450.3999939912</ele><time>2011-05-29T07:06:14Z</time></trkpt>
<trkpt lat="46.15753597" lon="7.03203798"><ele>450.799987908</ele><time>2011-05-29T07:06:19Z</time></trkpt>
<trkpt lat="46.15724394" lon="7.03187093"><ele>451.0000001064</ele><time>2011-05-29T07:06:24Z</time></trkpt>
<trkpt lat="46.15714596" lon="7.03152996"><ele>450.799987908</ele><time>2011-05-29T07:06:28Z</time></trkpt>
<trkpt lat="46.15718493" lon="7.03142493"><ele>450.799987908</ele><time>2011-05-29T07:06:29Z</time></trkpt>
<trkpt lat="46.15723799" lon="7.03107297"><ele>450.6000061896</ele><time>2011-05-29T07:06:35Z</time></trkpt>
<trkpt lat="46.15727998" lon="7.03082093"><ele>450.3999939912</ele><time>2011-05-29T07:06:38Z</time></trkpt>
<trkpt lat="46.15719097" lon="7.03047995"><ele>452.0000001384</ele><time>2011-05-29T07:06:43Z</time></trkpt>
<trkpt lat="46.15703599" lon="7.03016798"><ele>454.3999938144</ele><time>2011-05-29T07:06:49Z</time></trkpt>
<trkpt lat="46.15692593" lon="7.03019396"><ele>455.200012128</ele><time>2011-05-29T07:06:53Z</time></trkpt>
<trkpt lat="46.15687799" lon="7.03027694"><ele>454.9999999296</ele><time>2011-05-29T07:06:55Z</time></trkpt>
<trkpt lat="46.15651798" lon="7.03060996"><ele>455.6000060448</ele><time>2011-05-29T07:07:04Z</time></trkpt>
<trkpt lat="46.15606192" lon="7.03088396"><ele>456.6000060768</ele><time>2011-05-29T07:07:13Z</time></trkpt>
<trkpt lat="46.15581893" lon="7.03103894"><ele>456.9999999936</ele><time>2011-05-29T07:07:19Z</time></trkpt>
<trkpt lat="46.15555993" lon="7.03119895"><ele>457.200012192</ele><time>2011-05-29T07:07:27Z</time></trkpt>
<trkpt lat="46.15525399" lon="7.03120792"><ele>459.3999939744</ele><time>2011-05-29T07:07:34Z</time></trkpt>
<trkpt lat="46.15470297" lon="7.03117800"><ele>461.3999940384</ele><time>2011-05-29T07:07:46Z</time></trkpt>
<trkpt lat="46.15420299" lon="7.03108194"><ele>462.7999876824</ele><time>2011-05-29T07:07:57Z</time></trkpt>
<trkpt lat="46.15378993" lon="7.03101296"><ele>461.9999998488</ele><time>2011-05-29T07:08:06Z</time></trkpt>
<trkpt lat="46.15329992" lon="7.03091900"><ele>460.6000062048</ele><time>2011-05-29T07:08:17Z</time></trkpt>
<trkpt lat="46.15287898" lon="7.03084499"><ele>460.200012288</ele><time>2011-05-29T07:08:26Z</time></trkpt>
<trkpt lat="46.15234396" lon="7.03075195"><ele>460.200012288</ele><time>2011-05-29T07:08:37Z</time></trkpt>
<trkpt lat="46.15180694" lon="7.03063393"><ele>461.20001232</ele><time>2011-05-29T07:08:48Z</time></trkpt>
<trkpt lat="46.15126094" lon="7.03052999"><ele>462.200012352</ele><time>2011-05-29T07:08:59Z</time></trkpt>
<trkpt lat="46.15063095" lon="7.03045498"><ele>462.200012352</ele><time>2011-05-29T07:09:11Z</time></trkpt>
<trkpt lat="46.15014397" lon="7.03038993"><ele>461.9999998488</ele><time>2011-05-29T07:09:20Z</time></trkpt>
<trkpt lat="46.14985093" lon="7.03031994"><ele>461.3999940384</ele><time>2011-05-29T07:09:26Z</time></trkpt>
<trkpt lat="46.14956394" lon="7.03027292"><ele>460.0000000896</ele><time>2011-05-29T07:09:32Z</time></trkpt>
<trkpt lat="46.14929597" lon="7.03012398"><ele>458.6000061408</ele><time>2011-05-29T07:09:38Z</time></trkpt>
<trkpt lat="46.14892599" lon="7.02980597"><ele>460.0000000896</ele><time>2011-05-29T07:09:47Z</time></trkpt>
<trkpt lat="46.14887495" lon="7.02977998"><ele>460.0000000896</ele><time>2011-05-29T07:09:48Z</time></trkpt>
<trkpt lat="46.14852299" lon="7.02966498"><ele>460.3999940064</ele><time>2011-05-29T07:09:55Z</time></trkpt>
<trkpt lat="46.14831193" lon="7.02957597"><ele>460.3999940064</ele><time>2011-05-29T07:09:59Z</time></trkpt>
<trkpt lat="46.14794699" lon="7.02960396"><ele>459.6000061728</ele><time>2011-05-29T07:10:05Z</time></trkpt>
<trkpt lat="46.14753493" lon="7.02970698"><ele>459.0000000576</ele><time>2011-05-29T07:10:12Z</time></trkpt>
<trkpt lat="46.14719194" lon="7.02976892"><ele>458.3999939424</ele><time>2011-05-29T07:10:18Z</time></trkpt>
<trkpt lat="46.14664192" lon="7.02992993"><ele>457.6000061088</ele><time>2011-05-29T07:10:28Z</time></trkpt>
<trkpt lat="46.14622794" lon="7.03000797"><ele>455.200012128</ele><time>2011-05-29T07:10:36Z</time></trkpt>
<trkpt lat="46.14589292" lon="7.03005298"><ele>453.3999937824</ele><time>2011-05-29T07:10:43Z</time></trkpt>
<trkpt lat="46.14544599" lon="7.03016295"><ele>452.7999876672</ele><time>2011-05-29T07:10:52Z</time></trkpt>
<trkpt lat="46.14510292" lon="7.03025599"><ele>452.2000123368</ele><time>2011-05-29T07:10:59Z</time></trkpt>
<trkpt lat="46.14500896" lon="7.03025498"><ele>452.0000001384</ele><time>2011-05-29T07:11:01Z</time></trkpt>
<trkpt lat="46.14473496" lon="7.03034392"><ele>452.2000123368</ele><time>2011-05-29T07:11:08Z</time></trkpt>
<trkpt lat="46.14457394" lon="7.03042799"><ele>452.2000123368</ele><time>2011-05-29T07:11:13Z</time></trkpt>
<trkpt lat="46.14442893" lon="7.03031098"><ele>452.7999876672</ele><time>2011-05-29T07:11:18Z</time></trkpt>
<trkpt lat="46.14440697" lon="7.03018793"><ele>453.3999937824</ele><time>2011-05-29T07:11:21Z</time></trkpt>
<trkpt lat="46.14424495" lon="7.03000696"><ele>454.6000060128</ele><time>2011-05-29T07:11:29Z</time></trkpt>
<trkpt lat="46.14416993" lon="7.02987193"><ele>455.7999877632</ele><time>2011-05-29T07:11:35Z</time></trkpt>
<trkpt lat="46.14411696" lon="7.02976397"><ele>456.7999877952</ele><time>2011-05-29T07:11:41Z</time></trkpt>
<trkpt lat="46.14410698" lon="7.02973799"><ele>456.9999999936</ele><time>2011-05-29T07:11:43Z</time></trkpt>
<trkpt lat="46.14409592" lon="7.02961394"><ele>457.7999878272</ele><time>2011-05-29T07:11:50Z</time></trkpt>
<trkpt lat="46.14409198" lon="7.02958594"><ele>458.0000000256</ele><time>2011-05-29T07:11:51Z</time></trkpt>
<trkpt lat="46.14409500" lon="7.02953196"><ele>458.3999939424</ele><time>2011-05-29T07:11:53Z</time></trkpt>
<trkpt lat="46.14407396" lon="7.02940900"><ele>459.200012256</ele><time>2011-05-29T07:11:58Z</time></trkpt>
<trkpt lat="46.14404395" lon="7.02922493"><ele>460.6000062048</ele><time>2011-05-29T07:12:04Z</time></trkpt>
<trkpt lat="46.14405292" lon="7.02918596"><ele>460.7999879232</ele><time>2011-05-29T07:12:07Z</time></trkpt>
<trkpt lat="46.14430496" lon="7.02903500"><ele>460.0000000896</ele><time>2011-05-29T07:12:55Z</time></trkpt>
<trkpt lat="46.14412693" lon="7.02919099"><ele>460.7999879232</ele><time>2011-05-29T07:13:04Z</time></trkpt>
<trkpt lat="46.14405996" lon="7.02929894"><ele>460.0000000896</ele><time>2011-05-29T07:13:08Z</time></trkpt>
<trkpt lat="46.14391596" lon="7.02940598"><ele>459.6000061728</ele><time>2011-05-29T07:13:12Z</time></trkpt>
<trkpt lat="46.14387698" lon="7.02954998"><ele>458.7999878592</ele><time>2011-05-29T07:13:15Z</time></trkpt>
<trkpt lat="46.14382292" lon="7.02972894"><ele>458.0000000256</ele><time>2011-05-29T07:13:20Z</time></trkpt>
<trkpt lat="46.14378696" lon="7.02975894"><ele>458.0000000256</ele><time>2011-05-29T07:13:24Z</time></trkpt>
<trkpt lat="46.14377598" lon="7.02975400"><ele>458.0000000256</ele><time>2011-05-29T07:13:26Z</time></trkpt>
<trkpt lat="46.14373198" lon="7.02973195"><ele>458.200012224</ele><time>2011-05-29T07:13:31Z</time></trkpt>
<trkpt lat="46.14366098" lon="7.02972692"><ele>458.3999939424</ele><time>2011-05-29T07:13:38Z</time></trkpt>
<trkpt lat="46.14350592" lon="7.02976992"><ele>458.7999878592</ele><time>2011-05-29T07:13:47Z</time></trkpt>
<trkpt lat="46.14335798" lon="7.02986397"><ele>459.200012256</ele><time>2011-05-29T07:13:52Z</time></trkpt>
<trkpt lat="46.14322395" lon="7.02998199"><ele>460.6000062048</ele><time>2011-05-29T07:13:56Z</time></trkpt>
<trkpt lat="46.14302698" lon="7.03010998"><ele>462.3999937656</ele><time>2011-05-29T07:14:01Z</time></trkpt>
<trkpt lat="46.14297895" lon="7.03013596"><ele>462.7999876824</ele><time>2011-05-29T07:14:02Z</time></trkpt>
<trkpt lat="46.14276697" lon="7.03032397"><ele>463.2000120792</ele><time>2011-05-29T07:14:07Z</time></trkpt>
<trkpt lat="46.14259296" lon="7.03048993"><ele>462.600005964</ele><time>2011-05-29T07:14:11Z</time></trkpt>
<trkpt lat="46.14246497" lon="7.03076293"><ele>459.7999878912</ele><time>2011-05-29T07:14:16Z</time></trkpt>
<trkpt lat="46.14228794" lon="7.03091095"><ele>461.0000001216</ele><time>2011-05-29T07:14:20Z</time></trkpt>
<trkpt lat="46.14207798" lon="7.03098798"><ele>463.600005996</ele><time>2011-05-29T07:14:24Z</time></trkpt>
<trkpt lat="46.14196398" lon="7.03098496"><ele>465.3999938616</ele><time>2011-05-29T07:14:26Z</time></trkpt>
<trkpt lat="46.14171093" lon="7.03109896"><ele>467.3999939256</ele><time>2011-05-29T07:14:32Z</time></trkpt>
<trkpt lat="46.14167397" lon="7.03112000"><ele>467.600006124</ele><time>2011-05-29T07:14:33Z</time></trkpt>
<trkpt lat="46.14148395" lon="7.03129493"><ele>468.0000000408</ele><time>2011-05-29T07:14:38Z</time></trkpt>
<trkpt lat="46.14135898" lon="7.03145695"><ele>466.7999878104</ele><time>2011-05-29T07:14:42Z</time></trkpt>
<trkpt lat="46.14121498" lon="7.03153993"><ele>467.0000000088</ele><time>2011-05-29T07:14:45Z</time></trkpt>
<trkpt lat="46.14098196" lon="7.03176700"><ele>465.2000121432</ele><time>2011-05-29T07:14:50Z</time></trkpt>
<trkpt lat="46.14086092" lon="7.03188996"><ele>464.3999938296</ele><time>2011-05-29T07:14:55Z</time></trkpt>
<trkpt lat="46.14075598" lon="7.03197193"><ele>465.2000121432</ele><time>2011-05-29T07:15:00Z</time></trkpt>
<trkpt lat="46.14073696" lon="7.03199197"><ele>465.2000121432</ele><time>2011-05-29T07:15:01Z</time></trkpt>
<trkpt lat="46.14065892" lon="7.03211199"><ele>464.600006028</ele><time>2011-05-29T07:15:06Z</time></trkpt>
<trkpt lat="46.14055096" lon="7.03223395"><ele>464.600006028</ele><time>2011-05-29T07:15:10Z</time></trkpt>
<trkpt lat="46.14045692" lon="7.03236496"><ele>463.3999937976</ele><time>2011-05-29T07:15:13Z</time></trkpt>
<trkpt lat="46.14036396" lon="7.03252698"><ele>461.6000062368</ele><time>2011-05-29T07:15:16Z</time></trkpt>
<trkpt lat="46.14004696" lon="7.03289394"><ele>460.7999879232</ele><time>2011-05-29T07:15:22Z</time></trkpt>
<trkpt lat="46.13978796" lon="7.03300894"><ele>460.3999940064</ele><time>2011-05-29T07:15:26Z</time></trkpt>
<trkpt lat="46.13973398" lon="7.03300995"><ele>460.7999879232</ele><time>2011-05-29T07:15:27Z</time></trkpt>
<trkpt lat="46.13961697" lon="7.03300299"><ele>461.7999876504</ele><time>2011-05-29T07:15:29Z</time></trkpt>
<trkpt lat="46.13930994" lon="7.03306896"><ele>462.3999937656</ele><time>2011-05-29T07:15:34Z</time></trkpt>
<trkpt lat="46.13909494" lon="7.03304599"><ele>463.7999877144</ele><time>2011-05-29T07:15:38Z</time></trkpt>
<trkpt lat="46.13882697" lon="7.03299997"><ele>464.9999999448</ele><time>2011-05-29T07:15:42Z</time></trkpt>
<trkpt lat="46.13857392" lon="7.03298598"><ele>465.60000606</ele><time>2011-05-29T07:15:46Z</time></trkpt>
<trkpt lat="46.13831400" lon="7.03304892"><ele>464.7999877464</ele><time>2011-05-29T07:15:52Z</time></trkpt>
<trkpt lat="46.13828299" lon="7.03323894"><ele>461.6000062368</ele><time>2011-05-29T07:15:56Z</time></trkpt>
<trkpt lat="46.13829799" lon="7.03352292"><ele>458.200012224</ele><time>2011-05-29T07:16:01Z</time></trkpt>
<trkpt lat="46.13833495" lon="7.03384495"><ele>454.9999999296</ele><time>2011-05-29T07:16:07Z</time></trkpt>
<trkpt lat="46.13821694" lon="7.03398694"><ele>453.7999876992</ele><time>2011-05-29T07:16:11Z</time></trkpt>
<trkpt lat="46.13784394" lon="7.03416397"><ele>452.6000062536</ele><time>2011-05-29T07:16:19Z</time></trkpt>
<trkpt lat="46.13746793" lon="7.03437695"><ele>452.6000062536</ele><time>2011-05-29T07:16:27Z</time></trkpt>
<trkpt lat="46.13703593" lon="7.03463595"><ele>453.9999998976</ele><time>2011-05-29T07:16:36Z</time></trkpt>
<trkpt lat="46.13664592" lon="7.03487794"><ele>453.3999937824</ele><time>2011-05-29T07:16:44Z</time></trkpt>
<trkpt lat="46.13621593" lon="7.03514792"><ele>453.6000059808</ele><time>2011-05-29T07:16:53Z</time></trkpt>
<trkpt lat="46.13589699" lon="7.03533894"><ele>453.6000059808</ele><time>2011-05-29T07:17:00Z</time></trkpt>
<trkpt lat="46.13498999" lon="7.03584295"><ele>454.7999877312</ele><time>2011-05-29T07:17:19Z</time></trkpt>
<trkpt lat="46.13475999" lon="7.03592794"><ele>454.3999938144</ele><time>2011-05-29T07:17:24Z</time></trkpt>
<trkpt lat="46.13460694" lon="7.03586600"><ele>454.3999938144</ele><time>2011-05-29T07:17:28Z</time></trkpt>
<trkpt lat="46.13443393" lon="7.03569199"><ele>454.6000060128</ele><time>2011-05-29T07:17:33Z</time></trkpt>
<trkpt lat="46.13435397" lon="7.03563600"><ele>454.6000060128</ele><time>2011-05-29T07:17:35Z</time></trkpt>
<trkpt lat="46.13407795" lon="7.03539493"><ele>456.20001216</ele><time>2011-05-29T07:17:43Z</time></trkpt>
<trkpt lat="46.13398299" lon="7.03530399"><ele>458.0000000256</ele><time>2011-05-29T07:17:48Z</time></trkpt>
<trkpt lat="46.13390998" lon="7.03516494"><ele>459.7999878912</ele><time>2011-05-29T07:17:56Z</time></trkpt>
<trkpt lat="46.13388894" lon="7.03502596"><ele>460.7999879232</ele><time>2011-05-29T07:18:04Z</time></trkpt>
<trkpt lat="46.13388693" lon="7.03486193"><ele>465.7999877784</ele><time>2011-05-29T07:18:12Z</time></trkpt>
<trkpt lat="46.13386899" lon="7.03475095"><ele>470.3999940216</ele><time>2011-05-29T07:18:19Z</time></trkpt>
<trkpt lat="46.13385793" lon="7.03465993"><ele>473.999999928</ele><time>2011-05-29T07:18:24Z</time></trkpt>
<trkpt lat="46.13384192" lon="7.03452699"><ele>479.7999879216</ele><time>2011-05-29T07:18:30Z</time></trkpt>
<trkpt lat="46.13384100" lon="7.03448399"><ele>481.399993764</ele><time>2011-05-29T07:18:32Z</time></trkpt>
<trkpt lat="46.13383697" lon="7.03444292"><ele>483.2000121096</ele><time>2011-05-29T07:18:34Z</time></trkpt>
<trkpt lat="46.13386195" lon="7.03431199"><ele>486.7999878408</ele><time>2011-05-29T07:18:41Z</time></trkpt>
<trkpt lat="46.13387696" lon="7.03425894"><ele>488.0000000712</ele><time>2011-05-29T07:18:44Z</time></trkpt>
<trkpt lat="46.13388098" lon="7.03423295"><ele>488.6000061864</ele><time>2011-05-29T07:18:46Z</time></trkpt>
<trkpt lat="46.13392297" lon="7.03414394"><ele>489.6000062184</ele><time>2011-05-29T07:18:52Z</time></trkpt>
<trkpt lat="46.13394795" lon="7.03408392"><ele>490.6000062504</ele><time>2011-05-29T07:18:57Z</time></trkpt>
<trkpt lat="46.13400294" lon="7.03401695"><ele>490.0000001352</ele><time>2011-05-29T07:19:03Z</time></trkpt>
<trkpt lat="46.13405398" lon="7.03391997"><ele>490.799987664</ele><time>2011-05-29T07:19:10Z</time></trkpt>
<trkpt lat="46.13407292" lon="7.03390094"><ele>490.3999937472</ele><time>2011-05-29T07:19:12Z</time></trkpt>
<trkpt lat="46.13416194" lon="7.03381595"><ele>488.0000000712</ele><time>2011-05-29T07:19:20Z</time></trkpt>
<trkpt lat="46.13424995" lon="7.03375594"><ele>488.0000000712</ele><time>2011-05-29T07:19:27Z</time></trkpt>
<trkpt lat="46.13430795" lon="7.03372392"><ele>487.6000061544</ele><time>2011-05-29T07:19:33Z</time></trkpt>
<trkpt lat="46.13432497" lon="7.03372694"><ele>487.0000000392</ele><time>2011-05-29T07:19:36Z</time></trkpt>
<trkpt lat="46.13437492" lon="7.03369098"><ele>486.7999878408</ele><time>2011-05-29T07:19:42Z</time></trkpt>
<trkpt lat="46.13438297" lon="7.03365292"><ele>488.0000000712</ele><time>2011-05-29T07:19:45Z</time></trkpt>
<trkpt lat="46.13436696" lon="7.03364194"><ele>488.7999879048</ele><time>2011-05-29T07:19:49Z</time></trkpt>
<trkpt lat="46.13435196" lon="7.03364597"><ele>489.2000123016</ele><time>2011-05-29T07:20:13Z</time></trkpt>
<trkpt lat="46.13423193" lon="7.03369592"><ele>490.799987664</ele><time>2011-05-29T07:20:23Z</time></trkpt>
<trkpt lat="46.13415498" lon="7.03368193"><ele>493.79998776</ele><time>2011-05-29T07:20:31Z</time></trkpt>
<trkpt lat="46.13414694" lon="7.03368394"><ele>494.3999938752</ele><time>2011-05-29T07:20:32Z</time></trkpt>
<trkpt lat="46.13410897" lon="7.03368293"><ele>497.0000000544</ele><time>2011-05-29T07:20:38Z</time></trkpt>
<trkpt lat="46.13404199" lon="7.03373498"><ele>499.2000123168</ele><time>2011-05-29T07:21:02Z</time></trkpt>
<trkpt lat="46.13396597" lon="7.03379097"><ele>501.9999999096</ele><time>2011-05-29T07:21:11Z</time></trkpt>
<trkpt lat="46.13395097" lon="7.03381998"><ele>501.6000059928</ele><time>2011-05-29T07:21:15Z</time></trkpt>
<trkpt lat="46.13390394" lon="7.03387295"><ele>502.3999938264</ele><time>2011-05-29T07:21:20Z</time></trkpt>
<trkpt lat="46.13386296" lon="7.03391092"><ele>503.3999938584</ele><time>2011-05-29T07:21:24Z</time></trkpt>
<trkpt lat="46.13378693" lon="7.03397496"><ele>505.3999939224</ele><time>2011-05-29T07:21:30Z</time></trkpt>
<trkpt lat="46.13370999" lon="7.03402198"><ele>508.0000001016</ele><time>2011-05-29T07:21:37Z</time></trkpt>
<trkpt lat="46.13367093" lon="7.03406196"><ele>508.6000062168</ele><time>2011-05-29T07:21:41Z</time></trkpt>
<trkpt lat="46.13365894" lon="7.03407294"><ele>508.7999879352</ele><time>2011-05-29T07:21:42Z</time></trkpt>
<trkpt lat="46.13360194" lon="7.03414293"><ele>509.0000001336</ele><time>2011-05-29T07:21:47Z</time></trkpt>
<trkpt lat="46.13358200" lon="7.03415995"><ele>509.3999937456</ele><time>2011-05-29T07:21:51Z</time></trkpt>
<trkpt lat="46.13358099" lon="7.03410496"><ele>511.9999999248</ele><time>2011-05-29T07:21:57Z</time></trkpt>
<trkpt lat="46.13358292" lon="7.03410194"><ele>511.9999999248</ele><time>2011-05-29T07:21:58Z</time></trkpt>
<trkpt lat="46.13358292" lon="7.03406196"><ele>513.9999999888</ele><time>2011-05-29T07:22:52Z</time></trkpt>
<trkpt lat="46.13359993" lon="7.03404193"><ele>513.7999877904</ele><time>2011-05-29T07:22:54Z</time></trkpt>
<trkpt lat="46.13362692" lon="7.03398292"><ele>515.0000000208</ele><time>2011-05-29T07:22:59Z</time></trkpt>
<trkpt lat="46.13368493" lon="7.03388594"><ele>515.7999878544</ele><time>2011-05-29T07:23:06Z</time></trkpt>
<trkpt lat="46.13377294" lon="7.03377094"><ele>515.4000244176</ele><time>2011-05-29T07:23:14Z</time></trkpt>
<trkpt lat="46.13384795" lon="7.03369995"><ele>513.599975592</ele><time>2011-05-29T07:23:21Z</time></trkpt>
<trkpt lat="46.13392096" lon="7.03360297"><ele>512.9999999568</ele><time>2011-05-29T07:23:27Z</time></trkpt>
<trkpt lat="46.13402196" lon="7.03348193"><ele>511.2000120912</ele><time>2011-05-29T07:23:36Z</time></trkpt>
<trkpt lat="46.13409497" lon="7.03336299"><ele>510.7999876944</ele><time>2011-05-29T07:23:43Z</time></trkpt>
<trkpt lat="46.13419094" lon="7.03326995"><ele>510.2000120592</ele><time>2011-05-29T07:23:50Z</time></trkpt>
<trkpt lat="46.13420997" lon="7.03324892"><ele>510.7999876944</ele><time>2011-05-29T07:23:52Z</time></trkpt>
<trkpt lat="46.13416496" lon="7.03319293"><ele>516.2000122512</ele><time>2011-05-29T07:23:57Z</time></trkpt>
<trkpt lat="46.13414794" lon="7.03319695"><ele>517.2000122832</ele><time>2011-05-29T07:23:58Z</time></trkpt>
<trkpt lat="46.13406496" lon="7.03326099"><ele>518.7999876456</ele><time>2011-05-29T07:24:05Z</time></trkpt>
<trkpt lat="46.13402992" lon="7.03326593"><ele>520.999999908</ele><time>2011-05-29T07:24:08Z</time></trkpt>
<trkpt lat="46.13395994" lon="7.03331597"><ele>522.7999877736</ele><time>2011-05-29T07:24:15Z</time></trkpt>
<trkpt lat="46.13392599" lon="7.03334992"><ele>523.5999756072</ele><time>2011-05-29T07:24:17Z</time></trkpt>
<trkpt lat="46.13387796" lon="7.03340298"><ele>524.5999756392</ele><time>2011-05-29T07:24:21Z</time></trkpt>
<trkpt lat="46.13383295" lon="7.03345696"><ele>525.4000244328</ele><time>2011-05-29T07:24:25Z</time></trkpt>
<trkpt lat="46.13371694" lon="7.03356299"><ele>528.5999754624</ele><time>2011-05-29T07:24:33Z</time></trkpt>
<trkpt lat="46.13366992" lon="7.03361093"><ele>529.5999754944</ele><time>2011-05-29T07:24:38Z</time></trkpt>
<trkpt lat="46.13358292" lon="7.03369299"><ele>531.5999755584</ele><time>2011-05-29T07:24:45Z</time></trkpt>
<trkpt lat="46.13349600" lon="7.03375896"><ele>534.2000122176</ele><time>2011-05-29T07:24:52Z</time></trkpt>
<trkpt lat="46.13344294" lon="7.03376692"><ele>537.400024512</ele><time>2011-05-29T07:24:58Z</time></trkpt>
<trkpt lat="46.13333800" lon="7.03380698"><ele>542.2000121688</ele><time>2011-05-29T07:25:05Z</time></trkpt>
<trkpt lat="46.13325695" lon="7.03385199"><ele>547.2000123288</ele><time>2011-05-29T07:25:11Z</time></trkpt>
<trkpt lat="46.13324194" lon="7.03386096"><ele>548.200012056</ele><time>2011-05-29T07:25:13Z</time></trkpt>
<trkpt lat="46.13319199" lon="7.03392098"><ele>550.4000243184</ele><time>2011-05-29T07:25:19Z</time></trkpt>
<trkpt lat="46.13313993" lon="7.03398694"><ele>553.0000000176</ele><time>2011-05-29T07:25:24Z</time></trkpt>
<trkpt lat="46.13313792" lon="7.03400295"><ele>552.7999878192</ele><time>2011-05-29T07:25:26Z</time></trkpt>
<trkpt lat="46.13309794" lon="7.03408493"><ele>554.200012248</ele><time>2011-05-29T07:25:32Z</time></trkpt>
<trkpt lat="46.13310196" lon="7.03409599"><ele>553.4000244144</ele><time>2011-05-29T07:25:34Z</time></trkpt>
<trkpt lat="46.13310699" lon="7.03405693"><ele>554.200012248</ele><time>2011-05-29T07:25:39Z</time></trkpt>
<trkpt lat="46.13311395" lon="7.03401494"><ele>554.7999878832</ele><time>2011-05-29T07:25:41Z</time></trkpt>
<trkpt lat="46.13310892" lon="7.03397395"><ele>556.599975444</ele><time>2011-05-29T07:25:44Z</time></trkpt>
<trkpt lat="46.13312099" lon="7.03392894"><ele>557.0000001456</ele><time>2011-05-29T07:25:47Z</time></trkpt>
<trkpt lat="46.13310599" lon="7.03384194"><ele>561.4000243656</ele><time>2011-05-29T07:25:54Z</time></trkpt>
<trkpt lat="46.13310993" lon="7.03379500"><ele>562.599975636</ele><time>2011-05-29T07:25:58Z</time></trkpt>
<trkpt lat="46.13310993" lon="7.03378594"><ele>562.7999878344</ele><time>2011-05-29T07:25:59Z</time></trkpt>
<trkpt lat="46.13320397" lon="7.03365695"><ele>559.9999999368</ele><time>2011-05-29T07:26:08Z</time></trkpt>
<trkpt lat="46.13321797" lon="7.03364898"><ele>559.2000121032</ele><time>2011-05-29T07:26:09Z</time></trkpt>
<trkpt lat="46.13324194" lon="7.03361093"><ele>559.2000121032</ele><time>2011-05-29T07:26:12Z</time></trkpt>
<trkpt lat="46.13318394" lon="7.03361093"><ele>563.4000244296</ele><time>2011-05-29T07:26:17Z</time></trkpt>
<trkpt lat="46.13316994" lon="7.03362895"><ele>563.599975668</ele><time>2011-05-29T07:26:18Z</time></trkpt>
<trkpt lat="46.13309199" lon="7.03371093"><ele>566.7999876576</ele><time>2011-05-29T07:26:25Z</time></trkpt>
<trkpt lat="46.13307397" lon="7.03372694"><ele>567.7999876896</ele><time>2011-05-29T07:26:29Z</time></trkpt>
<trkpt lat="46.13304094" lon="7.03375200"><ele>569.7999877536</ele><time>2011-05-29T07:26:35Z</time></trkpt>
<trkpt lat="46.13303600" lon="7.03377295"><ele>569.5999755552</ele><time>2011-05-29T07:26:39Z</time></trkpt>
<trkpt lat="46.13304296" lon="7.03381998"><ele>567.5999754912</ele><time>2011-05-29T07:26:45Z</time></trkpt>
<trkpt lat="46.13310800" lon="7.03386893"><ele>560.2000121352</ele><time>2011-05-29T07:26:52Z</time></trkpt>
<trkpt lat="46.13315100" lon="7.03375493"><ele>560.4000243336</ele><time>2011-05-29T07:27:00Z</time></trkpt>
<trkpt lat="46.13315695" lon="7.03372694"><ele>560.9999999688</ele><time>2011-05-29T07:27:02Z</time></trkpt>
<trkpt lat="46.13311496" lon="7.03367095"><ele>566.2000123272</ele><time>2011-05-29T07:27:07Z</time></trkpt>
<trkpt lat="46.13306693" lon="7.03362392"><ele>571.4000243808</ele><time>2011-05-29T07:27:15Z</time></trkpt>
<trkpt lat="46.13299996" lon="7.03361797"><ele>576.4000245408</ele><time>2011-05-29T07:27:21Z</time></trkpt>
<trkpt lat="46.13302192" lon="7.03359098"><ele>575.5999754424</ele><time>2011-05-29T07:27:31Z</time></trkpt>
<trkpt lat="46.13305796" lon="7.03353893"><ele>574.4000244768</ele><time>2011-05-29T07:27:36Z</time></trkpt>
<trkpt lat="46.13299199" lon="7.03348193"><ele>580.2000121656</ele><time>2011-05-29T07:27:43Z</time></trkpt>
<trkpt lat="46.13293097" lon="7.03351999"><ele>583.2000122616</ele><time>2011-05-29T07:27:48Z</time></trkpt>
<trkpt lat="46.13287398" lon="7.03354295"><ele>586.5999754896</ele><time>2011-05-29T07:27:55Z</time></trkpt>
<trkpt lat="46.13288496" lon="7.03353197"><ele>585.9999998544</ele><time>2011-05-29T07:27:57Z</time></trkpt>
<trkpt lat="46.13293692" lon="7.03353097"><ele>582.5999756664</ele><time>2011-05-29T07:28:07Z</time></trkpt>
<trkpt lat="46.13298998" lon="7.03357598"><ele>578.2000121016</ele><time>2011-05-29T07:28:13Z</time></trkpt>
<trkpt lat="46.13300499" lon="7.03363096"><ele>575.7999876408</ele><time>2011-05-29T07:28:19Z</time></trkpt>
<trkpt lat="46.13302795" lon="7.03368997"><ele>572.4000244128</ele><time>2011-05-29T07:28:25Z</time></trkpt>
<trkpt lat="46.13309694" lon="7.03377496"><ele>564.4000244616</ele><time>2011-05-29T07:28:32Z</time></trkpt>
<trkpt lat="46.13314496" lon="7.03382894"><ele>558.2000120712</ele><time>2011-05-29T07:28:38Z</time></trkpt>
<trkpt lat="46.13315494" lon="7.03388393"><ele>555.4000244784</ele><time>2011-05-29T07:28:43Z</time></trkpt>
<trkpt lat="46.13309694" lon="7.03388494"><ele>560.7999877704</ele><time>2011-05-29T07:28:47Z</time></trkpt>
<trkpt lat="46.13295293" lon="7.03379793"><ele>576.2000123424</ele><time>2011-05-29T07:28:56Z</time></trkpt>
<trkpt lat="46.13285294" lon="7.03374596"><ele>585.5999754576</ele><time>2011-05-29T07:29:02Z</time></trkpt>
<trkpt lat="46.13279494" lon="7.03367195"><ele>590.799987816</ele><time>2011-05-29T07:29:08Z</time></trkpt>
<trkpt lat="46.13274498" lon="7.03361194"><ele>595.0000001424</ele><time>2011-05-29T07:29:14Z</time></trkpt>
<trkpt lat="46.13272495" lon="7.03352200"><ele>596.5999755048</ele><time>2011-05-29T07:29:21Z</time></trkpt>
<trkpt lat="46.13271900" lon="7.03349300"><ele>596.9999999016</ele><time>2011-05-29T07:29:24Z</time></trkpt>
<trkpt lat="46.13272796" lon="7.03340893"><ele>596.5999755048</ele><time>2011-05-29T07:29:31Z</time></trkpt>
<trkpt lat="46.13271799" lon="7.03335796"><ele>597.2000121</ele><time>2011-05-29T07:29:36Z</time></trkpt>
<trkpt lat="46.13275294" lon="7.03328697"><ele>597.2000121</ele><time>2011-05-29T07:29:41Z</time></trkpt>
<trkpt lat="46.13279292" lon="7.03324397"><ele>596.9999999016</ele><time>2011-05-29T07:29:47Z</time></trkpt>
<trkpt lat="46.13283098" lon="7.03321396"><ele>596.4000242664</ele><time>2011-05-29T07:30:00Z</time></trkpt>
<trkpt lat="46.13289493" lon="7.03318597"><ele>594.5999754408</ele><time>2011-05-29T07:30:07Z</time></trkpt>
<trkpt lat="46.13294598" lon="7.03317298"><ele>592.79998788</ele><time>2011-05-29T07:30:13Z</time></trkpt>
<trkpt lat="46.13302192" lon="7.03314993"><ele>590.4000243792</ele><time>2011-05-29T07:30:20Z</time></trkpt>
<trkpt lat="46.13306098" lon="7.03312897"><ele>589.5999755856</ele><time>2011-05-29T07:30:23Z</time></trkpt>
<trkpt lat="46.13306492" lon="7.03309092"><ele>591.2000122128</ele><time>2011-05-29T07:30:28Z</time></trkpt>
<trkpt lat="46.13297699" lon="7.03306896"><ele>595.9999998696</ele><time>2011-05-29T07:30:37Z</time></trkpt>
<trkpt lat="46.13291396" lon="7.03305496"><ele>599.200012164</ele><time>2011-05-29T07:30:44Z</time></trkpt>
<trkpt lat="46.13288898" lon="7.03305596"><ele>600.200012196</ele><time>2011-05-29T07:30:48Z</time></trkpt>
<trkpt lat="46.13281799" lon="7.03305999"><ele>603.200012292</ele><time>2011-05-29T07:30:53Z</time></trkpt>
<trkpt lat="46.13274992" lon="7.03304096"><ele>606.7999877184</ele><time>2011-05-29T07:30:59Z</time></trkpt>
<trkpt lat="46.13272998" lon="7.03304599"><ele>607.4000243136</ele><time>2011-05-29T07:31:01Z</time></trkpt>
<trkpt lat="46.13274498" lon="7.03311397"><ele>604.200012324</ele><time>2011-05-29T07:31:21Z</time></trkpt>
<trkpt lat="46.13273492" lon="7.03313693"><ele>603.7999879272</ele><time>2011-05-29T07:31:23Z</time></trkpt>
<trkpt lat="46.13261598" lon="7.03327792"><ele>604.200012324</ele><time>2011-05-29T07:31:30Z</time></trkpt>
<trkpt lat="46.13256292" lon="7.03339200"><ele>605.4000245544</ele><time>2011-05-29T07:31:37Z</time></trkpt>
<trkpt lat="46.13253593" lon="7.03344698"><ele>607.7999877504</ele><time>2011-05-29T07:31:41Z</time></trkpt>
<trkpt lat="46.13250400" lon="7.03340197"><ele>608.7999877824</ele><time>2011-05-29T07:31:47Z</time></trkpt>
<trkpt lat="46.13250693" lon="7.03336693"><ele>608.2000121472</ele><time>2011-05-29T07:31:49Z</time></trkpt>
<trkpt lat="46.13254993" lon="7.03327197"><ele>607.599975552</ele><time>2011-05-29T07:31:56Z</time></trkpt>
<trkpt lat="46.13254792" lon="7.03325998"><ele>607.9999999488</ele><time>2011-05-29T07:31:57Z</time></trkpt>
<trkpt lat="46.13247399" lon="7.03320994"><ele>614.2000123392</ele><time>2011-05-29T07:32:03Z</time></trkpt>
<trkpt lat="46.13251599" lon="7.03312193"><ele>614.0000001408</ele><time>2011-05-29T07:32:10Z</time></trkpt>
<trkpt lat="46.13256494" lon="7.03304498"><ele>614.4000245376</ele><time>2011-05-29T07:32:17Z</time></trkpt>
<trkpt lat="46.13254993" lon="7.03299494"><ele>616.7999877336</ele><time>2011-05-29T07:32:22Z</time></trkpt>
<trkpt lat="46.13256594" lon="7.03291699"><ele>618.7999877976</ele><time>2011-05-29T07:32:30Z</time></trkpt>
<trkpt lat="46.13257600" lon="7.03291196"><ele>618.5999755992</ele><time>2011-05-29T07:32:35Z</time></trkpt>
<trkpt lat="46.13261598" lon="7.03289294"><ele>617.5999755672</ele><time>2011-05-29T07:32:41Z</time></trkpt>
<trkpt lat="46.13265093" lon="7.03290098"><ele>615.9999999</ele><time>2011-05-29T07:32:47Z</time></trkpt>
<trkpt lat="46.13264993" lon="7.03290895"><ele>615.7999877016</ele><time>2011-05-29T07:32:49Z</time></trkpt>
<trkpt lat="46.13259494" lon="7.03296795"><ele>615.7999877016</ele><time>2011-05-29T07:32:58Z</time></trkpt>
<trkpt lat="46.13238900" lon="7.03319494"><ele>622.4000244888</ele><time>2011-05-29T07:33:14Z</time></trkpt>
<trkpt lat="46.13235296" lon="7.03323894"><ele>624.4000245528</ele><time>2011-05-29T07:33:19Z</time></trkpt>
<trkpt lat="46.13231398" lon="7.03328395"><ele>626.7999877488</ele><time>2011-05-29T07:33:24Z</time></trkpt>
<trkpt lat="46.13230392" lon="7.03329393"><ele>627.400024344</ele><time>2011-05-29T07:33:25Z</time></trkpt>
<trkpt lat="46.13224299" lon="7.03327498"><ele>633.5999754696</ele><time>2011-05-29T07:33:30Z</time></trkpt>
<trkpt lat="46.13220200" lon="7.03322193"><ele>638.5999756296</ele><time>2011-05-29T07:33:36Z</time></trkpt>
<trkpt lat="46.13220493" lon="7.03313492"><ele>640.2000122568</ele><time>2011-05-29T07:33:43Z</time></trkpt>
<trkpt lat="46.13219697" lon="7.03307692"><ele>642.0000001224</ele><time>2011-05-29T07:33:51Z</time></trkpt>
<trkpt lat="46.13215699" lon="7.03304599"><ele>645.9999999456</ele><time>2011-05-29T07:33:58Z</time></trkpt>
<trkpt lat="46.13222295" lon="7.03295295"><ele>642.5999754528</ele><time>2011-05-29T07:34:06Z</time></trkpt>
<trkpt lat="46.13228993" lon="7.03284600"><ele>639.79998786</ele><time>2011-05-29T07:34:14Z</time></trkpt>
<trkpt lat="46.13231993" lon="7.03281297"><ele>638.4000243912</ele><time>2011-05-29T07:34:18Z</time></trkpt>
<trkpt lat="46.13245698" lon="7.03268196"><ele>632.0000001072</ele><time>2011-05-29T07:34:35Z</time></trkpt>
<trkpt lat="46.13245396" lon="7.03263092"><ele>633.799987668</ele><time>2011-05-29T07:34:40Z</time></trkpt>
<trkpt lat="46.13245094" lon="7.03262597"><ele>634.2000120648</ele><time>2011-05-29T07:34:42Z</time></trkpt>
<trkpt lat="46.13247198" lon="7.03264299"><ele>632.2000123056</ele><time>2011-05-29T07:34:47Z</time></trkpt>
<trkpt lat="46.13249595" lon="7.03265497"><ele>630.2000122416</ele><time>2011-05-29T07:34:52Z</time></trkpt>
<trkpt lat="46.13236897" lon="7.03284994"><ele>633.5999754696</ele><time>2011-05-29T07:35:05Z</time></trkpt>
<trkpt lat="46.13229697" lon="7.03295295"><ele>636.5999755656</ele><time>2011-05-29T07:35:11Z</time></trkpt>
<trkpt lat="46.13225296" lon="7.03298497"><ele>639.4000244232</ele><time>2011-05-29T07:35:14Z</time></trkpt>
<trkpt lat="46.13217794" lon="7.03307994"><ele>643.5999754848</ele><time>2011-05-29T07:35:19Z</time></trkpt>
<trkpt lat="46.13213595" lon="7.03318194"><ele>645.200012112</ele><time>2011-05-29T07:35:25Z</time></trkpt>
<trkpt lat="46.13213000" lon="7.03319997"><ele>645.4000243104</ele><time>2011-05-29T07:35:26Z</time></trkpt>
<trkpt lat="46.13210100" lon="7.03331698"><ele>645.9999999456</ele><time>2011-05-29T07:35:33Z</time></trkpt>
<trkpt lat="46.13202095" lon="7.03332595"><ele>653.4000245664</ele><time>2011-05-29T07:35:40Z</time></trkpt>
<trkpt lat="46.13202397" lon="7.03323592"><ele>654.4000242936</ele><time>2011-05-29T07:35:45Z</time></trkpt>
<trkpt lat="46.13202799" lon="7.03322000"><ele>654.4000242936</ele><time>2011-05-29T07:35:46Z</time></trkpt>
<trkpt lat="46.13204794" lon="7.03311992"><ele>653.9999998968</ele><time>2011-05-29T07:35:53Z</time></trkpt>
<trkpt lat="46.13200796" lon="7.03304993"><ele>658.59997566</ele><time>2011-05-29T07:36:00Z</time></trkpt>
<trkpt lat="46.13201198" lon="7.03301992"><ele>658.59997566</ele><time>2011-05-29T07:36:02Z</time></trkpt>
<trkpt lat="46.13204895" lon="7.03292496"><ele>656.9999999928</ele><time>2011-05-29T07:36:08Z</time></trkpt>
<trkpt lat="46.13205699" lon="7.03284499"><ele>657.599975628</ele><time>2011-05-29T07:36:14Z</time></trkpt>
<trkpt lat="46.13202497" lon="7.03282697"><ele>660.4000244856</ele><time>2011-05-29T07:36:21Z</time></trkpt>
<trkpt lat="46.13201793" lon="7.03282496"><ele>660.7999879224</ele><time>2011-05-29T07:36:22Z</time></trkpt>
<trkpt lat="46.13206093" lon="7.03272899"><ele>659.2000122552</ele><time>2011-05-29T07:36:32Z</time></trkpt>
<trkpt lat="46.13218197" lon="7.03260695"><ele>652.9999998648</ele><time>2011-05-29T07:36:39Z</time></trkpt>
<trkpt lat="46.13224399" lon="7.03253092"><ele>650.4000244704</ele><time>2011-05-29T07:36:45Z</time></trkpt>
<trkpt lat="46.13224693" lon="7.03252698"><ele>650.4000244704</ele><time>2011-05-29T07:36:46Z</time></trkpt>
<trkpt lat="46.13227593" lon="7.03260100"><ele>646.7999877792</ele><time>2011-05-29T07:36:56Z</time></trkpt>
<trkpt lat="46.13221499" lon="7.03262296"><ele>650.4000244704</ele><time>2011-05-29T07:36:59Z</time></trkpt>
<trkpt lat="46.13212698" lon="7.03267694"><ele>655.4000243256</ele><time>2011-05-29T07:37:03Z</time></trkpt>
<trkpt lat="46.13203797" lon="7.03274793"><ele>660.599975724</ele><time>2011-05-29T07:37:08Z</time></trkpt>
<trkpt lat="46.13196295" lon="7.03280895"><ele>665.2000121424</ele><time>2011-05-29T07:37:14Z</time></trkpt>
<trkpt lat="46.13192297" lon="7.03284600"><ele>667.7999878416</ele><time>2011-05-29T07:37:18Z</time></trkpt>
<trkpt lat="46.13189296" lon="7.03290593"><ele>669.5999757072</ele><time>2011-05-29T07:37:24Z</time></trkpt>
<trkpt lat="46.13187100" lon="7.03296997"><ele>670.7999879376</ele><time>2011-05-29T07:37:31Z</time></trkpt>
<trkpt lat="46.13184099" lon="7.03307793"><ele>672.4000245648</ele><time>2011-05-29T07:37:39Z</time></trkpt>
<trkpt lat="46.13184493" lon="7.03311900"><ele>671.5999754664</ele><time>2011-05-29T07:37:42Z</time></trkpt>
<trkpt lat="46.13180797" lon="7.03317398"><ele>674.5999755624</ele><time>2011-05-29T07:37:48Z</time></trkpt>
<trkpt lat="46.13181098" lon="7.03311095"><ele>674.5999755624</ele><time>2011-05-29T07:37:53Z</time></trkpt>
<trkpt lat="46.13181098" lon="7.03307994"><ele>674.7999877608</ele><time>2011-05-29T07:37:55Z</time></trkpt>
<trkpt lat="46.13180998" lon="7.03301992"><ele>675.400024356</ele><time>2011-05-29T07:37:59Z</time></trkpt>
<trkpt lat="46.13182297" lon="7.03295798"><ele>674.7999877608</ele><time>2011-05-29T07:38:04Z</time></trkpt>
<trkpt lat="46.13181995" lon="7.03292998"><ele>675.2000121576</ele><time>2011-05-29T07:38:06Z</time></trkpt>
<trkpt lat="46.13180797" lon="7.03289495"><ele>676.400024388</ele><time>2011-05-29T07:38:09Z</time></trkpt>
<trkpt lat="46.13182398" lon="7.03283192"><ele>675.5999755944</ele><time>2011-05-29T07:38:14Z</time></trkpt>
<trkpt lat="46.13182800" lon="7.03280593"><ele>675.400024356</ele><time>2011-05-29T07:38:16Z</time></trkpt>
<trkpt lat="46.13186396" lon="7.03275698"><ele>673.2000120936</ele><time>2011-05-29T07:38:19Z</time></trkpt>
<trkpt lat="46.13191593" lon="7.03268800"><ele>670.000000104</ele><time>2011-05-29T07:38:24Z</time></trkpt>
<trkpt lat="46.13192196" lon="7.03259597"><ele>670.5999754344</ele><time>2011-05-29T07:38:31Z</time></trkpt>
<trkpt lat="46.13190494" lon="7.03257199"><ele>671.9999998632</ele><time>2011-05-29T07:38:36Z</time></trkpt>
<trkpt lat="46.13193797" lon="7.03244995"><ele>672.9999998952</ele><time>2011-05-29T07:38:51Z</time></trkpt>
<trkpt lat="46.13194300" lon="7.03240494"><ele>674.7999877608</ele><time>2011-05-29T07:38:58Z</time></trkpt>
<trkpt lat="46.13189396" lon="7.03254995"><ele>672.9999998952</ele><time>2011-05-29T07:39:18Z</time></trkpt>
<trkpt lat="46.13190092" lon="7.03255699"><ele>672.4000245648</ele><time>2011-05-29T07:39:19Z</time></trkpt>
<trkpt lat="46.13186697" lon="7.03265900"><ele>673.7999877288</ele><time>2011-05-29T07:39:25Z</time></trkpt>
<trkpt lat="46.13182993" lon="7.03271499"><ele>675.9999999912</ele><time>2011-05-29T07:39:29Z</time></trkpt>
<trkpt lat="46.13181794" lon="7.03264693"><ele>677.2000122216</ele><time>2011-05-29T07:39:34Z</time></trkpt>
<trkpt lat="46.13183194" lon="7.03250192"><ele>677.40002442</ele><time>2011-05-29T07:39:43Z</time></trkpt>
<trkpt lat="46.13180696" lon="7.03243797"><ele>681.5999754816</ele><time>2011-05-29T07:39:48Z</time></trkpt>
<trkpt lat="46.13181098" lon="7.03237192"><ele>684.2000121408</ele><time>2011-05-29T07:39:55Z</time></trkpt>
<trkpt lat="46.13184895" lon="7.03228592"><ele>685.799987808</ele><time>2011-05-29T07:40:02Z</time></trkpt>
<trkpt lat="46.13185298" lon="7.03227594"><ele>686.0000000064</ele><time>2011-05-29T07:40:04Z</time></trkpt>
<trkpt lat="46.13189396" lon="7.03226798"><ele>683.9999999424</ele><time>2011-05-29T07:40:12Z</time></trkpt>
<trkpt lat="46.13186396" lon="7.03227796"><ele>685.4000243712</ele><time>2011-05-29T07:40:17Z</time></trkpt>
<trkpt lat="46.13182599" lon="7.03231199"><ele>686.0000000064</ele><time>2011-05-29T07:40:23Z</time></trkpt>
<trkpt lat="46.13180696" lon="7.03232397"><ele>686.5999756416</ele><time>2011-05-29T07:40:27Z</time></trkpt>
<trkpt lat="46.13180897" lon="7.03232297"><ele>686.5999756416</ele><time>2011-05-29T07:40:28Z</time></trkpt>
<trkpt lat="46.13173898" lon="7.03239497"><ele>687.5999756736</ele><time>2011-05-29T07:40:42Z</time></trkpt>
<trkpt lat="46.13170495" lon="7.03247292"><ele>686.5999756416</ele><time>2011-05-29T07:40:49Z</time></trkpt>
<trkpt lat="46.13164997" lon="7.03254894"><ele>688.799987904</ele><time>2011-05-29T07:40:56Z</time></trkpt>
<trkpt lat="46.13164192" lon="7.03255196"><ele>689.4000244992</ele><time>2011-05-29T07:40:57Z</time></trkpt>
<trkpt lat="46.13158995" lon="7.03250100"><ele>692.5999755288</ele><time>2011-05-29T07:41:03Z</time></trkpt>
<trkpt lat="46.13160093" lon="7.03242296"><ele>694.5999755928</ele><time>2011-05-29T07:41:08Z</time></trkpt>
<trkpt lat="46.13164796" lon="7.03232992"><ele>695.5999756248</ele><time>2011-05-29T07:41:16Z</time></trkpt>
<trkpt lat="46.13164192" lon="7.03232397"><ele>696.20001222</ele><time>2011-05-29T07:41:17Z</time></trkpt>
<trkpt lat="46.13164192" lon="7.03225994"><ele>698.5999757208</ele><time>2011-05-29T07:41:23Z</time></trkpt>
<trkpt lat="46.13166992" lon="7.03221300"><ele>699.0000001176</ele><time>2011-05-29T07:41:28Z</time></trkpt>
<trkpt lat="46.13169800" lon="7.03218492"><ele>698.5999757208</ele><time>2011-05-29T07:41:32Z</time></trkpt>
<trkpt lat="46.13171593" lon="7.03217000"><ele>698.200012284</ele><time>2011-05-29T07:41:35Z</time></trkpt>
<trkpt lat="46.13168400" lon="7.03217595"><ele>699.7999876464</ele><time>2011-05-29T07:41:43Z</time></trkpt>
<trkpt lat="46.13165198" lon="7.03221895"><ele>699.7999876464</ele><time>2011-05-29T07:41:50Z</time></trkpt>
<trkpt lat="46.13157093" lon="7.03224393"><ele>702.7999877424</ele><time>2011-05-29T07:42:09Z</time></trkpt>
<trkpt lat="46.13156397" lon="7.03227695"><ele>701.9999999088</ele><time>2011-05-29T07:42:12Z</time></trkpt>
<trkpt lat="46.13151896" lon="7.03235993"><ele>701.4000242736</ele><time>2011-05-29T07:42:17Z</time></trkpt>
<trkpt lat="46.13150798" lon="7.03238298"><ele>701.2000120752</ele><time>2011-05-29T07:42:19Z</time></trkpt>
<trkpt lat="46.13149700" lon="7.03240293"><ele>701.2000120752</ele><time>2011-05-29T07:42:21Z</time></trkpt>
<trkpt lat="46.13147898" lon="7.03250100"><ele>699.200012316</ele><time>2011-05-29T07:42:29Z</time></trkpt>
<trkpt lat="46.13146992" lon="7.03252992"><ele>699.7999876464</ele><time>2011-05-29T07:42:31Z</time></trkpt>
<trkpt lat="46.13148593" lon="7.03266495"><ele>699.0000001176</ele><time>2011-05-29T07:42:39Z</time></trkpt>
<trkpt lat="46.13150597" lon="7.03280099"><ele>697.7999878872</ele><time>2011-05-29T07:42:48Z</time></trkpt>
<trkpt lat="46.13150798" lon="7.03290794"><ele>697.7999878872</ele><time>2011-05-29T07:42:55Z</time></trkpt>
<trkpt lat="46.13151100" lon="7.03299092"><ele>697.5999756888</ele><time>2011-05-29T07:43:00Z</time></trkpt>
<trkpt lat="46.13144897" lon="7.03294599"><ele>701.599975512</ele><time>2011-05-29T07:43:06Z</time></trkpt>
<trkpt lat="46.13143195" lon="7.03291398"><ele>702.7999877424</ele><time>2011-05-29T07:43:09Z</time></trkpt>
<trkpt lat="46.13137697" lon="7.03281197"><ele>706.0000000368</ele><time>2011-05-29T07:43:18Z</time></trkpt>
<trkpt lat="46.13133900" lon="7.03270795"><ele>708.2000122992</ele><time>2011-05-29T07:43:25Z</time></trkpt>
<trkpt lat="46.13128795" lon="7.03255892"><ele>710.7999876936</ele><time>2011-05-29T07:43:34Z</time></trkpt>
<trkpt lat="46.13127798" lon="7.03249396"><ele>711.4000242888</ele><time>2011-05-29T07:43:38Z</time></trkpt>
<trkpt lat="46.13127194" lon="7.03237292"><ele>714.5999756232</ele><time>2011-05-29T07:43:48Z</time></trkpt>
<trkpt lat="46.13126893" lon="7.03233495"><ele>715.5999756552</ele><time>2011-05-29T07:43:52Z</time></trkpt>
<trkpt lat="46.13124093" lon="7.03222398"><ele>719.4000245448</ele><time>2011-05-29T07:44:00Z</time></trkpt>
<trkpt lat="46.13122894" lon="7.03216195"><ele>721.400024304</ele><time>2011-05-29T07:44:04Z</time></trkpt>
<trkpt lat="46.13120992" lon="7.03207092"><ele>724.2000122016</ele><time>2011-05-29T07:44:11Z</time></trkpt>
<trkpt lat="46.13124395" lon="7.03199599"><ele>724.4000244</ele><time>2011-05-29T07:44:19Z</time></trkpt>
<trkpt lat="46.13134394" lon="7.03193195"><ele>722.2000121376</ele><time>2011-05-29T07:44:32Z</time></trkpt>
<trkpt lat="46.13138493" lon="7.03191594"><ele>720.9999999072</ele><time>2011-05-29T07:44:37Z</time></trkpt>
<trkpt lat="46.13143899" lon="7.03189398"><ele>719.7999876768</ele><time>2011-05-29T07:44:43Z</time></trkpt>
<trkpt lat="46.13150395" lon="7.03183497"><ele>719.4000245448</ele><time>2011-05-29T07:44:50Z</time></trkpt>
<trkpt lat="46.13151996" lon="7.03182299"><ele>719.4000245448</ele><time>2011-05-29T07:44:52Z</time></trkpt>
<trkpt lat="46.13154695" lon="7.03175895"><ele>720.7999877088</ele><time>2011-05-29T07:44:57Z</time></trkpt>
<trkpt lat="46.13152298" lon="7.03177697"><ele>720.7999877088</ele><time>2011-05-29T07:45:04Z</time></trkpt>
<trkpt lat="46.13148392" lon="7.03178896"><ele>721.5999755424</ele><time>2011-05-29T07:45:12Z</time></trkpt>
<trkpt lat="46.13143497" lon="7.03177697"><ele>723.400024368</ele><time>2011-05-29T07:45:19Z</time></trkpt>
<trkpt lat="46.13133900" lon="7.03176096"><ele>726.7999879008</ele><time>2011-05-29T07:45:28Z</time></trkpt>
<trkpt lat="46.13125493" lon="7.03175300"><ele>729.40002456</ele><time>2011-05-29T07:45:36Z</time></trkpt>
<trkpt lat="46.13122299" lon="7.03174897"><ele>730.4000242872</ele><time>2011-05-29T07:45:39Z</time></trkpt>
<trkpt lat="46.13113699" lon="7.03176297"><ele>732.5999755896</ele><time>2011-05-29T07:45:47Z</time></trkpt>
<trkpt lat="46.13108394" lon="7.03173498"><ele>734.5999756536</ele><time>2011-05-29T07:45:54Z</time></trkpt>
<trkpt lat="46.13101093" lon="7.03173397"><ele>736.5999757176</ele><time>2011-05-29T07:46:01Z</time></trkpt>
<trkpt lat="46.13097196" lon="7.03174998"><ele>737.5999754448</ele><time>2011-05-29T07:46:06Z</time></trkpt>
<trkpt lat="46.13092200" lon="7.03178896"><ele>738.5999754768</ele><time>2011-05-29T07:46:13Z</time></trkpt>
<trkpt lat="46.13091596" lon="7.03179399"><ele>738.7999876752</ele><time>2011-05-29T07:46:14Z</time></trkpt>
<trkpt lat="46.13088596" lon="7.03184092"><ele>739.4000242704</ele><time>2011-05-29T07:46:19Z</time></trkpt>
<trkpt lat="46.13080298" lon="7.03178694"><ele>743.2000122</ele><time>2011-05-29T07:46:27Z</time></trkpt>
<trkpt lat="46.13080398" lon="7.03171193"><ele>743.4000243984</ele><time>2011-05-29T07:46:32Z</time></trkpt>
<trkpt lat="46.13086198" lon="7.03162199"><ele>743.2000122</ele><time>2011-05-29T07:46:39Z</time></trkpt>
<trkpt lat="46.13090792" lon="7.03159299"><ele>743.2000122</ele><time>2011-05-29T07:46:45Z</time></trkpt>
<trkpt lat="46.13093399" lon="7.03158092"><ele>743.2000122</ele><time>2011-05-29T07:46:49Z</time></trkpt>
<trkpt lat="46.13097992" lon="7.03157899"><ele>742.200012168</ele><time>2011-05-29T07:46:56Z</time></trkpt>
<trkpt lat="46.13102099" lon="7.03157195"><ele>741.4000243344</ele><time>2011-05-29T07:47:01Z</time></trkpt>
<trkpt lat="46.13108394" lon="7.03155594"><ele>740.7999877392</ele><time>2011-05-29T07:47:09Z</time></trkpt>
<trkpt lat="46.13107497" lon="7.03154496"><ele>741.4000243344</ele><time>2011-05-29T07:47:12Z</time></trkpt>
<trkpt lat="46.13098998" lon="7.03156793"><ele>742.4000243664</ele><time>2011-05-29T07:47:20Z</time></trkpt>
<trkpt lat="46.13093893" lon="7.03156197"><ele>744.0000000336</ele><time>2011-05-29T07:47:26Z</time></trkpt>
<trkpt lat="46.13092493" lon="7.03154798"><ele>744.7999878672</ele><time>2011-05-29T07:47:28Z</time></trkpt>
<trkpt lat="46.13083399" lon="7.03155795"><ele>746.5999757328</ele><time>2011-05-29T07:47:36Z</time></trkpt>
<trkpt lat="46.13078395" lon="7.03158997"><ele>747.9999998568</ele><time>2011-05-29T07:47:40Z</time></trkpt>
<trkpt lat="46.13070793" lon="7.03161193"><ele>751.4000243496</ele><time>2011-05-29T07:47:47Z</time></trkpt>
<trkpt lat="46.13063400" lon="7.03156197"><ele>757.4000245416</ele><time>2011-05-29T07:47:56Z</time></trkpt>
<trkpt lat="46.13062595" lon="7.03151395"><ele>759.2000121024</ele><time>2011-05-29T07:48:01Z</time></trkpt>
<trkpt lat="46.13062092" lon="7.03148293"><ele>760.5999755712</ele><time>2011-05-29T07:48:06Z</time></trkpt>
<trkpt lat="46.13060298" lon="7.03150892"><ele>760.5999755712</ele><time>2011-05-29T07:48:12Z</time></trkpt>
<trkpt lat="46.13057398" lon="7.03157698"><ele>760.2000121344</ele><time>2011-05-29T07:48:17Z</time></trkpt>
<trkpt lat="46.13054297" lon="7.03155594"><ele>762.4000243968</ele><time>2011-05-29T07:48:22Z</time></trkpt>
<trkpt lat="46.13045496" lon="7.03155695"><ele>767.2000123584</ele><time>2011-05-29T07:48:39Z</time></trkpt>
<trkpt lat="46.13046192" lon="7.03155795"><ele>766.7999876568</ele><time>2011-05-29T07:48:40Z</time></trkpt>
<trkpt lat="46.13049394" lon="7.03149894"><ele>766.5999754584</ele><time>2011-05-29T07:49:02Z</time></trkpt>
<trkpt lat="46.13047893" lon="7.03144999"><ele>768.5999755224</ele><time>2011-05-29T07:49:08Z</time></trkpt>
<trkpt lat="46.13044297" lon="7.03140699"><ele>771.2000121816</ele><time>2011-05-29T07:49:12Z</time></trkpt>
<trkpt lat="46.13043099" lon="7.03131999"><ele>773.7999878808</ele><time>2011-05-29T07:49:19Z</time></trkpt>
<trkpt lat="46.13053492" lon="7.03129493"><ele>770.2000121496</ele><time>2011-05-29T07:49:26Z</time></trkpt>
<trkpt lat="46.13059997" lon="7.03130096"><ele>767.2000123584</ele><time>2011-05-29T07:49:32Z</time></trkpt>
<trkpt lat="46.13066895" lon="7.03131697"><ele>763.7999878656</ele><time>2011-05-29T07:49:38Z</time></trkpt>
<trkpt lat="46.13070399" lon="7.03131898"><ele>762.4000243968</ele><time>2011-05-29T07:49:42Z</time></trkpt>
<trkpt lat="46.13070499" lon="7.03129392"><ele>763.2000122304</ele><time>2011-05-29T07:49:46Z</time></trkpt>
<trkpt lat="46.13062293" lon="7.03128696"><ele>766.7999876568</ele><time>2011-05-29T07:49:52Z</time></trkpt>
<trkpt lat="46.13050693" lon="7.03124296"><ele>772.5999756504</ele><time>2011-05-29T07:50:02Z</time></trkpt>
<trkpt lat="46.13045597" lon="7.03118093"><ele>776.0000001432</ele><time>2011-05-29T07:50:09Z</time></trkpt>
<trkpt lat="46.13038799" lon="7.03112092"><ele>779.5999755696</ele><time>2011-05-29T07:50:16Z</time></trkpt>
<trkpt lat="46.13035999" lon="7.03110793"><ele>780.7999878</ele><time>2011-05-29T07:50:19Z</time></trkpt>
<trkpt lat="46.13031498" lon="7.03105998"><ele>783.0000000624</ele><time>2011-05-29T07:50:25Z</time></trkpt>
<trkpt lat="46.13027500" lon="7.03103299"><ele>784.4000244912</ele><time>2011-05-29T07:50:29Z</time></trkpt>
<trkpt lat="46.13024499" lon="7.03094599"><ele>786.4000245552</ele><time>2011-05-29T07:50:35Z</time></trkpt>
<trkpt lat="46.13022898" lon="7.03085496"><ele>787.7999877192</ele><time>2011-05-29T07:50:41Z</time></trkpt>
<trkpt lat="46.13023192" lon="7.03078900"><ele>789.200012148</ele><time>2011-05-29T07:50:45Z</time></trkpt>
<trkpt lat="46.13021892" lon="7.03069596"><ele>792.0000000456</ele><time>2011-05-29T07:50:52Z</time></trkpt>
<trkpt lat="46.13021398" lon="7.03068196"><ele>792.4000244424</ele><time>2011-05-29T07:50:53Z</time></trkpt>
<trkpt lat="46.13018297" lon="7.03065095"><ele>793.7999879112</ele><time>2011-05-29T07:50:58Z</time></trkpt>
<trkpt lat="46.13024298" lon="7.03076293"><ele>789.7999877832</ele><time>2011-05-29T07:51:10Z</time></trkpt>
<trkpt lat="46.13023192" lon="7.03077097"><ele>789.7999877832</ele><time>2011-05-29T07:51:11Z</time></trkpt>
<trkpt lat="46.13018892" lon="7.03078799"><ele>789.9999999816</ele><time>2011-05-29T07:51:14Z</time></trkpt>
<trkpt lat="46.13013393" lon="7.03078992"><ele>790.7999878152</ele><time>2011-05-29T07:51:20Z</time></trkpt>
<trkpt lat="46.13010895" lon="7.03075597"><ele>792.0000000456</ele><time>2011-05-29T07:51:25Z</time></trkpt>
<trkpt lat="46.13007995" lon="7.03069998"><ele>794.0000001096</ele><time>2011-05-29T07:51:32Z</time></trkpt>
<trkpt lat="46.13005397" lon="7.03069897"><ele>794.4000245064</ele><time>2011-05-29T07:51:35Z</time></trkpt>
<trkpt lat="46.13003494" lon="7.03063393"><ele>796.2000120672</ele><time>2011-05-29T07:51:41Z</time></trkpt>
<trkpt lat="46.12998499" lon="7.03065095"><ele>796.9999999008</ele><time>2011-05-29T07:51:47Z</time></trkpt>
<trkpt lat="46.12996194" lon="7.03064399"><ele>798.4000243296</ele><time>2011-05-29T07:51:49Z</time></trkpt>
<trkpt lat="46.12993998" lon="7.03061096"><ele>800.4000243936</ele><time>2011-05-29T07:51:52Z</time></trkpt>
<trkpt lat="46.12994299" lon="7.03057299"><ele>801.0000000288</ele><time>2011-05-29T07:51:56Z</time></trkpt>
<trkpt lat="46.13000292" lon="7.03056394"><ele>798.4000243296</ele><time>2011-05-29T07:52:06Z</time></trkpt>
<trkpt lat="46.13001298" lon="7.03055900"><ele>798.4000243296</ele><time>2011-05-29T07:52:07Z</time></trkpt>
<trkpt lat="46.13005196" lon="7.03054198"><ele>798.2000121312</ele><time>2011-05-29T07:52:10Z</time></trkpt>
<trkpt lat="46.13009093" lon="7.03047794"><ele>799.4000243616</ele><time>2011-05-29T07:52:16Z</time></trkpt>
<trkpt lat="46.13008800" lon="7.03046696"><ele>799.7999877984</ele><time>2011-05-29T07:52:19Z</time></trkpt>
<trkpt lat="46.12999194" lon="7.03041399"><ele>802.4000244576</ele><time>2011-05-29T07:52:35Z</time></trkpt>
<trkpt lat="46.12997099" lon="7.03040100"><ele>803.599975728</ele><time>2011-05-29T07:52:38Z</time></trkpt>
<trkpt lat="46.12992397" lon="7.03029597"><ele>807.5999755512</ele><time>2011-05-29T07:52:49Z</time></trkpt>
<trkpt lat="46.12987694" lon="7.03025398"><ele>810.2000122104</ele><time>2011-05-29T07:52:56Z</time></trkpt>
<trkpt lat="46.12983596" lon="7.03022699"><ele>812.2000122744</ele><time>2011-05-29T07:53:02Z</time></trkpt>
<trkpt lat="46.12982498" lon="7.03023294"><ele>812.4000244728</ele><time>2011-05-29T07:53:05Z</time></trkpt>
<trkpt lat="46.12981492" lon="7.03026194"><ele>812.4000244728</ele><time>2011-05-29T07:53:09Z</time></trkpt>
<trkpt lat="46.12980000" lon="7.03027493"><ele>812.7999879096</ele><time>2011-05-29T07:53:11Z</time></trkpt>
<trkpt lat="46.12975599" lon="7.03018893"><ele>815.5999755024</ele><time>2011-05-29T07:53:18Z</time></trkpt>
<trkpt lat="46.12976396" lon="7.03017100"><ele>815.400024264</ele><time>2011-05-29T07:53:19Z</time></trkpt>
<trkpt lat="46.12978399" lon="7.03012993"><ele>815.400024264</ele><time>2011-05-29T07:53:22Z</time></trkpt>
<trkpt lat="46.12979094" lon="7.03010193"><ele>815.5999755024</ele><time>2011-05-29T07:53:28Z</time></trkpt>
<trkpt lat="46.12981793" lon="7.03011593"><ele>814.5999754704</ele><time>2011-05-29T07:53:33Z</time></trkpt>
<trkpt lat="46.12981995" lon="7.03012196"><ele>814.4000245368</ele><time>2011-05-29T07:53:34Z</time></trkpt>
<trkpt lat="46.12986999" lon="7.03014694"><ele>812.4000244728</ele><time>2011-05-29T07:53:42Z</time></trkpt>
<trkpt lat="46.12996093" lon="7.03011392"><ele>810.4000244088</ele><time>2011-05-29T07:53:49Z</time></trkpt>
<trkpt lat="46.12998700" lon="7.03012800"><ele>809.2000121784</ele><time>2011-05-29T07:53:52Z</time></trkpt>
<trkpt lat="46.12999798" lon="7.03012993"><ele>808.7999877816</ele><time>2011-05-29T07:53:55Z</time></trkpt>
<trkpt lat="46.12997392" lon="7.03012196"><ele>809.7999878136</ele><time>2011-05-29T07:53:58Z</time></trkpt>
<trkpt lat="46.12991097" lon="7.03012498"><ele>811.5999756792</ele><time>2011-05-29T07:54:05Z</time></trkpt>
<trkpt lat="46.12985297" lon="7.03009497"><ele>814.00000014</ele><time>2011-05-29T07:54:12Z</time></trkpt>
<trkpt lat="46.12982498" lon="7.03003898"><ele>815.5999755024</ele><time>2011-05-29T07:54:17Z</time></trkpt>
<trkpt lat="46.12976094" lon="7.03004493"><ele>817.400024328</ele><time>2011-05-29T07:54:23Z</time></trkpt>
<trkpt lat="46.12971995" lon="7.03004695"><ele>818.40002436</ele><time>2011-05-29T07:54:27Z</time></trkpt>
<trkpt lat="46.12965893" lon="7.03003194"><ele>820.2000122256</ele><time>2011-05-29T07:54:34Z</time></trkpt>
<trkpt lat="46.12960294" lon="7.03000797"><ele>821.7999878928</ele><time>2011-05-29T07:54:41Z</time></trkpt>
<trkpt lat="46.12954393" lon="7.02998794"><ele>823.799987652</ele><time>2011-05-29T07:54:48Z</time></trkpt>
<trkpt lat="46.12945500" lon="7.03000696"><ele>825.5999755176</ele><time>2011-05-29T07:54:56Z</time></trkpt>
<trkpt lat="46.12943899" lon="7.03002892"><ele>825.9999999144</ele><time>2011-05-29T07:54:58Z</time></trkpt>
<trkpt lat="46.12941200" lon="7.03004594"><ele>826.799987748</ele><time>2011-05-29T07:55:03Z</time></trkpt>
<trkpt lat="46.12937395" lon="7.03006195"><ele>827.79998778</ele><time>2011-05-29T07:55:06Z</time></trkpt>
<trkpt lat="46.12934595" lon="7.03002498"><ele>828.4000243752</ele><time>2011-05-29T07:55:10Z</time></trkpt>
<trkpt lat="46.12936498" lon="7.02989993"><ele>830.4000244392</ele><time>2011-05-29T07:55:19Z</time></trkpt>
<trkpt lat="46.12941594" lon="7.02985500"><ele>830.4000244392</ele><time>2011-05-29T07:55:26Z</time></trkpt>
<trkpt lat="46.12948492" lon="7.02985399"><ele>829.0000000104</ele><time>2011-05-29T07:55:33Z</time></trkpt>
<trkpt lat="46.12952792" lon="7.02983597"><ele>828.4000243752</ele><time>2011-05-29T07:55:40Z</time></trkpt>
<trkpt lat="46.12952700" lon="7.02983899"><ele>828.4000243752</ele><time>2011-05-29T07:55:41Z</time></trkpt>
<trkpt lat="46.12943094" lon="7.02980898"><ele>831.4000244712</ele><time>2011-05-29T07:56:44Z</time></trkpt>
<trkpt lat="46.12934092" lon="7.02986196"><ele>832.0000001064</ele><time>2011-05-29T07:56:53Z</time></trkpt>
<trkpt lat="46.12931393" lon="7.02984997"><ele>833.0000001384</ele><time>2011-05-29T07:56:56Z</time></trkpt>
<trkpt lat="46.12923598" lon="7.02981493"><ele>835.5999755328</ele><time>2011-05-29T07:57:05Z</time></trkpt>
<trkpt lat="46.12916993" lon="7.02976992"><ele>837.9999999936</ele><time>2011-05-29T07:57:13Z</time></trkpt>
<trkpt lat="46.12909793" lon="7.02974796"><ele>840.7999878912</ele><time>2011-05-29T07:57:21Z</time></trkpt>
<trkpt lat="46.12901595" lon="7.02970798"><ele>844.2000120792</ele><time>2011-05-29T07:57:30Z</time></trkpt>
<trkpt lat="46.12895996" lon="7.02963196"><ele>847.2000121752</ele><time>2011-05-29T07:57:38Z</time></trkpt>
<trkpt lat="46.12890095" lon="7.02960296"><ele>849.2000122392</ele><time>2011-05-29T07:57:44Z</time></trkpt>
<trkpt lat="46.12878595" lon="7.02954797"><ele>852.999999864</ele><time>2011-05-29T07:57:55Z</time></trkpt>
<trkpt lat="46.12876299" lon="7.02952299"><ele>853.7999876976</ele><time>2011-05-29T07:58:01Z</time></trkpt>
<trkpt lat="46.12875897" lon="7.02944496"><ele>854.5999755312</ele><time>2011-05-29T07:58:08Z</time></trkpt>
<trkpt lat="46.12878193" lon="7.02943297"><ele>854.4000242928</ele><time>2011-05-29T07:58:11Z</time></trkpt>
<trkpt lat="46.12883398" lon="7.02942895"><ele>853.2000120624</ele><time>2011-05-29T07:58:17Z</time></trkpt>
<trkpt lat="46.12888293" lon="7.02944395"><ele>852.0000001368</ele><time>2011-05-29T07:58:23Z</time></trkpt>
<trkpt lat="46.12897497" lon="7.02948293"><ele>849.2000122392</ele><time>2011-05-29T07:58:33Z</time></trkpt>
<trkpt lat="46.12904697" lon="7.02951193"><ele>846.9999999768</ele><time>2011-05-29T07:58:41Z</time></trkpt>
<trkpt lat="46.12909198" lon="7.02953096"><ele>845.4000243096</ele><time>2011-05-29T07:58:46Z</time></trkpt>
<trkpt lat="46.12917295" lon="7.02955493"><ele>842.9999998488</ele><time>2011-05-29T07:58:53Z</time></trkpt>
<trkpt lat="46.12924595" lon="7.02953598"><ele>842.0000001216</ele><time>2011-05-29T07:58:59Z</time></trkpt>
<trkpt lat="46.12925593" lon="7.02949097"><ele>842.9999998488</ele><time>2011-05-29T07:59:05Z</time></trkpt>
<trkpt lat="46.12924595" lon="7.02948796"><ele>843.200012352</ele><time>2011-05-29T07:59:06Z</time></trkpt>
<trkpt lat="46.12916993" lon="7.02944395"><ele>845.599975548</ele><time>2011-05-29T07:59:14Z</time></trkpt>
<trkpt lat="46.12915694" lon="7.02942300"><ele>846.2000121432</ele><time>2011-05-29T07:59:18Z</time></trkpt>
<trkpt lat="46.12907496" lon="7.02935393"><ele>849.4000244376</ele><time>2011-05-29T07:59:28Z</time></trkpt>
<trkpt lat="46.12905594" lon="7.02932895"><ele>850.2000122712</ele><time>2011-05-29T07:59:32Z</time></trkpt>
<trkpt lat="46.12901294" lon="7.02930498"><ele>851.4000245016</ele><time>2011-05-29T07:59:37Z</time></trkpt>
<trkpt lat="46.12893297" lon="7.02923499"><ele>853.999999896</ele><time>2011-05-29T07:59:45Z</time></trkpt>
<trkpt lat="46.12888495" lon="7.02917900"><ele>855.4000243248</ele><time>2011-05-29T07:59:51Z</time></trkpt>
<trkpt lat="46.12884899" lon="7.02915494"><ele>856.4000243568</ele><time>2011-05-29T07:59:54Z</time></trkpt>
<trkpt lat="46.12879794" lon="7.02912695"><ele>857.5999756272</ele><time>2011-05-29T07:59:59Z</time></trkpt>
<trkpt lat="46.12873793" lon="7.02901094"><ele>860.7999879216</ele><time>2011-05-29T08:00:08Z</time></trkpt>
<trkpt lat="46.12868294" lon="7.02893592"><ele>862.7999876808</ele><time>2011-05-29T08:00:15Z</time></trkpt>
<trkpt lat="46.12864095" lon="7.02887893"><ele>864.2000121096</ele><time>2011-05-29T08:00:20Z</time></trkpt>
<trkpt lat="46.12859795" lon="7.02880793"><ele>865.7999877768</ele><time>2011-05-29T08:00:27Z</time></trkpt>
<trkpt lat="46.12856492" lon="7.02876393"><ele>866.5999756104</ele><time>2011-05-29T08:00:33Z</time></trkpt>
<trkpt lat="46.12854095" lon="7.02872395"><ele>867.400024404</ele><time>2011-05-29T08:00:39Z</time></trkpt>
<trkpt lat="46.12852192" lon="7.02869494"><ele>868.0000000392</ele><time>2011-05-29T08:00:43Z</time></trkpt>
<trkpt lat="46.12849795" lon="7.02864993"><ele>868.7999878728</ele><time>2011-05-29T08:00:49Z</time></trkpt>
<trkpt lat="46.12844598" lon="7.02860895"><ele>869.400024468</ele><time>2011-05-29T08:00:57Z</time></trkpt>
<trkpt lat="46.12843995" lon="7.02860593"><ele>869.5999757064</ele><time>2011-05-29T08:00:58Z</time></trkpt>
<trkpt lat="46.12837398" lon="7.02857894"><ele>870.0000001032</ele><time>2011-05-29T08:01:07Z</time></trkpt>
<trkpt lat="46.12831799" lon="7.02848095"><ele>871.400024532</ele><time>2011-05-29T08:01:16Z</time></trkpt>
<trkpt lat="46.12825898" lon="7.02841792"><ele>872.9999998944</ele><time>2011-05-29T08:01:24Z</time></trkpt>
<trkpt lat="46.12824499" lon="7.02838699"><ele>873.5999755296</ele><time>2011-05-29T08:01:28Z</time></trkpt>
<trkpt lat="46.12820894" lon="7.02833796"><ele>874.5999755616</ele><time>2011-05-29T08:01:33Z</time></trkpt>
<trkpt lat="46.12819193" lon="7.02830996"><ele>875.2000121568</ele><time>2011-05-29T08:01:36Z</time></trkpt>
<trkpt lat="46.12814600" lon="7.02824794"><ele>877.2000122208</ele><time>2011-05-29T08:01:41Z</time></trkpt>
<trkpt lat="46.12811599" lon="7.02821692"><ele>878.0000000544</ele><time>2011-05-29T08:01:45Z</time></trkpt>
<trkpt lat="46.12808992" lon="7.02818499"><ele>878.799987888</ele><time>2011-05-29T08:01:49Z</time></trkpt>
<trkpt lat="46.12805296" lon="7.02812598"><ele>880.2000123168</ele><time>2011-05-29T08:01:56Z</time></trkpt>
<trkpt lat="46.12796696" lon="7.02804199"><ele>881.9999998776</ele><time>2011-05-29T08:02:35Z</time></trkpt>
<trkpt lat="46.12793997" lon="7.02801794"><ele>882.4000242744</ele><time>2011-05-29T08:02:42Z</time></trkpt>
<trkpt lat="46.12789496" lon="7.02797100"><ele>883.200012108</ele><time>2011-05-29T08:02:50Z</time></trkpt>
<trkpt lat="46.12783293" lon="7.02790998"><ele>883.9999999416</ele><time>2011-05-29T08:02:57Z</time></trkpt>
<trkpt lat="46.12777392" lon="7.02784100"><ele>884.5999755768</ele><time>2011-05-29T08:03:04Z</time></trkpt>
<trkpt lat="46.12770092" lon="7.02775299"><ele>884.9999999736</ele><time>2011-05-29T08:03:13Z</time></trkpt>
<trkpt lat="46.12766395" lon="7.02769792"><ele>884.9999999736</ele><time>2011-05-29T08:03:20Z</time></trkpt>
<trkpt lat="46.12758592" lon="7.02763899"><ele>884.5999755768</ele><time>2011-05-29T08:03:28Z</time></trkpt>
<trkpt lat="46.12754392" lon="7.02755492"><ele>884.4000243384</ele><time>2011-05-29T08:03:35Z</time></trkpt>
<trkpt lat="46.12751593" lon="7.02748493"><ele>884.5999755768</ele><time>2011-05-29T08:03:41Z</time></trkpt>
<trkpt lat="46.12747192" lon="7.02743297"><ele>886.4000244024</ele><time>2011-05-29T08:03:48Z</time></trkpt>
<trkpt lat="46.12739196" lon="7.02737295"><ele>889.4000244984</ele><time>2011-05-29T08:03:57Z</time></trkpt>
<trkpt lat="46.12734796" lon="7.02735200"><ele>890.599975464</ele><time>2011-05-29T08:04:02Z</time></trkpt>
<trkpt lat="46.12729993" lon="7.02731495"><ele>892.4000242896</ele><time>2011-05-29T08:04:07Z</time></trkpt>
<trkpt lat="46.12728794" lon="7.02728595"><ele>893.2000121232</ele><time>2011-05-29T08:04:09Z</time></trkpt>
<trkpt lat="46.12724796" lon="7.02725393"><ele>894.599975592</ele><time>2011-05-29T08:04:15Z</time></trkpt>
<trkpt lat="46.12716498" lon="7.02724094"><ele>895.7999878224</ele><time>2011-05-29T08:04:24Z</time></trkpt>
<trkpt lat="46.12711896" lon="7.02717497"><ele>897.599975688</ele><time>2011-05-29T08:04:32Z</time></trkpt>
<trkpt lat="46.12705492" lon="7.02712895"><ele>899.2000123152</ele><time>2011-05-29T08:04:39Z</time></trkpt>
<trkpt lat="46.12701192" lon="7.02711294"><ele>899.7999876456</ele><time>2011-05-29T08:04:45Z</time></trkpt>
<trkpt lat="46.12691897" lon="7.02713499"><ele>900.2000123472</ele><time>2011-05-29T08:04:52Z</time></trkpt>
<trkpt lat="46.12688494" lon="7.02714597"><ele>900.4000245456</ele><time>2011-05-29T08:04:55Z</time></trkpt>
<trkpt lat="46.12678000" lon="7.02713893"><ele>901.4000242728</ele><time>2011-05-29T08:05:04Z</time></trkpt>
<trkpt lat="46.12676994" lon="7.02713097"><ele>901.5999755112</ele><time>2011-05-29T08:05:05Z</time></trkpt>
<trkpt lat="46.12669098" lon="7.02702192"><ele>903.4000243368</ele><time>2011-05-29T08:05:14Z</time></trkpt>
<trkpt lat="46.12667799" lon="7.02700197"><ele>903.5999755752</ele><time>2011-05-29T08:05:16Z</time></trkpt>
<trkpt lat="46.12661697" lon="7.02699199"><ele>904.4000243688</ele><time>2011-05-29T08:05:22Z</time></trkpt>
<trkpt lat="46.12653592" lon="7.02691798"><ele>906.000000036</ele><time>2011-05-29T08:05:30Z</time></trkpt>
<trkpt lat="46.12647297" lon="7.02683492"><ele>907.000000068</ele><time>2011-05-29T08:05:37Z</time></trkpt>
<trkpt lat="46.12642695" lon="7.02678697"><ele>907.5999757032</ele><time>2011-05-29T08:05:42Z</time></trkpt>
<trkpt lat="46.12638596" lon="7.02675696"><ele>908.0000001</ele><time>2011-05-29T08:05:46Z</time></trkpt>
<trkpt lat="46.12634095" lon="7.02671095"><ele>908.4000244968</ele><time>2011-05-29T08:05:50Z</time></trkpt>
<trkpt lat="46.12627197" lon="7.02666393"><ele>908.7999879336</ele><time>2011-05-29T08:05:56Z</time></trkpt>
<trkpt lat="46.12617399" lon="7.02655898"><ele>911.2000120896</ele><time>2011-05-29T08:06:06Z</time></trkpt>
<trkpt lat="46.12608396" lon="7.02646695"><ele>912.7999877568</ele><time>2011-05-29T08:06:14Z</time></trkpt>
<trkpt lat="46.12601297" lon="7.02639596"><ele>913.5999755904</ele><time>2011-05-29T08:06:20Z</time></trkpt>
<trkpt lat="46.12592697" lon="7.02633795"><ele>913.9999999872</ele><time>2011-05-29T08:06:27Z</time></trkpt>
<trkpt lat="46.12584592" lon="7.02622094"><ele>914.7999878208</ele><time>2011-05-29T08:06:35Z</time></trkpt>
<trkpt lat="46.12576495" lon="7.02609295"><ele>916.5999756864</ele><time>2011-05-29T08:06:43Z</time></trkpt>
<trkpt lat="46.12573293" lon="7.02604693"><ele>917.40002448</ele><time>2011-05-29T08:06:46Z</time></trkpt>
<trkpt lat="46.12568993" lon="7.02599195"><ele>918.0000001152</ele><time>2011-05-29T08:06:50Z</time></trkpt>
<trkpt lat="46.12557795" lon="7.02590000"><ele>919.2000123456</ele><time>2011-05-29T08:06:59Z</time></trkpt>
<trkpt lat="46.12550092" lon="7.02583194"><ele>919.5999754776</ele><time>2011-05-29T08:07:06Z</time></trkpt>
<trkpt lat="46.12546194" lon="7.02580394"><ele>920.2000120728</ele><time>2011-05-29T08:07:09Z</time></trkpt>
<trkpt lat="46.12540595" lon="7.02575499"><ele>921.2000121048</ele><time>2011-05-29T08:07:13Z</time></trkpt>
<trkpt lat="46.12531794" lon="7.02567796"><ele>922.2000121368</ele><time>2011-05-29T08:07:21Z</time></trkpt>
<trkpt lat="46.12522096" lon="7.02557595"><ele>923.2000121688</ele><time>2011-05-29T08:07:29Z</time></trkpt>
<trkpt lat="46.12515592" lon="7.02549993"><ele>923.5999756056</ele><time>2011-05-29T08:07:35Z</time></trkpt>
<trkpt lat="46.12508995" lon="7.02543598"><ele>923.5999756056</ele><time>2011-05-29T08:07:41Z</time></trkpt>
<trkpt lat="46.12501795" lon="7.02538292"><ele>923.2000121688</ele><time>2011-05-29T08:07:49Z</time></trkpt>
<trkpt lat="46.12491595" lon="7.02532098"><ele>924.5999756376</ele><time>2011-05-29T08:07:59Z</time></trkpt>
<trkpt lat="46.12483892" lon="7.02526398"><ele>925.799987868</ele><time>2011-05-29T08:08:06Z</time></trkpt>
<trkpt lat="46.12474797" lon="7.02518494"><ele>926.7999879</ele><time>2011-05-29T08:08:15Z</time></trkpt>
<trkpt lat="46.12468293" lon="7.02514697"><ele>927.4000244952</ele><time>2011-05-29T08:08:22Z</time></trkpt>
<trkpt lat="46.12462300" lon="7.02510498"><ele>927.799987932</ele><time>2011-05-29T08:08:28Z</time></trkpt>
<trkpt lat="46.12455100" lon="7.02504295"><ele>928.0000001304</ele><time>2011-05-29T08:08:35Z</time></trkpt>
<trkpt lat="46.12450699" lon="7.02501093"><ele>928.2000123288</ele><time>2011-05-29T08:08:39Z</time></trkpt>
<trkpt lat="46.12442493" lon="7.02493298"><ele>929.7999876912</ele><time>2011-05-29T08:08:47Z</time></trkpt>
<trkpt lat="46.12431295" lon="7.02487095"><ele>931.20001212</ele><time>2011-05-29T08:08:56Z</time></trkpt>
<trkpt lat="46.12418295" lon="7.02476400"><ele>932.5999755888</ele><time>2011-05-29T08:09:05Z</time></trkpt>
<trkpt lat="46.12400198" lon="7.02463098"><ele>936.4000244784</ele><time>2011-05-29T08:09:18Z</time></trkpt>
<trkpt lat="46.12387592" lon="7.02450500"><ele>938.9999998728</ele><time>2011-05-29T08:09:28Z</time></trkpt>
<trkpt lat="46.12380300" lon="7.02442897"><ele>940.2000121032</ele><time>2011-05-29T08:09:34Z</time></trkpt>
<trkpt lat="46.12372597" lon="7.02428799"><ele>941.2000121352</ele><time>2011-05-29T08:09:42Z</time></trkpt>
<trkpt lat="46.12365799" lon="7.02415396"><ele>941.9999999688</ele><time>2011-05-29T08:09:50Z</time></trkpt>
<trkpt lat="46.12358599" lon="7.02400393"><ele>944.4000244296</ele><time>2011-05-29T08:09:59Z</time></trkpt>
<trkpt lat="46.12354198" lon="7.02383596"><ele>946.4000244936</ele><time>2011-05-29T08:10:08Z</time></trkpt>
<trkpt lat="46.12348599" lon="7.02369992"><ele>947.7999876576</ele><time>2011-05-29T08:10:16Z</time></trkpt>
<trkpt lat="46.12341098" lon="7.02360897"><ele>947.999999856</ele><time>2011-05-29T08:10:25Z</time></trkpt>
<trkpt lat="46.12340192" lon="7.02359992"><ele>947.999999856</ele><time>2011-05-29T08:10:26Z</time></trkpt>
<trkpt lat="46.12332498" lon="7.02356296"><ele>947.999999856</ele><time>2011-05-29T08:10:34Z</time></trkpt>
<trkpt lat="46.12330193" lon="7.02355600"><ele>948.2000123592</ele><time>2011-05-29T08:10:36Z</time></trkpt>
<trkpt lat="46.12320998" lon="7.02348693"><ele>949.5999755232</ele><time>2011-05-29T08:10:45Z</time></trkpt>
<trkpt lat="46.12312700" lon="7.02343195"><ele>950.7999877536</ele><time>2011-05-29T08:10:53Z</time></trkpt>
<trkpt lat="46.12308794" lon="7.02338694"><ele>951.2000121504</ele><time>2011-05-29T08:10:57Z</time></trkpt>
<trkpt lat="46.12300596" lon="7.02329700"><ele>952.5999756192</ele><time>2011-05-29T08:11:05Z</time></trkpt>
<trkpt lat="46.12294997" lon="7.02319600"><ele>954.7999878816</ele><time>2011-05-29T08:11:12Z</time></trkpt>
<trkpt lat="46.12289599" lon="7.02309499"><ele>956.4000245088</ele><time>2011-05-29T08:11:19Z</time></trkpt>
<trkpt lat="46.12281896" lon="7.02300992"><ele>957.4000245408</ele><time>2011-05-29T08:11:26Z</time></trkpt>
<trkpt lat="46.12270597" lon="7.02286994"><ele>957.9999998712</ele><time>2011-05-29T08:11:36Z</time></trkpt>
<trkpt lat="46.12269097" lon="7.02283893"><ele>957.9999998712</ele><time>2011-05-29T08:11:38Z</time></trkpt>
<trkpt lat="46.12261696" lon="7.02275695"><ele>957.5999754744</ele><time>2011-05-29T08:11:45Z</time></trkpt>
<trkpt lat="46.12259399" lon="7.02269199"><ele>957.4000245408</ele><time>2011-05-29T08:11:49Z</time></trkpt>
<trkpt lat="46.12257295" lon="7.02266400"><ele>957.2000123424</ele><time>2011-05-29T08:11:51Z</time></trkpt>
<trkpt lat="46.12255099" lon="7.02261295"><ele>957.000000144</ele><time>2011-05-29T08:11:55Z</time></trkpt>
<trkpt lat="46.12250196" lon="7.02247893"><ele>956.2000123104</ele><time>2011-05-29T08:12:03Z</time></trkpt>
<trkpt lat="46.12235494" lon="7.02235596"><ele>957.4000245408</ele><time>2011-05-29T08:12:12Z</time></trkpt>
<trkpt lat="46.12228596" lon="7.02231196"><ele>957.2000123424</ele><time>2011-05-29T08:12:17Z</time></trkpt>
<trkpt lat="46.12226794" lon="7.02233895"><ele>957.000000144</ele><time>2011-05-29T08:12:21Z</time></trkpt>
<trkpt lat="46.12233097" lon="7.02236594"><ele>957.000000144</ele><time>2011-05-29T08:12:25Z</time></trkpt>
<trkpt lat="46.12244597" lon="7.02246300"><ele>956.4000245088</ele><time>2011-05-29T08:12:33Z</time></trkpt>
<trkpt lat="46.12249400" lon="7.02251798"><ele>956.000000112</ele><time>2011-05-29T08:12:39Z</time></trkpt>
<trkpt lat="46.12249793" lon="7.02252192"><ele>956.000000112</ele><time>2011-05-29T08:12:41Z</time></trkpt>
<trkpt lat="46.12255393" lon="7.02254397"><ele>957.000000144</ele><time>2011-05-29T08:13:04Z</time></trkpt>
<trkpt lat="46.12266297" lon="7.02265796"><ele>958.5999755064</ele><time>2011-05-29T08:13:12Z</time></trkpt>
<trkpt lat="46.12273799" lon="7.02272594"><ele>959.2000121016</ele><time>2011-05-29T08:13:18Z</time></trkpt>
<trkpt lat="46.12285693" lon="7.02281496"><ele>959.7999877368</ele><time>2011-05-29T08:13:26Z</time></trkpt>
<trkpt lat="46.12295995" lon="7.02291495"><ele>959.2000121016</ele><time>2011-05-29T08:13:36Z</time></trkpt>
<trkpt lat="46.12306296" lon="7.02300497"><ele>957.9999998712</ele><time>2011-05-29T08:13:45Z</time></trkpt>
<trkpt lat="46.12317092" lon="7.02307094"><ele>956.7999876408</ele><time>2011-05-29T08:13:55Z</time></trkpt>
<trkpt lat="46.12325398" lon="7.02310396"><ele>955.7999879136</ele><time>2011-05-29T08:14:02Z</time></trkpt>
<trkpt lat="46.12335297" lon="7.02312995"><ele>955.2000122784</ele><time>2011-05-29T08:14:11Z</time></trkpt>
<trkpt lat="46.12346294" lon="7.02316599"><ele>955.7999879136</ele><time>2011-05-29T08:14:20Z</time></trkpt>
<trkpt lat="46.12358599" lon="7.02320798"><ele>956.2000123104</ele><time>2011-05-29T08:14:29Z</time></trkpt>
<trkpt lat="46.12370795" lon="7.02325894"><ele>956.5999754424</ele><time>2011-05-29T08:14:39Z</time></trkpt>
<trkpt lat="46.12382395" lon="7.02331192"><ele>956.5999754424</ele><time>2011-05-29T08:14:49Z</time></trkpt>
<trkpt lat="46.12397097" lon="7.02338794"><ele>956.7999876408</ele><time>2011-05-29T08:15:00Z</time></trkpt>
<trkpt lat="46.12407398" lon="7.02343295"><ele>957.000000144</ele><time>2011-05-29T08:15:09Z</time></trkpt>
<trkpt lat="46.12417096" lon="7.02345994"><ele>957.4000245408</ele><time>2011-05-29T08:15:17Z</time></trkpt>
<trkpt lat="46.12425797" lon="7.02349892"><ele>958.400024268</ele><time>2011-05-29T08:15:24Z</time></trkpt>
<trkpt lat="46.12426098" lon="7.02349498"><ele>958.5999755064</ele><time>2011-05-29T08:15:25Z</time></trkpt>
<trkpt lat="46.12426392" lon="7.02348199"><ele>958.9999999032</ele><time>2011-05-29T08:17:04Z</time></trkpt>
<trkpt lat="46.12431899" lon="7.02348593"><ele>960.2000121336</ele><time>2011-05-29T08:17:09Z</time></trkpt>
<trkpt lat="46.12443600" lon="7.02357494"><ele>960.400024332</ele><time>2011-05-29T08:17:20Z</time></trkpt>
<trkpt lat="46.12455192" lon="7.02367293"><ele>959.9999999352</ele><time>2011-05-29T08:17:31Z</time></trkpt>
<trkpt lat="46.12463599" lon="7.02374593"><ele>959.7999877368</ele><time>2011-05-29T08:17:39Z</time></trkpt>
<trkpt lat="46.12475292" lon="7.02383294"><ele>959.5999755384</ele><time>2011-05-29T08:17:49Z</time></trkpt>
<trkpt lat="46.12484596" lon="7.02390192"><ele>959.4000243</ele><time>2011-05-29T08:17:58Z</time></trkpt>
<trkpt lat="46.12495895" lon="7.02395297"><ele>960.2000121336</ele><time>2011-05-29T08:18:08Z</time></trkpt>
<trkpt lat="46.12505592" lon="7.02397694"><ele>960.9999999672</ele><time>2011-05-29T08:18:16Z</time></trkpt>
<trkpt lat="46.12514192" lon="7.02400493"><ele>960.9999999672</ele><time>2011-05-29T08:18:23Z</time></trkpt>
<trkpt lat="46.12527595" lon="7.02406294"><ele>960.5999755704</ele><time>2011-05-29T08:18:34Z</time></trkpt>
<trkpt lat="46.12536999" lon="7.02410996"><ele>959.9999999352</ele><time>2011-05-29T08:18:42Z</time></trkpt>
<trkpt lat="46.12547594" lon="7.02410694"><ele>961.2000121656</ele><time>2011-05-29T08:18:50Z</time></trkpt>
<trkpt lat="46.12559396" lon="7.02401994"><ele>965.7999879288</ele><time>2011-05-29T08:19:00Z</time></trkpt>
<trkpt lat="46.12569597" lon="7.02396797"><ele>968.9999999184</ele><time>2011-05-29T08:19:09Z</time></trkpt>
<trkpt lat="46.12579496" lon="7.02392296"><ele>972.0000000144</ele><time>2011-05-29T08:19:18Z</time></trkpt>
<trkpt lat="46.12590895" lon="7.02386596"><ele>975.799987944</ele><time>2011-05-29T08:19:29Z</time></trkpt>
<trkpt lat="46.12599595" lon="7.02381299"><ele>978.7999877352</ele><time>2011-05-29T08:19:38Z</time></trkpt>
<trkpt lat="46.12607097" lon="7.02376798"><ele>981.4000243944</ele><time>2011-05-29T08:19:47Z</time></trkpt>
<trkpt lat="46.12616493" lon="7.02369497"><ele>985.200012324</ele><time>2011-05-29T08:19:56Z</time></trkpt>
<trkpt lat="46.12623995" lon="7.02363596"><ele>988.4000243136</ele><time>2011-05-29T08:20:03Z</time></trkpt>
<trkpt lat="46.12638395" lon="7.02359598"><ele>991.4000244096</ele><time>2011-05-29T08:20:15Z</time></trkpt>
<trkpt lat="46.12652594" lon="7.02361694"><ele>992.2000122432</ele><time>2011-05-29T08:20:27Z</time></trkpt>
<trkpt lat="46.12664295" lon="7.02366396"><ele>991.7999878464</ele><time>2011-05-29T08:20:36Z</time></trkpt>
<trkpt lat="46.12676198" lon="7.02371593"><ele>992.59997568</ele><time>2011-05-29T08:20:46Z</time></trkpt>
<trkpt lat="46.12687899" lon="7.02377292"><ele>993.7999879104</ele><time>2011-05-29T08:20:56Z</time></trkpt>
<trkpt lat="46.12699499" lon="7.02383495"><ele>995.0000001408</ele><time>2011-05-29T08:21:07Z</time></trkpt>
<trkpt lat="46.12709298" lon="7.02389698"><ele>995.7999876696</ele><time>2011-05-29T08:21:16Z</time></trkpt>
<trkpt lat="46.12720597" lon="7.02397694"><ele>996.7999877016</ele><time>2011-05-29T08:21:26Z</time></trkpt>
<trkpt lat="46.12732599" lon="7.02406294"><ele>997.999999932</ele><time>2011-05-29T08:21:37Z</time></trkpt>
<trkpt lat="46.12742398" lon="7.02416897"><ele>998.4000243288</ele><time>2011-05-29T08:21:47Z</time></trkpt>
<trkpt lat="46.12749992" lon="7.02430199"><ele>996.5999755032</ele><time>2011-05-29T08:21:57Z</time></trkpt>
<trkpt lat="46.12755792" lon="7.02443392"><ele>994.4000245056</ele><time>2011-05-29T08:22:06Z</time></trkpt>
<trkpt lat="46.12757594" lon="7.02445999"><ele>994.2000123072</ele><time>2011-05-29T08:22:08Z</time></trkpt>
<trkpt lat="46.12763696" lon="7.02453995"><ele>993.7999879104</ele><time>2011-05-29T08:22:15Z</time></trkpt>
<trkpt lat="46.12769698" lon="7.02449092"><ele>997.5999755352</ele><time>2011-05-29T08:22:20Z</time></trkpt>
<trkpt lat="46.12771098" lon="7.02438598"><ele>1001.5999756632</ele><time>2011-05-29T08:22:25Z</time></trkpt>
<trkpt lat="46.12762498" lon="7.02417794"><ele>1005.2000123544</ele><time>2011-05-29T08:22:36Z</time></trkpt>
<trkpt lat="46.12758198" lon="7.02409697"><ele>1005.5999754864</ele><time>2011-05-29T08:22:41Z</time></trkpt>
<trkpt lat="46.12752599" lon="7.02397199"><ele>1006.5999755184</ele><time>2011-05-29T08:22:49Z</time></trkpt>
<trkpt lat="46.12750294" lon="7.02392195"><ele>1006.7999877168</ele><time>2011-05-29T08:22:52Z</time></trkpt>
<trkpt lat="46.12739699" lon="7.02370293"><ele>1009.400024376</ele><time>2011-05-29T08:23:05Z</time></trkpt>
<trkpt lat="46.12730194" lon="7.02351895"><ele>1011.7999878768</ele><time>2011-05-29T08:23:16Z</time></trkpt>
<trkpt lat="46.12723094" lon="7.02339096"><ele>1013.7999879408</ele><time>2011-05-29T08:23:24Z</time></trkpt>
<trkpt lat="46.12713598" lon="7.02324897"><ele>1016.2000120968</ele><time>2011-05-29T08:23:34Z</time></trkpt>
<trkpt lat="46.12702995" lon="7.02313699"><ele>1017.799987764</ele><time>2011-05-29T08:23:43Z</time></trkpt>
<trkpt lat="46.12690992" lon="7.02301797"><ele>1019.2000121928</ele><time>2011-05-29T08:23:53Z</time></trkpt>
<trkpt lat="46.12676198" lon="7.02288293"><ele>1020.79998786</ele><time>2011-05-29T08:24:05Z</time></trkpt>
<trkpt lat="46.12662694" lon="7.02275796"><ele>1022.799987924</ele><time>2011-05-29T08:24:16Z</time></trkpt>
<trkpt lat="46.12646995" lon="7.02259200"><ele>1026.8000487072</ele><time>2011-05-29T08:24:29Z</time></trkpt>
<trkpt lat="46.12630893" lon="7.02247297"><ele>1028.5999756128</ele><time>2011-05-29T08:24:41Z</time></trkpt>
<trkpt lat="46.12617793" lon="7.02246300"><ele>1027.4000243424</ele><time>2011-05-29T08:24:50Z</time></trkpt>
<trkpt lat="46.12606494" lon="7.02251094"><ele>1024.9999998816</ele><time>2011-05-29T08:24:59Z</time></trkpt>
<trkpt lat="46.12602999" lon="7.02253098"><ele>1023.9999998496</ele><time>2011-05-29T08:25:02Z</time></trkpt>
<trkpt lat="46.12594298" lon="7.02256895"><ele>1021.799987892</ele><time>2011-05-29T08:25:09Z</time></trkpt>
<trkpt lat="46.12592999" lon="7.02256995"><ele>1021.5999756936</ele><time>2011-05-29T08:25:10Z</time></trkpt>
<trkpt lat="46.12588397" lon="7.02258395"><ele>1020.79998786</ele><time>2011-05-29T08:25:14Z</time></trkpt>
<trkpt lat="46.12583997" lon="7.02257398"><ele>1020.5999756616</ele><time>2011-05-29T08:25:18Z</time></trkpt>
<trkpt lat="46.12580594" lon="7.02257196"><ele>1020.0000000264</ele><time>2011-05-29T08:25:21Z</time></trkpt>
<trkpt lat="46.12572497" lon="7.02257196"><ele>1018.5999755976</ele><time>2011-05-29T08:25:28Z</time></trkpt>
<trkpt lat="46.12564794" lon="7.02251497"><ele>1018.799987796</ele><time>2011-05-29T08:25:35Z</time></trkpt>
<trkpt lat="46.12564098" lon="7.02247599"><ele>1019.799987828</ele><time>2011-05-29T08:25:40Z</time></trkpt>
<trkpt lat="46.12569395" lon="7.02228698"><ele>1024.5999754848</ele><time>2011-05-29T08:30:33Z</time></trkpt>
<trkpt lat="46.12568499" lon="7.02226292"><ele>1024.9999998816</ele><time>2011-05-29T08:30:34Z</time></trkpt>
<trkpt lat="46.12559597" lon="7.02202295"><ele>1029.0000000096</ele><time>2011-05-29T08:30:45Z</time></trkpt>
<trkpt lat="46.12549296" lon="7.02180695"><ele>1032.8000488992</ele><time>2011-05-29T08:30:55Z</time></trkpt>
<trkpt lat="46.12535197" lon="7.02167099"><ele>1034.8000489632</ele><time>2011-05-29T08:31:04Z</time></trkpt>
<trkpt lat="46.12523094" lon="7.02160997"><ele>1035.8000486904</ele><time>2011-05-29T08:31:12Z</time></trkpt>
<trkpt lat="46.12509892" lon="7.02156597"><ele>1036.4000243256</ele><time>2011-05-29T08:31:21Z</time></trkpt>
<trkpt lat="46.12498594" lon="7.02152397"><ele>1036.9999999608</ele><time>2011-05-29T08:31:29Z</time></trkpt>
<trkpt lat="46.12484696" lon="7.02145793"><ele>1036.8000487224</ele><time>2011-05-29T08:31:39Z</time></trkpt>
<trkpt lat="46.12473398" lon="7.02135894"><ele>1038.1999512312</ele><time>2011-05-29T08:31:48Z</time></trkpt>
<trkpt lat="46.12463792" lon="7.02124192"><ele>1040.8000488504</ele><time>2011-05-29T08:31:56Z</time></trkpt>
<trkpt lat="46.12454496" lon="7.02112097"><ele>1043.8000489464</ele><time>2011-05-29T08:32:04Z</time></trkpt>
<trkpt lat="46.12444899" lon="7.02098594"><ele>1047.1999512144</ele><time>2011-05-29T08:32:13Z</time></trkpt>
<trkpt lat="46.12438395" lon="7.02089592"><ele>1049.5999756752</ele><time>2011-05-29T08:32:19Z</time></trkpt>
<trkpt lat="46.12426199" lon="7.02075393"><ele>1052.000000136</ele><time>2011-05-29T08:32:29Z</time></trkpt>
<trkpt lat="46.12414892" lon="7.02064597"><ele>1053.1999511016</ele><time>2011-05-29T08:32:38Z</time></trkpt>
<trkpt lat="46.12403995" lon="7.02052594"><ele>1052.9999998632</ele><time>2011-05-29T08:32:47Z</time></trkpt>
<trkpt lat="46.12395194" lon="7.02040994"><ele>1053.5999754984</ele><time>2011-05-29T08:32:54Z</time></trkpt>
<trkpt lat="46.12386796" lon="7.02029594"><ele>1054.400024292</ele><time>2011-05-29T08:33:01Z</time></trkpt>
<trkpt lat="46.12374692" lon="7.02012093"><ele>1056.1999511976</ele><time>2011-05-29T08:33:12Z</time></trkpt>
<trkpt lat="46.12363293" lon="7.01992999"><ele>1058.40002442</ele><time>2011-05-29T08:33:23Z</time></trkpt>
<trkpt lat="46.12352095" lon="7.01972497"><ele>1060.400024484</ele><time>2011-05-29T08:33:35Z</time></trkpt>
<trkpt lat="46.12345498" lon="7.01957795"><ele>1062.400024548</ele><time>2011-05-29T08:33:43Z</time></trkpt>
<trkpt lat="46.12336496" lon="7.01936496"><ele>1065.4000243392</ele><time>2011-05-29T08:33:54Z</time></trkpt>
<trkpt lat="46.12328399" lon="7.01920596"><ele>1067.0000000064</ele><time>2011-05-29T08:34:03Z</time></trkpt>
<trkpt lat="46.12320394" lon="7.01905492"><ele>1067.5999756416</ele><time>2011-05-29T08:34:12Z</time></trkpt>
<trkpt lat="46.12313094" lon="7.01890396"><ele>1068.1999512768</ele><time>2011-05-29T08:34:21Z</time></trkpt>
<trkpt lat="46.12304695" lon="7.01872895"><ele>1068.5999756736</ele><time>2011-05-29T08:34:31Z</time></trkpt>
<trkpt lat="46.12297595" lon="7.01856994"><ele>1069.1999513088</ele><time>2011-05-29T08:34:40Z</time></trkpt>
<trkpt lat="46.12294000" lon="7.01839895"><ele>1071.4000245312</ele><time>2011-05-29T08:34:48Z</time></trkpt>
<trkpt lat="46.12293195" lon="7.01823299"><ele>1076.199951228</ele><time>2011-05-29T08:34:55Z</time></trkpt>
<trkpt lat="46.12289700" lon="7.01809393"><ele>1080.0000001176</ele><time>2011-05-29T08:35:02Z</time></trkpt>
<trkpt lat="46.12280094" lon="7.01795094"><ele>1081.8000489432</ele><time>2011-05-29T08:35:10Z</time></trkpt>
<trkpt lat="46.12269198" lon="7.01784893"><ele>1081.9999998768</ele><time>2011-05-29T08:35:17Z</time></trkpt>
<trkpt lat="46.12264093" lon="7.01778397"><ele>1082.9999999088</ele><time>2011-05-29T08:35:21Z</time></trkpt>
<trkpt lat="46.12258594" lon="7.01764592"><ele>1087.1999512752</ele><time>2011-05-29T08:35:28Z</time></trkpt>
<trkpt lat="46.12256298" lon="7.01778900"><ele>1080.1999510512</ele><time>2011-05-29T08:51:48Z</time></trkpt>
<trkpt lat="46.12269298" lon="7.01782898"><ele>1082.9999999088</ele><time>2011-05-29T08:51:57Z</time></trkpt>
<trkpt lat="46.12280899" lon="7.01785396"><ele>1086.0000000048</ele><time>2011-05-29T08:52:05Z</time></trkpt>
<trkpt lat="46.12292298" lon="7.01788296"><ele>1088.8000488624</ele><time>2011-05-29T08:52:13Z</time></trkpt>
<trkpt lat="46.12301292" lon="7.01790995"><ele>1091.1999510984</ele><time>2011-05-29T08:52:20Z</time></trkpt>
<trkpt lat="46.12308400" lon="7.01798698"><ele>1090.99999986</ele><time>2011-05-29T08:52:27Z</time></trkpt>
<trkpt lat="46.12315994" lon="7.01810592"><ele>1090.0000001328</ele><time>2011-05-29T08:52:34Z</time></trkpt>
<trkpt lat="46.12324594" lon="7.01822796"><ele>1089.4000244976</ele><time>2011-05-29T08:52:43Z</time></trkpt>
<trkpt lat="46.12331894" lon="7.01833500"><ele>1089.1999510344</ele><time>2011-05-29T08:52:51Z</time></trkpt>
<trkpt lat="46.12338298" lon="7.01840599"><ele>1090.0000001328</ele><time>2011-05-29T08:52:58Z</time></trkpt>
<trkpt lat="46.12343797" lon="7.01847296"><ele>1090.1999510664</ele><time>2011-05-29T08:53:04Z</time></trkpt>
<trkpt lat="46.12351097" lon="7.01856097"><ele>1090.5999754632</ele><time>2011-05-29T08:53:11Z</time></trkpt>
<trkpt lat="46.12358700" lon="7.01861495"><ele>1091.8000489584</ele><time>2011-05-29T08:53:18Z</time></trkpt>
<trkpt lat="46.12367492" lon="7.01866793"><ele>1093.4000243208</ele><time>2011-05-29T08:53:25Z</time></trkpt>
<trkpt lat="46.12378296" lon="7.01872392"><ele>1095.4000243848</ele><time>2011-05-29T08:53:33Z</time></trkpt>
<trkpt lat="46.12387097" lon="7.01871998"><ele>1098.4000244808</ele><time>2011-05-29T08:53:39Z</time></trkpt>
<trkpt lat="46.12399000" lon="7.01869592"><ele>1103.1999511776</ele><time>2011-05-29T08:53:47Z</time></trkpt>
<trkpt lat="46.12410592" lon="7.01869198"><ele>1107.1999513056</ele><time>2011-05-29T08:53:55Z</time></trkpt>
<trkpt lat="46.12418697" lon="7.01874294"><ele>1108.0000000992</ele><time>2011-05-29T08:54:02Z</time></trkpt>
<trkpt lat="46.12423693" lon="7.01879994"><ele>1107.5999757024</ele><time>2011-05-29T08:54:07Z</time></trkpt>
<trkpt lat="46.12432796" lon="7.01887999"><ele>1107.0000000672</ele><time>2011-05-29T08:54:15Z</time></trkpt>
<trkpt lat="46.12442292" lon="7.01897898"><ele>1105.8000487968</ele><time>2011-05-29T08:54:22Z</time></trkpt>
<trkpt lat="46.12451999" lon="7.01905995"><ele>1105.0000000032</ele><time>2011-05-29T08:54:29Z</time></trkpt>
<trkpt lat="46.12461596" lon="7.01907394"><ele>1106.400024432</ele><time>2011-05-29T08:54:36Z</time></trkpt>
<trkpt lat="46.12474898" lon="7.01908492"><ele>1108.400024496</ele><time>2011-05-29T08:54:45Z</time></trkpt>
<trkpt lat="46.12483699" lon="7.01907394"><ele>1110.5999754936</ele><time>2011-05-29T08:54:52Z</time></trkpt>
<trkpt lat="46.12494193" lon="7.01903396"><ele>1114.1999512248</ele><time>2011-05-29T08:55:01Z</time></trkpt>
<trkpt lat="46.12502994" lon="7.01899700"><ele>1117.4000244792</ele><time>2011-05-29T08:55:08Z</time></trkpt>
<trkpt lat="46.12510999" lon="7.01897596"><ele>1119.9999998736</ele><time>2011-05-29T08:55:14Z</time></trkpt>
<trkpt lat="46.12515793" lon="7.01896297"><ele>1121.5999755408</ele><time>2011-05-29T08:55:17Z</time></trkpt>
<trkpt lat="46.12530294" lon="7.01898593"><ele>1123.8000487632</ele><time>2011-05-29T08:55:26Z</time></trkpt>
<trkpt lat="46.12531794" lon="7.01898996"><ele>1124.0000000016</ele><time>2011-05-29T08:55:27Z</time></trkpt>
<trkpt lat="46.12544099" lon="7.01901100"><ele>1125.5999756688</ele><time>2011-05-29T08:55:36Z</time></trkpt>
<trkpt lat="46.12556898" lon="7.01906397"><ele>1126.0000000656</ele><time>2011-05-29T08:55:46Z</time></trkpt>
<trkpt lat="46.12570795" lon="7.01913396"><ele>1125.8000488272</ele><time>2011-05-29T08:55:57Z</time></trkpt>
<trkpt lat="46.12582396" lon="7.01917394"><ele>1126.4000244624</ele><time>2011-05-29T08:56:06Z</time></trkpt>
<trkpt lat="46.12592597" lon="7.01924292"><ele>1124.4000243984</ele><time>2011-05-29T08:56:14Z</time></trkpt>
<trkpt lat="46.12604097" lon="7.01928693"><ele>1124.0000000016</ele><time>2011-05-29T08:56:24Z</time></trkpt>
<trkpt lat="46.12614297" lon="7.01932398"><ele>1123.8000487632</ele><time>2011-05-29T08:56:32Z</time></trkpt>
<trkpt lat="46.12624800" lon="7.01934594"><ele>1124.5999756368</ele><time>2011-05-29T08:56:40Z</time></trkpt>
<trkpt lat="46.12637398" lon="7.01934099"><ele>1127.0000000976</ele><time>2011-05-29T08:56:49Z</time></trkpt>
<trkpt lat="46.12650792" lon="7.01931098"><ele>1130.8000486824</ele><time>2011-05-29T08:56:59Z</time></trkpt>
<trkpt lat="46.12660599" lon="7.01928995"><ele>1133.59997562</ele><time>2011-05-29T08:57:06Z</time></trkpt>
<trkpt lat="46.12669995" lon="7.01928592"><ele>1134.599975652</ele><time>2011-05-29T08:57:13Z</time></trkpt>
<trkpt lat="46.12680598" lon="7.01926094"><ele>1135.8000488424</ele><time>2011-05-29T08:57:21Z</time></trkpt>
<trkpt lat="46.12691394" lon="7.01929095"><ele>1134.0000000168</ele><time>2011-05-29T08:57:29Z</time></trkpt>
<trkpt lat="46.12706699" lon="7.01925600"><ele>1135.4000244456</ele><time>2011-05-29T08:57:39Z</time></trkpt>
<trkpt lat="46.12719197" lon="7.01922993"><ele>1136.599975716</ele><time>2011-05-29T08:57:48Z</time></trkpt>
<trkpt lat="46.12723396" lon="7.01924795"><ele>1135.599975684</ele><time>2011-05-29T08:57:51Z</time></trkpt>
<trkpt lat="46.12731795" lon="7.01926296"><ele>1134.599975652</ele><time>2011-05-29T08:57:58Z</time></trkpt>
<trkpt lat="46.12742297" lon="7.01918693"><ele>1138.1999510784</ele><time>2011-05-29T08:58:07Z</time></trkpt>
<trkpt lat="46.12748198" lon="7.01914293"><ele>1139.999999904</ele><time>2011-05-29T08:58:11Z</time></trkpt>
<trkpt lat="46.12760595" lon="7.01905299"><ele>1142.5999756032</ele><time>2011-05-29T08:58:21Z</time></trkpt>
<trkpt lat="46.12769597" lon="7.01895593"><ele>1146.000000096</ele><time>2011-05-29T08:58:30Z</time></trkpt>
<trkpt lat="46.12776194" lon="7.01890698"><ele>1147.8000489216</ele><time>2011-05-29T08:58:36Z</time></trkpt>
<trkpt lat="46.12785992" lon="7.01889600"><ele>1147.1999510616</ele><time>2011-05-29T08:58:44Z</time></trkpt>
<trkpt lat="46.12797895" lon="7.01889994"><ele>1145.8000488576</ele><time>2011-05-29T08:58:54Z</time></trkpt>
<trkpt lat="46.12810099" lon="7.01889893"><ele>1144.5999756672</ele><time>2011-05-29T08:59:03Z</time></trkpt>
<trkpt lat="46.12823392" lon="7.01886993"><ele>1145.000000064</ele><time>2011-05-29T08:59:12Z</time></trkpt>
<trkpt lat="46.12837499" lon="7.01884495"><ele>1146.000000096</ele><time>2011-05-29T08:59:23Z</time></trkpt>
<trkpt lat="46.12848697" lon="7.01881796"><ele>1149.1999511256</ele><time>2011-05-29T08:59:31Z</time></trkpt>
<trkpt lat="46.12858194" lon="7.01881092"><ele>1150.8000487128</ele><time>2011-05-29T08:59:39Z</time></trkpt>
<trkpt lat="46.12868495" lon="7.01879198"><ele>1153.400024412</ele><time>2011-05-29T08:59:47Z</time></trkpt>
<trkpt lat="46.12879593" lon="7.01875392"><ele>1157.0000001432</ele><time>2011-05-29T08:59:55Z</time></trkpt>
<trkpt lat="46.12890598" lon="7.01872299"><ele>1160.1999511728</ele><time>2011-05-29T09:00:03Z</time></trkpt>
<trkpt lat="46.12904194" lon="7.01867597"><ele>1164.800048856</ele><time>2011-05-29T09:00:12Z</time></trkpt>
<trkpt lat="46.12918594" lon="7.01863993"><ele>1168.5999755208</ele><time>2011-05-29T09:00:22Z</time></trkpt>
<trkpt lat="46.12931293" lon="7.01860892"><ele>1171.4000243784</ele><time>2011-05-29T09:00:31Z</time></trkpt>
<trkpt lat="46.12944595" lon="7.01858595"><ele>1174.0000000776</ele><time>2011-05-29T09:00:40Z</time></trkpt>
<trkpt lat="46.12956899" lon="7.01860892"><ele>1173.8000488392</ele><time>2011-05-29T09:00:49Z</time></trkpt>
<trkpt lat="46.12965692" lon="7.01861696"><ele>1174.199951316</ele><time>2011-05-29T09:00:56Z</time></trkpt>
<trkpt lat="46.12976295" lon="7.01865996"><ele>1172.8000488072</ele><time>2011-05-29T09:01:04Z</time></trkpt>
<trkpt lat="46.12980293" lon="7.01870698"><ele>1170.5999755848</ele><time>2011-05-29T09:01:09Z</time></trkpt>
<trkpt lat="46.12987594" lon="7.01874797"><ele>1168.8000486792</ele><time>2011-05-29T09:01:16Z</time></trkpt>
<trkpt lat="46.12996898" lon="7.01878594"><ele>1167.5999754888</ele><time>2011-05-29T09:01:22Z</time></trkpt>
<trkpt lat="46.13001793" lon="7.01881696"><ele>1166.5999754568</ele><time>2011-05-29T09:01:25Z</time></trkpt>
<trkpt lat="46.13009093" lon="7.01885895"><ele>1166.9999998536</ele><time>2011-05-29T09:01:31Z</time></trkpt>
<trkpt lat="46.13018095" lon="7.01889692"><ele>1168.199951124</ele><time>2011-05-29T09:01:40Z</time></trkpt>
<trkpt lat="46.13026896" lon="7.01892693"><ele>1169.8000487112</ele><time>2011-05-29T09:01:48Z</time></trkpt>
<trkpt lat="46.13030392" lon="7.01892693"><ele>1171.19995122</ele><time>2011-05-29T09:01:51Z</time></trkpt>
<trkpt lat="46.13045395" lon="7.01895995"><ele>1175.1999510432</ele><time>2011-05-29T09:02:01Z</time></trkpt>
<trkpt lat="46.13055797" lon="7.01898593"><ele>1177.8000489672</ele><time>2011-05-29T09:02:09Z</time></trkpt>
<trkpt lat="46.13066392" lon="7.01901100"><ele>1180.5999756</ele><time>2011-05-29T09:02:17Z</time></trkpt>
<trkpt lat="46.13075595" lon="7.01904897"><ele>1182.4000244256</ele><time>2011-05-29T09:02:24Z</time></trkpt>
<trkpt lat="46.13081496" lon="7.01910194"><ele>1182.1999512672</ele><time>2011-05-29T09:02:30Z</time></trkpt>
<trkpt lat="46.13090892" lon="7.01911292"><ele>1184.1999510264</ele><time>2011-05-29T09:02:37Z</time></trkpt>
<trkpt lat="46.13101898" lon="7.01912097"><ele>1186.1999510904</ele><time>2011-05-29T09:02:45Z</time></trkpt>
<trkpt lat="46.13112794" lon="7.01916195"><ele>1186.8000489504</ele><time>2011-05-29T09:02:53Z</time></trkpt>
<trkpt lat="46.13125895" lon="7.01922499"><ele>1186.999999884</ele><time>2011-05-29T09:03:03Z</time></trkpt>
<trkpt lat="46.13134294" lon="7.01927394"><ele>1186.8000489504</ele><time>2011-05-29T09:03:10Z</time></trkpt>
<trkpt lat="46.13141100" lon="7.01936295"><ele>1184.1999510264</ele><time>2011-05-29T09:03:17Z</time></trkpt>
<trkpt lat="46.13148099" lon="7.01937896"><ele>1185.1999510584</ele><time>2011-05-29T09:03:23Z</time></trkpt>
<trkpt lat="46.13148493" lon="7.01940193"><ele>1184.1999510264</ele><time>2011-05-29T09:03:24Z</time></trkpt>
<trkpt lat="46.13157998" lon="7.01943797"><ele>1184.8000488864</ele><time>2011-05-29T09:03:33Z</time></trkpt>
<trkpt lat="46.13155995" lon="7.01947695"><ele>1182.599975664</ele><time>2011-05-29T09:03:36Z</time></trkpt>
<trkpt lat="46.13157998" lon="7.01945792"><ele>1184.0000000928</ele><time>2011-05-29T09:06:43Z</time></trkpt>
<trkpt lat="46.13161594" lon="7.01944895"><ele>1185.1999510584</ele><time>2011-05-29T09:06:46Z</time></trkpt>
<trkpt lat="46.13172398" lon="7.01941299"><ele>1187.5999755192</ele><time>2011-05-29T09:06:54Z</time></trkpt>
<trkpt lat="46.13182398" lon="7.01940293"><ele>1187.5999755192</ele><time>2011-05-29T09:07:01Z</time></trkpt>
<trkpt lat="46.13193898" lon="7.01936698"><ele>1188.4000243128</ele><time>2011-05-29T09:07:09Z</time></trkpt>
<trkpt lat="46.13202296" lon="7.01932297"><ele>1189.5999755832</ele><time>2011-05-29T09:07:17Z</time></trkpt>
<trkpt lat="46.13204392" lon="7.01930797"><ele>1189.99999998</ele><time>2011-05-29T09:07:19Z</time></trkpt>
<trkpt lat="46.13212598" lon="7.01919498"><ele>1193.4000244728</ele><time>2011-05-29T09:07:29Z</time></trkpt>
<trkpt lat="46.13217895" lon="7.01910999"><ele>1196.5999755024</ele><time>2011-05-29T09:07:36Z</time></trkpt>
<trkpt lat="46.13222094" lon="7.01908794"><ele>1197.1999511376</ele><time>2011-05-29T09:07:43Z</time></trkpt>
<trkpt lat="46.13229294" lon="7.01906196"><ele>1197.8000486928</ele><time>2011-05-29T09:07:51Z</time></trkpt>
<trkpt lat="46.13238397" lon="7.01908593"><ele>1195.9999998672</ele><time>2011-05-29T09:07:59Z</time></trkpt>
<trkpt lat="46.13246997" lon="7.01904796"><ele>1196.9999998992</ele><time>2011-05-29T09:08:06Z</time></trkpt>
<trkpt lat="46.13250492" lon="7.01905693"><ele>1196.1999511056</ele><time>2011-05-29T09:08:11Z</time></trkpt>
<trkpt lat="46.13256494" lon="7.01904796"><ele>1196.1999511056</ele><time>2011-05-29T09:08:16Z</time></trkpt>
<trkpt lat="46.13268295" lon="7.01900798"><ele>1196.9999998992</ele><time>2011-05-29T09:08:23Z</time></trkpt>
<trkpt lat="46.13278697" lon="7.01897395"><ele>1197.400024296</ele><time>2011-05-29T09:08:30Z</time></trkpt>
<trkpt lat="46.13285193" lon="7.01896993"><ele>1196.9999998992</ele><time>2011-05-29T09:08:34Z</time></trkpt>
<trkpt lat="46.13305796" lon="7.01890798"><ele>1197.5999755344</ele><time>2011-05-29T09:08:46Z</time></trkpt>
<trkpt lat="46.13318595" lon="7.01886792"><ele>1197.9999999312</ele><time>2011-05-29T09:08:54Z</time></trkpt>
<trkpt lat="46.13328997" lon="7.01883196"><ele>1198.400024328</ele><time>2011-05-29T09:09:01Z</time></trkpt>
<trkpt lat="46.13336398" lon="7.01876599"><ele>1201.0000000272</ele><time>2011-05-29T09:09:07Z</time></trkpt>
<trkpt lat="46.13344797" lon="7.01873599"><ele>1202.8000488528</ele><time>2011-05-29T09:09:16Z</time></trkpt>
<trkpt lat="46.13354092" lon="7.01873892"><ele>1203.400024488</ele><time>2011-05-29T09:09:26Z</time></trkpt>
<trkpt lat="46.13362399" lon="7.01868494"><ele>1206.4000242792</ele><time>2011-05-29T09:09:32Z</time></trkpt>
<trkpt lat="46.13371393" lon="7.01864395"><ele>1209.1999512168</ele><time>2011-05-29T09:09:39Z</time></trkpt>
<trkpt lat="46.13381895" lon="7.01858696"><ele>1212.800048868</ele><time>2011-05-29T09:09:46Z</time></trkpt>
<trkpt lat="46.13390193" lon="7.01861294"><ele>1212.4000244712</ele><time>2011-05-29T09:09:53Z</time></trkpt>
<trkpt lat="46.13397092" lon="7.01866994"><ele>1210.0000000104</ele><time>2011-05-29T09:10:00Z</time></trkpt>
<trkpt lat="46.13406597" lon="7.01859693"><ele>1214.800048932</ele><time>2011-05-29T09:10:06Z</time></trkpt>
<trkpt lat="46.13416496" lon="7.01856298"><ele>1217.4000243264</ele><time>2011-05-29T09:10:12Z</time></trkpt>
<trkpt lat="46.13428197" lon="7.01855594"><ele>1219.4000243904</ele><time>2011-05-29T09:10:19Z</time></trkpt>
<trkpt lat="46.13433293" lon="7.01854597"><ele>1220.5999756608</ele><time>2011-05-29T09:10:22Z</time></trkpt>
<trkpt lat="46.13446092" lon="7.01855795"><ele>1221.5999756928</ele><time>2011-05-29T09:10:31Z</time></trkpt>
<trkpt lat="46.13461800" lon="7.01855100"><ele>1223.8000489152</ele><time>2011-05-29T09:10:42Z</time></trkpt>
<trkpt lat="46.13478195" lon="7.01853096"><ele>1226.9999999448</ele><time>2011-05-29T09:10:53Z</time></trkpt>
<trkpt lat="46.13486493" lon="7.01858394"><ele>1225.4000242776</ele><time>2011-05-29T09:11:01Z</time></trkpt>
<trkpt lat="46.13502192" lon="7.01852594"><ele>1230.4000244376</ele><time>2011-05-29T09:11:11Z</time></trkpt>
<trkpt lat="46.13513298" lon="7.01851998"><ele>1232.8000488984</ele><time>2011-05-29T09:11:19Z</time></trkpt>
<trkpt lat="46.13523792" lon="7.01857095"><ele>1232.5999754352</ele><time>2011-05-29T09:11:27Z</time></trkpt>
<trkpt lat="46.13538595" lon="7.01862694"><ele>1232.5999754352</ele><time>2011-05-29T09:11:38Z</time></trkpt>
<trkpt lat="46.13551998" lon="7.01862099"><ele>1235.5999755312</ele><time>2011-05-29T09:11:47Z</time></trkpt>
<trkpt lat="46.13560597" lon="7.01864194"><ele>1236.1999511664</ele><time>2011-05-29T09:11:54Z</time></trkpt>
<trkpt lat="46.13568694" lon="7.01867295"><ele>1236.1999511664</ele><time>2011-05-29T09:12:00Z</time></trkpt>
<trkpt lat="46.13577898" lon="7.01876993"><ele>1232.8000488984</ele><time>2011-05-29T09:12:08Z</time></trkpt>
<trkpt lat="46.13586497" lon="7.01878695"><ele>1233.999999864</ele><time>2011-05-29T09:12:14Z</time></trkpt>
<trkpt lat="46.13599297" lon="7.01878695"><ele>1238.5999756272</ele><time>2011-05-29T09:12:23Z</time></trkpt>
<trkpt lat="46.13611794" lon="7.01879793"><ele>1242.4000245168</ele><time>2011-05-29T09:12:32Z</time></trkpt>
<trkpt lat="46.13625498" lon="7.01882693"><ele>1245.1999511496</ele><time>2011-05-29T09:12:42Z</time></trkpt>
<trkpt lat="46.13636998" lon="7.01885593"><ele>1247.400024372</ele><time>2011-05-29T09:12:51Z</time></trkpt>
<trkpt lat="46.13644794" lon="7.01891393"><ele>1245.9999999432</ele><time>2011-05-29T09:12:59Z</time></trkpt>
<trkpt lat="46.13647593" lon="7.01892592"><ele>1246.1999511816</ele><time>2011-05-29T09:13:01Z</time></trkpt>
<trkpt lat="46.13656294" lon="7.01893397"><ele>1248.400024404</ele><time>2011-05-29T09:13:07Z</time></trkpt>
<trkpt lat="46.13671398" lon="7.01891796"><ele>1250.8000488648</ele><time>2011-05-29T09:13:17Z</time></trkpt>
<trkpt lat="46.13679897" lon="7.01898292"><ele>1243.000000152</ele><time>2011-05-29T09:13:25Z</time></trkpt>
<trkpt lat="46.13691992" lon="7.01902198"><ele>1235.8000486896</ele><time>2011-05-29T09:13:34Z</time></trkpt>
<trkpt lat="46.13704096" lon="7.01905098"><ele>1229.599975644</ele><time>2011-05-29T09:13:42Z</time></trkpt>
<trkpt lat="46.13717398" lon="7.01909398"><ele>1222.4000244864</ele><time>2011-05-29T09:13:51Z</time></trkpt>
<trkpt lat="46.13735293" lon="7.01898593"><ele>1221.4000244544</ele><time>2011-05-29T09:13:58Z</time></trkpt>
<trkpt lat="46.13737296" lon="7.01896699"><ele>1221.5999756928</ele><time>2011-05-29T09:14:00Z</time></trkpt>
<trkpt lat="46.13739199" lon="7.01895400"><ele>1221.4000244544</ele><time>2011-05-29T09:14:08Z</time></trkpt>
<trkpt lat="46.13742795" lon="7.01886096"><ele>1224.1999510872</ele><time>2011-05-29T09:14:25Z</time></trkpt>
<trkpt lat="46.13741395" lon="7.01887999"><ele>1223.9999998488</ele><time>2011-05-29T09:14:26Z</time></trkpt>
<trkpt lat="46.13736894" lon="7.01894998"><ele>1222.4000244864</ele><time>2011-05-29T09:14:43Z</time></trkpt>
<trkpt lat="46.13739392" lon="7.01892693"><ele>1222.5999757248</ele><time>2011-05-29T09:15:03Z</time></trkpt>
<trkpt lat="46.13733793" lon="7.01901494"><ele>1220.5999756608</ele><time>2011-05-29T09:15:11Z</time></trkpt>
<trkpt lat="46.13736492" lon="7.01898292"><ele>1221.0000000576</ele><time>2011-05-29T09:15:17Z</time></trkpt>
<trkpt lat="46.13737296" lon="7.01897495"><ele>1221.199951296</ele><time>2011-05-29T09:15:23Z</time></trkpt>
<trkpt lat="46.13725092" lon="7.01908995"><ele>1220.0000000256</ele><time>2011-05-29T09:15:33Z</time></trkpt>
<trkpt lat="46.13727196" lon="7.01908392"><ele>1219.5999756288</ele><time>2011-05-29T09:15:38Z</time></trkpt>
<trkpt lat="46.13730599" lon="7.01889399"><ele>1227.8000487384</ele><time>2011-05-29T09:15:47Z</time></trkpt>
<trkpt lat="46.13713400" lon="7.01876993"><ele>1242.00000012</ele><time>2011-05-29T09:15:51Z</time></trkpt>
<trkpt lat="46.13685295" lon="7.01870296"><ele>1259.1999512928</ele><time>2011-05-29T09:15:55Z</time></trkpt>
<trkpt lat="46.13675396" lon="7.01868494"><ele>1265.4000243384</ele><time>2011-05-29T09:15:56Z</time></trkpt>
<trkpt lat="46.13634199" lon="7.01853599"><ele>1267.0000000056</ele><time>2011-05-29T09:16:00Z</time></trkpt>
<trkpt lat="46.13600898" lon="7.01849794"><ele>1255.5999755616</ele><time>2011-05-29T09:16:03Z</time></trkpt>
<trkpt lat="46.13565593" lon="7.01841194"><ele>1249.0000000392</ele><time>2011-05-29T09:16:07Z</time></trkpt>
<trkpt lat="46.13559298" lon="7.01840096"><ele>1248.1999512456</ele><time>2011-05-29T09:16:08Z</time></trkpt>
<trkpt lat="46.13545200" lon="7.01845796"><ele>1242.4000245168</ele><time>2011-05-29T09:16:12Z</time></trkpt>
<trkpt lat="46.13541998" lon="7.01850096"><ele>1239.5999756592</ele><time>2011-05-29T09:16:16Z</time></trkpt>
<trkpt lat="46.13530599" lon="7.01869399"><ele>1227.8000487384</ele><time>2011-05-29T09:38:53Z</time></trkpt>
<trkpt lat="46.13538193" lon="7.01865292"><ele>1231.4000244696</ele><time>2011-05-29T09:39:02Z</time></trkpt>
<trkpt lat="46.13540296" lon="7.01864496"><ele>1232.1999510384</ele><time>2011-05-29T09:39:04Z</time></trkpt>
<trkpt lat="46.13548595" lon="7.01869793"><ele>1231.0000000728</ele><time>2011-05-29T09:39:12Z</time></trkpt>
<trkpt lat="46.13554194" lon="7.01872995"><ele>1230.4000244376</ele><time>2011-05-29T09:39:19Z</time></trkpt>
<trkpt lat="46.13562793" lon="7.01878695"><ele>1229.1999512472</ele><time>2011-05-29T09:39:26Z</time></trkpt>
<trkpt lat="46.13573899" lon="7.01883598"><ele>1228.599975612</ele><time>2011-05-29T09:39:34Z</time></trkpt>
<trkpt lat="46.13582692" lon="7.01884395"><ele>1229.8000488024</ele><time>2011-05-29T09:39:40Z</time></trkpt>
<trkpt lat="46.13596195" lon="7.01884093"><ele>1234.4000245656</ele><time>2011-05-29T09:39:49Z</time></trkpt>
<trkpt lat="46.13609196" lon="7.01883196"><ele>1239.4000244208</ele><time>2011-05-29T09:39:57Z</time></trkpt>
<trkpt lat="46.13625700" lon="7.01875895"><ele>1249.5999756744</ele><time>2011-05-29T09:40:04Z</time></trkpt>
<trkpt lat="46.13644199" lon="7.01864395"><ele>1263.800048976</ele><time>2011-05-29T09:40:12Z</time></trkpt>
<trkpt lat="46.13651994" lon="7.01866197"><ele>1265.5999755768</ele><time>2011-05-29T09:40:17Z</time></trkpt>
<trkpt lat="46.13663100" lon="7.01873699"><ele>1264.5999755448</ele><time>2011-05-29T09:40:25Z</time></trkpt>
<trkpt lat="46.13672898" lon="7.01883095"><ele>1256.4000243552</ele><time>2011-05-29T09:40:33Z</time></trkpt>
<trkpt lat="46.13682998" lon="7.01894696"><ele>1244.1999511176</ele><time>2011-05-29T09:40:42Z</time></trkpt>
<trkpt lat="46.13693199" lon="7.01905794"><ele>1233.1999510704</ele><time>2011-05-29T09:40:51Z</time></trkpt>
<trkpt lat="46.13702495" lon="7.01913496"><ele>1225.1999511192</ele><time>2011-05-29T09:40:59Z</time></trkpt>
<trkpt lat="46.13716694" lon="7.01921493"><ele>1215.800048964</ele><time>2011-05-29T09:41:10Z</time></trkpt>
<trkpt lat="46.13734396" lon="7.01905894"><ele>1218.1999512</ele><time>2011-05-29T09:41:17Z</time></trkpt>
<trkpt lat="46.13748897" lon="7.01878795"><ele>1224.8000489472</ele><time>2011-05-29T09:41:25Z</time></trkpt>
<trkpt lat="46.13755896" lon="7.01862300"><ele>1227.1999511832</ele><time>2011-05-29T09:41:32Z</time></trkpt>
<trkpt lat="46.13758896" lon="7.01858796"><ele>1226.599975548</ele><time>2011-05-29T09:41:41Z</time></trkpt>
<trkpt lat="46.13760799" lon="7.01853499"><ele>1227.59997558</ele><time>2011-05-29T09:41:49Z</time></trkpt>
<trkpt lat="46.13759995" lon="7.01845192"><ele>1231.8000488664</ele><time>2011-05-29T09:41:56Z</time></trkpt>
<trkpt lat="46.13760900" lon="7.01831597"><ele>1236.8000487216</ele><time>2011-05-29T09:42:04Z</time></trkpt>
<trkpt lat="46.13760699" lon="7.01822796"><ele>1240.000000056</ele><time>2011-05-29T09:42:09Z</time></trkpt>
<trkpt lat="46.13760598" lon="7.01811598"><ele>1243.8000489456</ele><time>2011-05-29T09:42:14Z</time></trkpt>
<trkpt lat="46.13762693" lon="7.01798597"><ele>1246.9999999752</ele><time>2011-05-29T09:42:20Z</time></trkpt>
<trkpt lat="46.13765895" lon="7.01783795"><ele>1250.1999513096</ele><time>2011-05-29T09:42:26Z</time></trkpt>
<trkpt lat="46.13770296" lon="7.01767098"><ele>1253.8000489608</ele><time>2011-05-29T09:42:33Z</time></trkpt>
<trkpt lat="46.13775794" lon="7.01750292"><ele>1257.4000243872</ele><time>2011-05-29T09:42:40Z</time></trkpt>
<trkpt lat="46.13782098" lon="7.01732598"><ele>1264.8000487032</ele><time>2011-05-29T09:42:47Z</time></trkpt>
<trkpt lat="46.13788099" lon="7.01712792"><ele>1273.599975528</ele><time>2011-05-29T09:42:55Z</time></trkpt>
<trkpt lat="46.13790496" lon="7.01699599"><ele>1280.4000245136</ele><time>2011-05-29T09:43:00Z</time></trkpt>
<trkpt lat="46.13795299" lon="7.01679197"><ele>1290.4000245288</ele><time>2011-05-29T09:43:08Z</time></trkpt>
<trkpt lat="46.13797193" lon="7.01678099"><ele>1290.1999510656</ele><time>2011-05-29T09:43:14Z</time></trkpt>
<trkpt lat="46.13796196" lon="7.01686598"><ele>1285.5999756072</ele><time>2011-05-29T09:43:19Z</time></trkpt>
<trkpt lat="46.13797998" lon="7.01692793"><ele>1281.1999510824</ele><time>2011-05-29T09:43:27Z</time></trkpt>
<trkpt lat="46.13796992" lon="7.01695198"><ele>1280.1999510504</ele><time>2011-05-29T09:43:32Z</time></trkpt>
<trkpt lat="46.13802600" lon="7.01708400"><ele>1269.5999757048</ele><time>2011-05-29T09:43:51Z</time></trkpt>
<trkpt lat="46.13811694" lon="7.01725398"><ele>1255.1999511648</ele><time>2011-05-29T09:44:00Z</time></trkpt>
<trkpt lat="46.13888196" lon="7.01693798"><ele>1255.4000243232</ele><time>2011-05-29T09:44:17Z</time></trkpt>
<trkpt lat="46.13882697" lon="7.01675895"><ele>1268.199951276</ele><time>2011-05-29T09:44:23Z</time></trkpt>
<trkpt lat="46.13883996" lon="7.01673196"><ele>1269.5999757048</ele><time>2011-05-29T09:44:26Z</time></trkpt>
<trkpt lat="46.13890392" lon="7.01665694"><ele>1273.599975528</ele><time>2011-05-29T09:44:33Z</time></trkpt>
<trkpt lat="46.13891699" lon="7.01664696"><ele>1273.9999999248</ele><time>2011-05-29T09:44:34Z</time></trkpt>
<trkpt lat="46.13900098" lon="7.01661796"><ele>1274.4000243216</ele><time>2011-05-29T09:44:41Z</time></trkpt>
<trkpt lat="46.13908296" lon="7.01661495"><ele>1273.1999511312</ele><time>2011-05-29T09:44:48Z</time></trkpt>
<trkpt lat="46.13909896" lon="7.01663892"><ele>1271.599975464</ele><time>2011-05-29T09:44:51Z</time></trkpt>
<trkpt lat="46.13992592" lon="7.01629694"><ele>1273.599975528</ele><time>2011-05-29T09:45:38Z</time></trkpt>
<trkpt lat="46.14000496" lon="7.01617196"><ele>1274.59997556</ele><time>2011-05-29T09:45:45Z</time></trkpt>
<trkpt lat="46.14001997" lon="7.01615294"><ele>1275.1999511952</ele><time>2011-05-29T09:45:47Z</time></trkpt>
<trkpt lat="46.14002399" lon="7.01592294"><ele>1280.1999510504</ele><time>2011-05-29T09:45:55Z</time></trkpt>
<trkpt lat="46.14005794" lon="7.01569495"><ele>1283.8000487016</ele><time>2011-05-29T09:46:05Z</time></trkpt>
<trkpt lat="46.14011393" lon="7.01550292"><ele>1286.000000004</ele><time>2011-05-29T09:46:14Z</time></trkpt>
<trkpt lat="46.14019892" lon="7.01537099"><ele>1288.000000068</ele><time>2011-05-29T09:46:21Z</time></trkpt>
<trkpt lat="46.14033295" lon="7.01519195"><ele>1290.5999754624</ele><time>2011-05-29T09:46:30Z</time></trkpt>
<trkpt lat="46.14041694" lon="7.01499397"><ele>1292.9999999232</ele><time>2011-05-29T09:46:39Z</time></trkpt>
<trkpt lat="46.14048399" lon="7.01481694"><ele>1294.5999755904</ele><time>2011-05-29T09:46:48Z</time></trkpt>
<trkpt lat="46.14052095" lon="7.01467797"><ele>1296.0000000192</ele><time>2011-05-29T09:46:55Z</time></trkpt>
<trkpt lat="46.14052297" lon="7.01465894"><ele>1296.1999512576</ele><time>2011-05-29T09:46:56Z</time></trkpt>
<trkpt lat="46.14052598" lon="7.01451696"><ele>1297.1999512896</ele><time>2011-05-29T09:47:02Z</time></trkpt>
<trkpt lat="46.14057996" lon="7.01442199"><ele>1298.8000488768</ele><time>2011-05-29T09:47:09Z</time></trkpt>
<trkpt lat="46.14058499" lon="7.01438796"><ele>1299.1999510488</ele><time>2011-05-29T09:47:11Z</time></trkpt>
<trkpt lat="46.14065800" lon="7.01422694"><ele>1302.1999511448</ele><time>2011-05-29T09:47:22Z</time></trkpt>
<trkpt lat="46.14066797" lon="7.01421596"><ele>1302.4000243032</ele><time>2011-05-29T09:47:23Z</time></trkpt>
<trkpt lat="46.14073092" lon="7.01409593"><ele>1304.5999756056</ele><time>2011-05-29T09:47:32Z</time></trkpt>
<trkpt lat="46.14073293" lon="7.01408395"><ele>1304.5999756056</ele><time>2011-05-29T09:47:33Z</time></trkpt>
<trkpt lat="46.14070594" lon="7.01392092"><ele>1304.1999512088</ele><time>2011-05-29T09:47:44Z</time></trkpt>
<trkpt lat="46.14067996" lon="7.01379896"><ele>1303.800048732</ele><time>2011-05-29T09:47:52Z</time></trkpt>
<trkpt lat="46.14066797" lon="7.01363199"><ele>1303.800048732</ele><time>2011-05-29T09:48:02Z</time></trkpt>
<trkpt lat="46.14067694" lon="7.01349193"><ele>1304.1999512088</ele><time>2011-05-29T09:48:10Z</time></trkpt>
<trkpt lat="46.14068792" lon="7.01338196"><ele>1304.5999756056</ele><time>2011-05-29T09:48:16Z</time></trkpt>
<trkpt lat="46.14068993" lon="7.01335095"><ele>1304.800048764</ele><time>2011-05-29T09:48:18Z</time></trkpt>
<trkpt lat="46.14071097" lon="7.01319798"><ele>1305.1999512408</ele><time>2011-05-29T09:48:26Z</time></trkpt>
<trkpt lat="46.14072095" lon="7.01316294"><ele>1305.4000243992</ele><time>2011-05-29T09:48:28Z</time></trkpt>
<trkpt lat="46.14077895" lon="7.01301492"><ele>1307.0000000664</ele><time>2011-05-29T09:48:37Z</time></trkpt>
<trkpt lat="46.14082798" lon="7.01289992"><ele>1308.199951032</ele><time>2011-05-29T09:48:45Z</time></trkpt>
<trkpt lat="46.14084098" lon="7.01281099"><ele>1308.5999757336</ele><time>2011-05-29T09:48:51Z</time></trkpt>
<trkpt lat="46.14085799" lon="7.01268299"><ele>1309.199951064</ele><time>2011-05-29T09:48:59Z</time></trkpt>
<trkpt lat="46.14086294" lon="7.01251393"><ele>1309.199951064</ele><time>2011-05-29T09:49:08Z</time></trkpt>
<trkpt lat="46.14086394" lon="7.01232400"><ele>1309.0000001304</ele><time>2011-05-29T09:49:18Z</time></trkpt>
<trkpt lat="46.14085900" lon="7.01228594"><ele>1308.5999757336</ele><time>2011-05-29T09:49:20Z</time></trkpt>
<trkpt lat="46.14085799" lon="7.01220992"><ele>1308.4000244952</ele><time>2011-05-29T09:49:24Z</time></trkpt>
<trkpt lat="46.14082899" lon="7.01204798"><ele>1306.5999756696</ele><time>2011-05-29T09:49:33Z</time></trkpt>
<trkpt lat="46.14081994" lon="7.01201395"><ele>1306.4000244312</ele><time>2011-05-29T09:49:35Z</time></trkpt>
<trkpt lat="46.14081097" lon="7.01183299"><ele>1305.800048796</ele><time>2011-05-29T09:49:44Z</time></trkpt>
<trkpt lat="46.14081097" lon="7.01181698"><ele>1305.5999756376</ele><time>2011-05-29T09:49:45Z</time></trkpt>
<trkpt lat="46.14083796" lon="7.01159192"><ele>1306.5999756696</ele><time>2011-05-29T09:49:57Z</time></trkpt>
<trkpt lat="46.14095899" lon="7.01107099"><ele>1316.5999756848</ele><time>2011-05-29T09:50:16Z</time></trkpt>
<trkpt lat="46.14096293" lon="7.01106797"><ele>1317.0000000816</ele><time>2011-05-29T09:50:18Z</time></trkpt>
<trkpt lat="46.14100099" lon="7.01101894"><ele>1319.599975476</ele><time>2011-05-29T09:50:25Z</time></trkpt>
<trkpt lat="46.14102798" lon="7.01091995"><ele>1322.1999511752</ele><time>2011-05-29T09:50:33Z</time></trkpt>
<trkpt lat="46.14103292" lon="7.01082992"><ele>1323.1999512072</ele><time>2011-05-29T09:50:40Z</time></trkpt>
<trkpt lat="46.14100794" lon="7.01070596"><ele>1324.599975636</ele><time>2011-05-29T09:50:48Z</time></trkpt>
<trkpt lat="46.14097794" lon="7.01054695"><ele>1326.8000488584</ele><time>2011-05-29T09:50:57Z</time></trkpt>
<trkpt lat="46.14097098" lon="7.01042499"><ele>1329.5999754912</ele><time>2011-05-29T09:51:05Z</time></trkpt>
<trkpt lat="46.14096000" lon="7.01037395"><ele>1330.1999511264</ele><time>2011-05-29T09:51:09Z</time></trkpt>
<trkpt lat="46.14095799" lon="7.01030597"><ele>1331.999999952</ele><time>2011-05-29T09:51:13Z</time></trkpt>
<trkpt lat="46.14095095" lon="7.01025300"><ele>1332.8000487456</ele><time>2011-05-29T09:51:16Z</time></trkpt>
<trkpt lat="46.14093494" lon="7.01023296"><ele>1332.4000243488</ele><time>2011-05-29T09:51:19Z</time></trkpt>
<trkpt lat="46.14092798" lon="7.01016096"><ele>1334.000000016</ele><time>2011-05-29T09:51:26Z</time></trkpt>
<trkpt lat="46.14092697" lon="7.01014697"><ele>1334.1999512544</ele><time>2011-05-29T09:51:27Z</time></trkpt>
<trkpt lat="46.14092697" lon="7.00995594"><ele>1338.8000489376</ele><time>2011-05-29T09:51:37Z</time></trkpt>
<trkpt lat="46.14092194" lon="7.00990297"><ele>1339.400024268</ele><time>2011-05-29T09:51:40Z</time></trkpt>
<trkpt lat="46.14091096" lon="7.00984698"><ele>1339.5999755064</ele><time>2011-05-29T09:51:44Z</time></trkpt>
<trkpt lat="46.14089596" lon="7.00981596"><ele>1339.1999511096</ele><time>2011-05-29T09:51:47Z</time></trkpt>
<trkpt lat="46.14087895" lon="7.00968596"><ele>1339.9999999032</ele><time>2011-05-29T09:51:54Z</time></trkpt>
<trkpt lat="46.14086495" lon="7.00954992"><ele>1341.1999511736</ele><time>2011-05-29T09:52:01Z</time></trkpt>
<trkpt lat="46.14084500" lon="7.00944398"><ele>1341.5999755704</ele><time>2011-05-29T09:52:08Z</time></trkpt>
<trkpt lat="46.14080896" lon="7.00930894"><ele>1341.9999999672</ele><time>2011-05-29T09:52:15Z</time></trkpt>
<trkpt lat="46.14075498" lon="7.00910099"><ele>1342.9999999992</ele><time>2011-05-29T09:52:26Z</time></trkpt>
<trkpt lat="46.14070997" lon="7.00893293"><ele>1344.1999512696</ele><time>2011-05-29T09:52:35Z</time></trkpt>
<trkpt lat="46.14066797" lon="7.00884693"><ele>1344.0000000312</ele><time>2011-05-29T09:52:42Z</time></trkpt>
<trkpt lat="46.14063998" lon="7.00871592"><ele>1345.40002446</ele><time>2011-05-29T09:52:50Z</time></trkpt>
<trkpt lat="46.14060394" lon="7.00861400"><ele>1345.8000488568</ele><time>2011-05-29T09:52:57Z</time></trkpt>
<trkpt lat="46.14059798" lon="7.00860998"><ele>1345.8000488568</ele><time>2011-05-29T09:52:58Z</time></trkpt>
<trkpt lat="46.14056496" lon="7.00850495"><ele>1346.5999757304</ele><time>2011-05-29T09:53:06Z</time></trkpt>
<trkpt lat="46.14055599" lon="7.00845692"><ele>1347.1999510608</ele><time>2011-05-29T09:53:09Z</time></trkpt>
<trkpt lat="46.14052992" lon="7.00833698"><ele>1348.400024556</ele><time>2011-05-29T09:53:16Z</time></trkpt>
<trkpt lat="46.14052598" lon="7.00832197"><ele>1348.5999754896</ele><time>2011-05-29T09:53:17Z</time></trkpt>
<trkpt lat="46.14047100" lon="7.00820295"><ele>1349.1999511248</ele><time>2011-05-29T09:53:26Z</time></trkpt>
<trkpt lat="46.14040294" lon="7.00808996"><ele>1349.1999511248</ele><time>2011-05-29T09:53:35Z</time></trkpt>
<trkpt lat="46.14034896" lon="7.00801293"><ele>1348.9999998864</ele><time>2011-05-29T09:53:42Z</time></trkpt>
<trkpt lat="46.14033496" lon="7.00796499"><ele>1349.5999755216</ele><time>2011-05-29T09:53:47Z</time></trkpt>
<trkpt lat="46.14032893" lon="7.00792593"><ele>1349.9999999184</ele><time>2011-05-29T09:53:56Z</time></trkpt>
<trkpt lat="46.14027595" lon="7.00778092"><ele>1350.9999999504</ele><time>2011-05-29T09:54:06Z</time></trkpt>
<trkpt lat="46.14022692" lon="7.00767095"><ele>1351.5999755856</ele><time>2011-05-29T09:54:14Z</time></trkpt>
<trkpt lat="46.14017596" lon="7.00758596"><ele>1351.5999755856</ele><time>2011-05-29T09:54:22Z</time></trkpt>
<trkpt lat="46.14013899" lon="7.00745093"><ele>1353.0000000144</ele><time>2011-05-29T09:54:30Z</time></trkpt>
<trkpt lat="46.14007898" lon="7.00728396"><ele>1354.80004884</ele><time>2011-05-29T09:54:40Z</time></trkpt>
<trkpt lat="46.14005794" lon="7.00720894"><ele>1355.800048872</ele><time>2011-05-29T09:54:44Z</time></trkpt>
<trkpt lat="46.14003900" lon="7.00712998"><ele>1357.0000001424</ele><time>2011-05-29T09:54:48Z</time></trkpt>
<trkpt lat="46.14001393" lon="7.00703996"><ele>1358.199951108</ele><time>2011-05-29T09:54:55Z</time></trkpt>
<trkpt lat="46.13995694" lon="7.00696997"><ele>1359.4000242984</ele><time>2011-05-29T09:55:09Z</time></trkpt>
<trkpt lat="46.13993799" lon="7.00689093"><ele>1360.9999999656</ele><time>2011-05-29T09:55:15Z</time></trkpt>
<trkpt lat="46.13991897" lon="7.00682899"><ele>1362.4000243944</ele><time>2011-05-29T09:55:19Z</time></trkpt>
<trkpt lat="46.13987898" lon="7.00671097"><ele>1365.0000000936</ele><time>2011-05-29T09:55:27Z</time></trkpt>
<trkpt lat="46.13983096" lon="7.00659597"><ele>1367.4000245544</ele><time>2011-05-29T09:55:35Z</time></trkpt>
<trkpt lat="46.13975896" lon="7.00649992"><ele>1368.8000486784</ele><time>2011-05-29T09:55:43Z</time></trkpt>
<trkpt lat="46.13969995" lon="7.00644895"><ele>1369.1999511552</ele><time>2011-05-29T09:55:50Z</time></trkpt>
<trkpt lat="46.13969592" lon="7.00639799"><ele>1369.9999999488</ele><time>2011-05-29T09:55:55Z</time></trkpt>
<trkpt lat="46.13967497" lon="7.00619197"><ele>1372.8000488064</ele><time>2011-05-29T09:59:11Z</time></trkpt>
<trkpt lat="46.13966994" lon="7.00611292"><ele>1374.0000000768</ele><time>2011-05-29T09:59:18Z</time></trkpt>
<trkpt lat="46.13957196" lon="7.00598200"><ele>1373.4000244416</ele><time>2011-05-29T09:59:29Z</time></trkpt>
<trkpt lat="46.13947699" lon="7.00586893"><ele>1372.0000000128</ele><time>2011-05-29T09:59:38Z</time></trkpt>
<trkpt lat="46.13935595" lon="7.00572099"><ele>1369.4000243136</ele><time>2011-05-29T09:59:50Z</time></trkpt>
<trkpt lat="46.13932494" lon="7.00558394"><ele>1369.4000243136</ele><time>2011-05-29T09:59:58Z</time></trkpt>
<trkpt lat="46.13933693" lon="7.00544799"><ele>1370.599975584</ele><time>2011-05-29T10:00:05Z</time></trkpt>
<trkpt lat="46.13933693" lon="7.00520793"><ele>1372.1999512512</ele><time>2011-05-29T10:00:16Z</time></trkpt>
<trkpt lat="46.13925596" lon="7.00505094"><ele>1370.1999511872</ele><time>2011-05-29T10:00:25Z</time></trkpt>
<trkpt lat="46.13920097" lon="7.00493200"><ele>1368.9999999168</ele><time>2011-05-29T10:00:31Z</time></trkpt>
<trkpt lat="46.13919293" lon="7.00475598"><ele>1370.8000487424</ele><time>2011-05-29T10:00:38Z</time></trkpt>
<trkpt lat="46.13921396" lon="7.00456495"><ele>1373.8000488384</ele><time>2011-05-29T10:00:46Z</time></trkpt>
<trkpt lat="46.13926392" lon="7.00432892"><ele>1378.4000242968</ele><time>2011-05-29T10:00:55Z</time></trkpt>
<trkpt lat="46.13933399" lon="7.00402097"><ele>1382.4000244248</ele><time>2011-05-29T10:01:06Z</time></trkpt>
<trkpt lat="46.13939996" lon="7.00379197"><ele>1384.4000244888</ele><time>2011-05-29T10:01:14Z</time></trkpt>
<trkpt lat="46.13942997" lon="7.00364294"><ele>1385.000000124</ele><time>2011-05-29T10:01:20Z</time></trkpt>
<trkpt lat="46.13947799" lon="7.00341999"><ele>1385.9999998512</ele><time>2011-05-29T10:01:28Z</time></trkpt>
<trkpt lat="46.13951999" lon="7.00317993"><ele>1386.8000489496</ele><time>2011-05-29T10:01:37Z</time></trkpt>
<trkpt lat="46.13954195" lon="7.00298999"><ele>1387.1999511216</ele><time>2011-05-29T10:01:44Z</time></trkpt>
<trkpt lat="46.13954295" lon="7.00271498"><ele>1386.9999998832</ele><time>2011-05-29T10:01:53Z</time></trkpt>
<trkpt lat="46.13951295" lon="7.00247099"><ele>1386.8000489496</ele><time>2011-05-29T10:02:01Z</time></trkpt>
<trkpt lat="46.13941899" lon="7.00225398"><ele>1387.40002428</ele><time>2011-05-29T10:02:10Z</time></trkpt>
<trkpt lat="46.13933399" lon="7.00207997"><ele>1388.1999511536</ele><time>2011-05-29T10:02:17Z</time></trkpt>
<trkpt lat="46.13931094" lon="7.00184595"><ele>1390.1999512176</ele><time>2011-05-29T10:02:25Z</time></trkpt>
<trkpt lat="46.13937498" lon="7.00164093"><ele>1392.1999512816</ele><time>2011-05-29T10:02:32Z</time></trkpt>
<trkpt lat="46.13941999" lon="7.00145795"><ele>1391.1999512496</ele><time>2011-05-29T10:02:38Z</time></trkpt>
<trkpt lat="46.13947598" lon="7.00121596"><ele>1389.5999755824</ele><time>2011-05-29T10:02:46Z</time></trkpt>
<trkpt lat="46.13951496" lon="7.00098094"><ele>1387.8000486768</ele><time>2011-05-29T10:02:54Z</time></trkpt>
<trkpt lat="46.13955796" lon="7.00070593"><ele>1386.4000245528</ele><time>2011-05-29T10:03:03Z</time></trkpt>
<trkpt lat="46.13958595" lon="7.00041692"><ele>1386.1999510896</ele><time>2011-05-29T10:03:12Z</time></trkpt>
<trkpt lat="46.13958897" lon="7.00015993"><ele>1385.9999998512</ele><time>2011-05-29T10:03:20Z</time></trkpt>
<trkpt lat="46.13958394" lon="6.99990495"><ele>1385.8000489176</ele><time>2011-05-29T10:03:28Z</time></trkpt>
<trkpt lat="46.13958394" lon="6.99975299"><ele>1385.8000489176</ele><time>2011-05-29T10:03:33Z</time></trkpt>
<trkpt lat="46.13958998" lon="6.99957596"><ele>1386.1999510896</ele><time>2011-05-29T10:03:39Z</time></trkpt>
<trkpt lat="46.13959995" lon="6.99932098"><ele>1386.1999510896</ele><time>2011-05-29T10:03:47Z</time></trkpt>
<trkpt lat="46.13961797" lon="6.99906894"><ele>1386.4000245528</ele><time>2011-05-29T10:03:55Z</time></trkpt>
<trkpt lat="46.13962795" lon="6.99879100"><ele>1386.8000489496</ele><time>2011-05-29T10:04:04Z</time></trkpt>
<trkpt lat="46.13963792" lon="6.99858799"><ele>1386.9999998832</ele><time>2011-05-29T10:04:12Z</time></trkpt>
<trkpt lat="46.13963893" lon="6.99856795"><ele>1386.9999998832</ele><time>2011-05-29T10:04:13Z</time></trkpt>
<trkpt lat="46.13964396" lon="6.99854893"><ele>1386.9999998832</ele><time>2011-05-29T10:04:14Z</time></trkpt>
<trkpt lat="46.13972099" lon="6.99862193"><ele>1386.8000489496</ele><time>2011-05-29T10:04:44Z</time></trkpt>
<trkpt lat="46.13972493" lon="6.99865194"><ele>1386.8000489496</ele><time>2011-05-29T10:04:45Z</time></trkpt>
<trkpt lat="46.13981294" lon="6.99889099"><ele>1385.9999998512</ele><time>2011-05-29T10:04:53Z</time></trkpt>
<trkpt lat="46.13991997" lon="6.99905796"><ele>1385.4000245208</ele><time>2011-05-29T10:05:00Z</time></trkpt>
<trkpt lat="46.13997093" lon="6.99913600"><ele>1385.000000124</ele><time>2011-05-29T10:05:02Z</time></trkpt>
<trkpt lat="46.14006297" lon="6.99944294"><ele>1384.1999510256</ele><time>2011-05-29T10:05:08Z</time></trkpt>
<trkpt lat="46.14007596" lon="6.99948393"><ele>1384.000000092</ele><time>2011-05-29T10:05:09Z</time></trkpt>
<trkpt lat="46.14016799" lon="6.99955199"><ele>1383.8000488536</ele><time>2011-05-29T10:05:14Z</time></trkpt>
<trkpt lat="46.14017696" lon="6.99954394"><ele>1383.8000488536</ele><time>2011-05-29T10:05:15Z</time></trkpt>
<trkpt lat="46.14021795" lon="6.99939298"><ele>1384.000000092</ele><time>2011-05-29T10:05:21Z</time></trkpt>
<trkpt lat="46.14025592" lon="6.99915594"><ele>1385.000000124</ele><time>2011-05-29T10:05:29Z</time></trkpt>
<trkpt lat="46.14030495" lon="6.99891295"><ele>1385.1999510576</ele><time>2011-05-29T10:05:37Z</time></trkpt>
<trkpt lat="46.14033798" lon="6.99868798"><ele>1385.5999754544</ele><time>2011-05-29T10:05:45Z</time></trkpt>
<trkpt lat="46.14036195" lon="6.99850299"><ele>1385.8000489176</ele><time>2011-05-29T10:05:53Z</time></trkpt>
<trkpt lat="46.14036698" lon="6.99848397"><ele>1385.8000489176</ele><time>2011-05-29T10:05:54Z</time></trkpt>
<trkpt lat="46.14038492" lon="6.99846092"><ele>1385.8000489176</ele><time>2011-05-29T10:05:56Z</time></trkpt>
<trkpt lat="46.14042993" lon="6.99843896"><ele>1399.1999512008</ele><time>2011-05-29T10:06:00Z</time></trkpt>
<trkpt lat="46.14045792" lon="6.99842697"><ele>1400.1999512328</ele><time>2011-05-29T10:06:03Z</time></trkpt>
<trkpt lat="46.14035994" lon="6.99848799"><ele>1396.9999998984</ele><time>2011-05-29T14:48:57Z</time></trkpt>
<trkpt lat="46.14034695" lon="6.99848397"><ele>1396.5999755016</ele><time>2011-05-29T14:49:01Z</time></trkpt>
<trkpt lat="46.14032599" lon="6.99841792"><ele>1396.1999511048</ele><time>2011-05-29T14:49:06Z</time></trkpt>
<trkpt lat="46.14033295" lon="6.99822597"><ele>1397.5999755336</ele><time>2011-05-29T14:49:12Z</time></trkpt>
<trkpt lat="46.14037092" lon="6.99797493"><ele>1400.4000243912</ele><time>2011-05-29T14:49:19Z</time></trkpt>
<trkpt lat="46.14040595" lon="6.99769992"><ele>1403.5999757256</ele><time>2011-05-29T14:49:27Z</time></trkpt>
<trkpt lat="46.14045097" lon="6.99746397"><ele>1407.4000243104</ele><time>2011-05-29T14:49:34Z</time></trkpt>
<trkpt lat="46.14044996" lon="6.99743296"><ele>1407.8000487072</ele><time>2011-05-29T14:49:35Z</time></trkpt>
<trkpt lat="46.14036798" lon="6.99735492"><ele>1405.5999754848</ele><time>2011-05-29T14:49:40Z</time></trkpt>
<trkpt lat="46.14019699" lon="6.99727194"><ele>1398.9999999624</ele><time>2011-05-29T14:49:47Z</time></trkpt>
<trkpt lat="46.14001494" lon="6.99708997"><ele>1392.5999756784</ele><time>2011-05-29T14:49:52Z</time></trkpt>
<trkpt lat="46.13980195" lon="6.99696793"><ele>1406.19995112</ele><time>2011-05-29T14:49:57Z</time></trkpt>
<trkpt lat="46.13980698" lon="6.99679594"><ele>1411.8000488352</ele><time>2011-05-29T14:50:00Z</time></trkpt>
<trkpt lat="46.13989893" lon="6.99653392"><ele>1407.8000487072</ele><time>2011-05-29T14:50:05Z</time></trkpt>
<trkpt lat="46.13996993" lon="6.99629696"><ele>1401.4000244232</ele><time>2011-05-29T14:50:09Z</time></trkpt>
<trkpt lat="46.14000094" lon="6.99586898"><ele>1399.800048756</ele><time>2011-05-29T14:50:16Z</time></trkpt>
<trkpt lat="46.14001293" lon="6.99544293"><ele>1459.0000000536</ele><time>2011-05-29T14:50:23Z</time></trkpt>
<trkpt lat="46.14003900" lon="6.99485594"><ele>1531.5999755544</ele><time>2011-05-29T14:50:32Z</time></trkpt>
<trkpt lat="46.14008292" lon="6.99444498"><ele>1549.9999999176</ele><time>2011-05-29T14:50:39Z</time></trkpt>
<trkpt lat="46.14010295" lon="6.99393695"><ele>1580.5999755984</ele><time>2011-05-29T14:50:48Z</time></trkpt>
<trkpt lat="46.14017596" lon="6.99356295"><ele>1604.9999998488</ele><time>2011-05-29T14:50:55Z</time></trkpt>
<trkpt lat="46.14033898" lon="6.99315098"><ele>1630.8000488328</ele><time>2011-05-29T14:51:03Z</time></trkpt>
<trkpt lat="46.14042297" lon="6.99292199"><ele>1641.4000244832</ele><time>2011-05-29T14:51:09Z</time></trkpt>
<trkpt lat="46.14040193" lon="6.99274496"><ele>1652.0000001336</ele><time>2011-05-29T14:52:02Z</time></trkpt>
<trkpt lat="46.14040294" lon="6.99287497"><ele>1644.5999755128</ele><time>2011-05-29T14:52:08Z</time></trkpt>
<trkpt lat="46.14035399" lon="6.99310094"><ele>1633.1999510688</ele><time>2011-05-29T14:52:14Z</time></trkpt>
<trkpt lat="46.14017394" lon="6.99343798"><ele>1615.999999896</ele><time>2011-05-29T14:52:20Z</time></trkpt>
<trkpt lat="46.14007294" lon="6.99380896"><ele>1593.4000244712</ele><time>2011-05-29T14:52:25Z</time></trkpt>
<trkpt lat="46.14005492" lon="6.99456895"><ele>1546.5999757296</ele><time>2011-05-29T14:52:33Z</time></trkpt>
<trkpt lat="46.14000094" lon="6.99543195"><ele>1461.0000001176</ele><time>2011-05-29T14:52:42Z</time></trkpt>
<trkpt lat="46.13999692" lon="6.99604894"><ele>1399.1999512008</ele><time>2011-05-29T14:52:49Z</time></trkpt>
<trkpt lat="46.13994193" lon="6.99639000"><ele>1404.199951056</ele><time>2011-05-29T14:52:54Z</time></trkpt>
<trkpt lat="46.13985099" lon="6.99663199"><ele>1412.0000000736</ele><time>2011-05-29T14:52:57Z</time></trkpt>
<trkpt lat="46.13974395" lon="6.99722199"><ele>1399.1999512008</ele><time>2011-05-29T14:53:03Z</time></trkpt>
<trkpt lat="46.13964597" lon="6.99811298"><ele>1387.1999511216</ele><time>2011-05-29T14:53:12Z</time></trkpt>
<trkpt lat="46.13959995" lon="6.99892796"><ele>1386.5999754864</ele><time>2011-05-29T14:53:20Z</time></trkpt>
<trkpt lat="46.13954195" lon="6.99968300"><ele>1386.4000245528</ele><time>2011-05-29T14:53:27Z</time></trkpt>
<trkpt lat="46.13956198" lon="7.00039596"><ele>1386.1999510896</ele><time>2011-05-29T14:53:33Z</time></trkpt>
<trkpt lat="46.13952099" lon="7.00101295"><ele>1387.9999999152</ele><time>2011-05-29T14:53:38Z</time></trkpt>
<trkpt lat="46.13934900" lon="7.00170396"><ele>1391.8000488048</ele><time>2011-05-29T14:53:44Z</time></trkpt>
<trkpt lat="46.13935696" lon="7.00218097"><ele>1387.40002428</ele><time>2011-05-29T14:53:48Z</time></trkpt>
<trkpt lat="46.13948495" lon="7.00253192"><ele>1385.9999998512</ele><time>2011-05-29T14:53:51Z</time></trkpt>
<trkpt lat="46.13951496" lon="7.00281096"><ele>1386.5999754864</ele><time>2011-05-29T14:53:53Z</time></trkpt>
<trkpt lat="46.13951395" lon="7.00304397"><ele>1386.5999754864</ele><time>2011-05-29T14:53:55Z</time></trkpt>
<trkpt lat="46.13946592" lon="7.00321496"><ele>1385.5999754544</ele><time>2011-05-29T14:53:59Z</time></trkpt>
<trkpt lat="46.13945997" lon="7.00321597"><ele>1385.4000245208</ele><time>2011-05-29T14:54:01Z</time></trkpt>
<trkpt lat="46.13942293" lon="7.00338093"><ele>1384.4000244888</ele><time>2011-05-29T14:54:06Z</time></trkpt>
<trkpt lat="46.13933399" lon="7.00371997"><ele>1382.4000244248</ele><time>2011-05-29T14:54:11Z</time></trkpt>
<trkpt lat="46.13924498" lon="7.00413798"><ele>1379.5999755672</ele><time>2011-05-29T14:54:16Z</time></trkpt>
<trkpt lat="46.13914800" lon="7.00460494"><ele>1372.8000488064</ele><time>2011-05-29T14:54:21Z</time></trkpt>
<trkpt lat="46.13913098" lon="7.00471197"><ele>1372.599975648</ele><time>2011-05-29T14:54:22Z</time></trkpt>
<trkpt lat="46.13918195" lon="7.00502898"><ele>1367.4000245544</ele><time>2011-05-29T14:54:25Z</time></trkpt>
<trkpt lat="46.13923995" lon="7.00512093"><ele>1369.1999511552</ele><time>2011-05-29T14:54:26Z</time></trkpt>
<trkpt lat="46.13927993" lon="7.00550792"><ele>1368.1999511232</ele><time>2011-05-29T14:54:29Z</time></trkpt>
<trkpt lat="46.13930499" lon="7.00576893"><ele>1367.4000245544</ele><time>2011-05-29T14:54:31Z</time></trkpt>
<trkpt lat="46.13943298" lon="7.00598099"><ele>1369.9999999488</ele><time>2011-05-29T14:54:33Z</time></trkpt>
<trkpt lat="46.13984998" lon="7.00662900"><ele>1366.599975456</ele><time>2011-05-29T14:54:38Z</time></trkpt>
<trkpt lat="46.14021594" lon="7.00769593"><ele>1350.800048712</ele><time>2011-05-29T14:54:44Z</time></trkpt>
<trkpt lat="46.14043697" lon="7.00820396"><ele>1348.1999510928</ele><time>2011-05-29T14:54:47Z</time></trkpt>
<trkpt lat="46.14073494" lon="7.00916293"><ele>1341.400024332</ele><time>2011-05-29T14:54:52Z</time></trkpt>
<trkpt lat="46.14089797" lon="7.00998796"><ele>1336.8000488736</ele><time>2011-05-29T14:54:56Z</time></trkpt>
<trkpt lat="46.14096494" lon="7.01059196"><ele>1324.8000487944</ele><time>2011-05-29T14:54:59Z</time></trkpt>
<trkpt lat="46.14098095" lon="7.01076899"><ele>1321.4000243016</ele><time>2011-05-29T14:55:00Z</time></trkpt>
<trkpt lat="46.14092295" lon="7.01132295"><ele>1312.8000487152</ele><time>2011-05-29T14:55:04Z</time></trkpt>
<trkpt lat="46.14089496" lon="7.01144700"><ele>1310.5999754928</ele><time>2011-05-29T14:55:05Z</time></trkpt>
<trkpt lat="46.14077199" lon="7.01201496"><ele>1305.0000000024</ele><time>2011-05-29T14:55:09Z</time></trkpt>
<trkpt lat="46.14081399" lon="7.01245895"><ele>1307.1999513048</ele><time>2011-05-29T14:55:12Z</time></trkpt>
<trkpt lat="46.14072095" lon="7.01298793"><ele>1305.4000243992</ele><time>2011-05-29T14:55:16Z</time></trkpt>
<trkpt lat="46.14064098" lon="7.01327593"><ele>1303.4000243352</ele><time>2011-05-29T14:55:18Z</time></trkpt>
<trkpt lat="46.14055792" lon="7.01425896"><ele>1299.5999754456</ele><time>2011-05-29T14:55:24Z</time></trkpt>
<trkpt lat="46.14048793" lon="7.01440799"><ele>1297.1999512896</ele><time>2011-05-29T14:55:25Z</time></trkpt>
<trkpt lat="46.14029598" lon="7.01516697"><ele>1290.4000245288</ele><time>2011-05-29T14:55:29Z</time></trkpt>
<trkpt lat="46.14005693" lon="7.01568095"><ele>1283.8000487016</ele><time>2011-05-29T14:55:32Z</time></trkpt>
<trkpt lat="46.13999600" lon="7.01584498"><ele>1281.8000489424</ele><time>2011-05-29T14:55:33Z</time></trkpt>
<trkpt lat="46.13998393" lon="7.01639894"><ele>1270.0000001016</ele><time>2011-05-29T14:55:38Z</time></trkpt>
<trkpt lat="46.13864995" lon="7.01667295"><ele>1276.599975624</ele><time>2011-05-29T14:55:56Z</time></trkpt>
<trkpt lat="46.13788795" lon="7.01676993"><ele>1294.400024352</ele><time>2011-05-29T14:56:07Z</time></trkpt>
<trkpt lat="46.13784294" lon="7.01697495"><ele>1284.4000243368</ele><time>2011-05-29T14:56:09Z</time></trkpt>
<trkpt lat="46.13783900" lon="7.01709992"><ele>1277.1999512592</ele><time>2011-05-29T14:56:10Z</time></trkpt>
<trkpt lat="46.13766692" lon="7.01756797"><ele>1259.4000244512</ele><time>2011-05-29T14:56:14Z</time></trkpt>
<trkpt lat="46.13748293" lon="7.01840096"><ele>1242.00000012</ele><time>2011-05-29T14:56:20Z</time></trkpt>
<trkpt lat="46.13745997" lon="7.01862694"><ele>1233.1999510704</ele><time>2011-05-29T14:56:22Z</time></trkpt>
<trkpt lat="46.13731194" lon="7.01904394"><ele>1220.0000000256</ele><time>2011-05-29T14:56:26Z</time></trkpt>
<trkpt lat="46.13727297" lon="7.01915097"><ele>1215.9999998976</ele><time>2011-05-29T14:56:27Z</time></trkpt>
<trkpt lat="46.13712997" lon="7.01936195"><ele>1207.9999999464</ele><time>2011-05-29T14:56:30Z</time></trkpt>
<trkpt lat="46.13689000" lon="7.01923094"><ele>1223.4000245184</ele><time>2011-05-29T14:56:33Z</time></trkpt>
<trkpt lat="46.13639597" lon="7.01910496"><ele>1231.8000488664</ele><time>2011-05-29T14:56:38Z</time></trkpt>
<trkpt lat="46.13628197" lon="7.01901795"><ele>1234.1999511024</ele><time>2011-05-29T14:56:39Z</time></trkpt>
<trkpt lat="46.13567797" lon="7.01879097"><ele>1229.8000488024</ele><time>2011-05-29T14:56:44Z</time></trkpt>
<trkpt lat="46.13513198" lon="7.01863792"><ele>1227.1999511832</ele><time>2011-05-29T14:56:48Z</time></trkpt>
<trkpt lat="46.13455899" lon="7.01859592"><ele>1220.8000488192</ele><time>2011-05-29T14:56:52Z</time></trkpt>
<trkpt lat="46.13431692" lon="7.01858293"><ele>1218.4000243584</ele><time>2011-05-29T14:56:54Z</time></trkpt>
<trkpt lat="46.13394292" lon="7.01847196"><ele>1220.0000000256</ele><time>2011-05-29T14:56:57Z</time></trkpt>
<trkpt lat="46.13354897" lon="7.01843994"><ele>1216.9999999296</ele><time>2011-05-29T14:57:00Z</time></trkpt>
<trkpt lat="46.13298495" lon="7.01858193"><ele>1213.19995104</ele><time>2011-05-29T14:57:04Z</time></trkpt>
<trkpt lat="46.13245698" lon="7.01876499"><ele>1211.0000000424</ele><time>2011-05-29T14:57:08Z</time></trkpt>
<trkpt lat="46.13223997" lon="7.01891192"><ele>1205.400024552</ele><time>2011-05-29T14:57:10Z</time></trkpt>
<trkpt lat="46.13194099" lon="7.01932096"><ele>1190.1999512184</ele><time>2011-05-29T14:57:14Z</time></trkpt>
<trkpt lat="46.13163496" lon="7.01946395"><ele>1185.0000001248</ele><time>2011-05-29T14:57:18Z</time></trkpt>
<trkpt lat="46.13119097" lon="7.01937695"><ele>1178.599975536</ele><time>2011-05-29T14:57:23Z</time></trkpt>
<trkpt lat="46.13089593" lon="7.01918492"><ele>1180.4000243616</ele><time>2011-05-29T14:57:26Z</time></trkpt>
<trkpt lat="46.13020099" lon="7.01885895"><ele>1170.9999999816</ele><time>2011-05-29T14:57:32Z</time></trkpt>
<trkpt lat="46.12985792" lon="7.01866097"><ele>1173.5999756808</ele><time>2011-05-29T14:57:35Z</time></trkpt>
<trkpt lat="46.12968994" lon="7.01858696"><ele>1176.1999510752</ele><time>2011-05-29T14:57:37Z</time></trkpt>
<trkpt lat="46.12951200" lon="7.01861294"><ele>1173.199951284</ele><time>2011-05-29T14:57:40Z</time></trkpt>
<trkpt lat="46.12951895" lon="7.01870598"><ele>1167.9999998856</ele><time>2011-05-29T14:57:44Z</time></trkpt>
<trkpt lat="46.12961392" lon="7.01875895"><ele>1166.0000001264</ele><time>2011-05-29T14:57:47Z</time></trkpt>
<trkpt lat="46.12971693" lon="7.01879793"><ele>1164.5999756976</ele><time>2011-05-29T14:57:49Z</time></trkpt>
<trkpt lat="46.13005598" lon="7.01902893"><ele>1156.0000001112</ele><time>2011-05-29T14:57:54Z</time></trkpt>
<trkpt lat="46.13042696" lon="7.01931794"><ele>1157.1999510768</ele><time>2011-05-29T14:57:59Z</time></trkpt>
<trkpt lat="46.13091697" lon="7.01967099"><ele>1158.8000489688</ele><time>2011-05-29T14:58:05Z</time></trkpt>
<trkpt lat="46.13106399" lon="7.01977199"><ele>1157.8000489368</ele><time>2011-05-29T14:58:07Z</time></trkpt>
<trkpt lat="46.13132299" lon="7.02002596"><ele>1152.40002438</ele><time>2011-05-29T14:58:12Z</time></trkpt>
<trkpt lat="46.13148493" lon="7.02016393"><ele>1149.5999755224</ele><time>2011-05-29T14:58:18Z</time></trkpt>
<trkpt lat="46.13171199" lon="7.02029393"><ele>1148.8000489536</ele><time>2011-05-29T14:58:26Z</time></trkpt>
<trkpt lat="46.13183697" lon="7.02030692"><ele>1148.9999998872</ele><time>2011-05-29T14:58:31Z</time></trkpt>
<trkpt lat="46.13196798" lon="7.02030399"><ele>1149.9999999192</ele><time>2011-05-29T14:58:35Z</time></trkpt>
<trkpt lat="46.13225992" lon="7.02023199"><ele>1155.400024476</ele><time>2011-05-29T14:58:40Z</time></trkpt>
<trkpt lat="46.13239193" lon="7.02019896"><ele>1157.8000489368</ele><time>2011-05-29T14:58:42Z</time></trkpt>
<trkpt lat="46.13251699" lon="7.02009000"><ele>1163.1999512688</ele><time>2011-05-29T14:58:44Z</time></trkpt>
<trkpt lat="46.13278496" lon="7.01997693"><ele>1160.1999511728</ele><time>2011-05-29T14:58:48Z</time></trkpt>
<trkpt lat="46.13286694" lon="7.01994692"><ele>1158.8000489688</ele><time>2011-05-29T14:58:49Z</time></trkpt>
<trkpt lat="46.13316793" lon="7.01983494"><ele>1155.1999513176</ele><time>2011-05-29T14:58:53Z</time></trkpt>
<trkpt lat="46.13341193" lon="7.01986997"><ele>1148.9999998872</ele><time>2011-05-29T14:58:56Z</time></trkpt>
<trkpt lat="46.13380093" lon="7.02004792"><ele>1137.5999754432</ele><time>2011-05-29T14:59:00Z</time></trkpt>
<trkpt lat="46.13450099" lon="7.02027792"><ele>1129.8000489552</ele><time>2011-05-29T14:59:06Z</time></trkpt>
<trkpt lat="46.13501597" lon="7.02046098"><ele>1128.4000245264</ele><time>2011-05-29T14:59:11Z</time></trkpt>
<trkpt lat="46.13510792" lon="7.02050398"><ele>1127.0000000976</ele><time>2011-05-29T14:59:12Z</time></trkpt>
<trkpt lat="46.13538796" lon="7.02069400"><ele>1119.5999754768</ele><time>2011-05-29T14:59:15Z</time></trkpt>
<trkpt lat="46.13561394" lon="7.02084697"><ele>1113.9999999864</ele><time>2011-05-29T14:59:19Z</time></trkpt>
<trkpt lat="46.13559399" lon="7.02090195"><ele>1110.8000489568</ele><time>2011-05-29T14:59:21Z</time></trkpt>
<trkpt lat="46.13556197" lon="7.02089692"><ele>1110.5999754936</ele><time>2011-05-29T14:59:22Z</time></trkpt>
<trkpt lat="46.13529593" lon="7.02077296"><ele>1113.5999755896</ele><time>2011-05-29T14:59:27Z</time></trkpt>
<trkpt lat="46.13484297" lon="7.02063298"><ele>1115.5999756536</ele><time>2011-05-29T14:59:33Z</time></trkpt>
<trkpt lat="46.13434592" lon="7.02058294"><ele>1110.5999754936</ele><time>2011-05-29T14:59:39Z</time></trkpt>
<trkpt lat="46.13392096" lon="7.02057598"><ele>1109.5999754616</ele><time>2011-05-29T14:59:44Z</time></trkpt>
<trkpt lat="46.13348795" lon="7.02061194"><ele>1110.40002456</ele><time>2011-05-29T14:59:49Z</time></trkpt>
<trkpt lat="46.13326499" lon="7.02064295"><ele>1111.9999999224</ele><time>2011-05-29T14:59:52Z</time></trkpt>
<trkpt lat="46.13301395" lon="7.02092492"><ele>1108.0000000992</ele><time>2011-05-29T14:59:56Z</time></trkpt>
<trkpt lat="46.13286794" lon="7.02110496"><ele>1106.0000000352</ele><time>2011-05-29T14:59:58Z</time></trkpt>
<trkpt lat="46.13269293" lon="7.02142297"><ele>1098.000000084</ele><time>2011-05-29T15:00:02Z</time></trkpt>
<trkpt lat="46.13260894" lon="7.02157695"><ele>1092.999999924</ele><time>2011-05-29T15:00:04Z</time></trkpt>
<trkpt lat="46.13235195" lon="7.02172698"><ele>1083.1999511472</ele><time>2011-05-29T15:00:08Z</time></trkpt>
<trkpt lat="46.13217099" lon="7.02158399"><ele>1085.1999512112</ele><time>2011-05-29T15:00:11Z</time></trkpt>
<trkpt lat="46.13210896" lon="7.02152699"><ele>1086.8000487984</ele><time>2011-05-29T15:00:12Z</time></trkpt>
<trkpt lat="46.13197695" lon="7.02142993"><ele>1089.1999510344</ele><time>2011-05-29T15:00:14Z</time></trkpt>
<trkpt lat="46.13183596" lon="7.02133999"><ele>1091.5999754952</ele><time>2011-05-29T15:00:16Z</time></trkpt>
<trkpt lat="46.13155492" lon="7.02126196"><ele>1090.4000245296</ele><time>2011-05-29T15:00:20Z</time></trkpt>
<trkpt lat="46.13132198" lon="7.02114495"><ele>1090.99999986</ele><time>2011-05-29T15:00:24Z</time></trkpt>
<trkpt lat="46.13113398" lon="7.02098100"><ele>1094.8000487496</ele><time>2011-05-29T15:00:28Z</time></trkpt>
<trkpt lat="46.13103792" lon="7.02088100"><ele>1097.000000052</ele><time>2011-05-29T15:00:30Z</time></trkpt>
<trkpt lat="46.13058195" lon="7.02056492"><ele>1102.8000487008</ele><time>2011-05-29T15:00:37Z</time></trkpt>
<trkpt lat="46.13021398" lon="7.02046400"><ele>1100.1999510816</ele><time>2011-05-29T15:00:42Z</time></trkpt>
<trkpt lat="46.12989999" lon="7.02045294"><ele>1095.5999756232</ele><time>2011-05-29T15:00:47Z</time></trkpt>
<trkpt lat="46.12978600" lon="7.02043793"><ele>1096.00000002</ele><time>2011-05-29T15:00:49Z</time></trkpt>
<trkpt lat="46.12959095" lon="7.02053399"><ele>1091.8000489584</ele><time>2011-05-29T15:00:53Z</time></trkpt>
<trkpt lat="46.12935400" lon="7.02076399"><ele>1082.9999999088</ele><time>2011-05-29T15:00:58Z</time></trkpt>
<trkpt lat="46.12928996" lon="7.02080900"><ele>1081.4000245464</ele><time>2011-05-29T15:00:59Z</time></trkpt>
<trkpt lat="46.12896399" lon="7.02088100"><ele>1079.8000488792</ele><time>2011-05-29T15:01:03Z</time></trkpt>
<trkpt lat="46.12860792" lon="7.02104897"><ele>1076.5999756248</ele><time>2011-05-29T15:01:07Z</time></trkpt>
<trkpt lat="46.12851497" lon="7.02121099"><ele>1073.5999755288</ele><time>2011-05-29T15:01:09Z</time></trkpt>
<trkpt lat="46.12839192" lon="7.02155499"><ele>1067.5999756416</ele><time>2011-05-29T15:01:13Z</time></trkpt>
<trkpt lat="46.12829000" lon="7.02167694"><ele>1065.5999755776</ele><time>2011-05-29T15:01:15Z</time></trkpt>
<trkpt lat="46.12806494" lon="7.02189999"><ele>1061.5999754496</ele><time>2011-05-29T15:01:19Z</time></trkpt>
<trkpt lat="46.12796998" lon="7.02213594"><ele>1057.400024388</ele><time>2011-05-29T15:01:23Z</time></trkpt>
<trkpt lat="46.12796796" lon="7.02219897"><ele>1056.400024356</ele><time>2011-05-29T15:01:25Z</time></trkpt>
<trkpt lat="46.12793896" lon="7.02229192"><ele>1054.5999755304</ele><time>2011-05-29T15:01:29Z</time></trkpt>
<trkpt lat="46.12780795" lon="7.02238496"><ele>1051.8000488976</ele><time>2011-05-29T15:01:33Z</time></trkpt>
<trkpt lat="46.12760494" lon="7.02227399"><ele>1052.4000245328</ele><time>2011-05-29T15:01:36Z</time></trkpt>
<trkpt lat="46.12751593" lon="7.02223996"><ele>1052.4000245328</ele><time>2011-05-29T15:01:37Z</time></trkpt>
<trkpt lat="46.12703498" lon="7.02212898"><ele>1045.999999944</ele><time>2011-05-29T15:01:42Z</time></trkpt>
<trkpt lat="46.12676692" lon="7.02203393"><ele>1043.1999510864</ele><time>2011-05-29T15:01:46Z</time></trkpt>
<trkpt lat="46.12665393" lon="7.02207198"><ele>1040.4000244536</ele><time>2011-05-29T15:01:48Z</time></trkpt>
<trkpt lat="46.12637297" lon="7.02207299"><ele>1037.1999511992</ele><time>2011-05-29T15:01:53Z</time></trkpt>
<trkpt lat="46.12630592" lon="7.02204893"><ele>1036.9999999608</ele><time>2011-05-29T15:01:54Z</time></trkpt>
<trkpt lat="46.12604893" lon="7.02223895"><ele>1030.4000244384</ele><time>2011-05-29T15:01:58Z</time></trkpt>
<trkpt lat="46.12576294" lon="7.02249594"><ele>1021.5999756936</ele><time>2011-05-29T15:02:03Z</time></trkpt>
<trkpt lat="46.12569194" lon="7.02253894"><ele>1018.9999999944</ele><time>2011-05-29T15:02:06Z</time></trkpt>
<trkpt lat="46.12574995" lon="7.02264396"><ele>1016.5999755336</ele><time>2011-05-29T15:02:09Z</time></trkpt>
<trkpt lat="46.12574492" lon="7.02273893"><ele>1013.5999754376</ele><time>2011-05-29T15:02:12Z</time></trkpt>
<trkpt lat="46.12553495" lon="7.02272996"><ele>1010.0000000112</ele><time>2011-05-29T15:02:16Z</time></trkpt>
<trkpt lat="46.12523194" lon="7.02257599"><ele>1008.9999999792</ele><time>2011-05-29T15:02:20Z</time></trkpt>
<trkpt lat="46.12513295" lon="7.02251698"><ele>1008.9999999792</ele><time>2011-05-29T15:02:21Z</time></trkpt>
<trkpt lat="46.12477899" lon="7.02223292"><ele>1009.5999756144</ele><time>2011-05-29T15:02:25Z</time></trkpt>
<trkpt lat="46.12444195" lon="7.02215195"><ele>1004.2000123224</ele><time>2011-05-29T15:02:31Z</time></trkpt>
<trkpt lat="46.12427196" lon="7.02211892"><ele>1001.2000122264</ele><time>2011-05-29T15:02:33Z</time></trkpt>
<trkpt lat="46.12394096" lon="7.02198599"><ele>998.5999755672</ele><time>2011-05-29T15:02:37Z</time></trkpt>
<trkpt lat="46.12389293" lon="7.02196696"><ele>998.2000121304</ele><time>2011-05-29T15:02:38Z</time></trkpt>
<trkpt lat="46.12374298" lon="7.02205095"><ele>992.59997568</ele><time>2011-05-29T15:02:42Z</time></trkpt>
<trkpt lat="46.12381699" lon="7.02223493"><ele>988.7999877504</ele><time>2011-05-29T15:02:45Z</time></trkpt>
<trkpt lat="46.12405496" lon="7.02251698"><ele>983.7999878952</ele><time>2011-05-29T15:02:49Z</time></trkpt>
<trkpt lat="46.12433793" lon="7.02266492"><ele>985.200012324</ele><time>2011-05-29T15:02:52Z</time></trkpt>
<trkpt lat="46.12471797" lon="7.02302098"><ele>984.200012292</ele><time>2011-05-29T15:02:56Z</time></trkpt>
<trkpt lat="46.12488493" lon="7.02329893"><ele>979.9999999656</ele><time>2011-05-29T15:02:58Z</time></trkpt>
<trkpt lat="46.12525198" lon="7.02381492"><ele>968.9999999184</ele><time>2011-05-29T15:03:02Z</time></trkpt>
<trkpt lat="46.12543395" lon="7.02396696"><ele>966.0000001272</ele><time>2011-05-29T15:03:05Z</time></trkpt>
<trkpt lat="46.12543697" lon="7.02403796"><ele>963.400024428</ele><time>2011-05-29T15:03:08Z</time></trkpt>
<trkpt lat="46.12535994" lon="7.02402396"><ele>963.0000000312</ele><time>2011-05-29T15:03:10Z</time></trkpt>
<trkpt lat="46.12509599" lon="7.02391198"><ele>963.5999756664</ele><time>2011-05-29T15:03:14Z</time></trkpt>
<trkpt lat="46.12491997" lon="7.02386093"><ele>962.400024396</ele><time>2011-05-29T15:03:16Z</time></trkpt>
<trkpt lat="46.12455393" lon="7.02355198"><ele>963.7999878648</ele><time>2011-05-29T15:03:20Z</time></trkpt>
<trkpt lat="46.12408597" lon="7.02332893"><ele>959.7999877368</ele><time>2011-05-29T15:03:24Z</time></trkpt>
<trkpt lat="46.12327494" lon="7.02300992"><ele>958.400024268</ele><time>2011-05-29T15:03:30Z</time></trkpt>
<trkpt lat="46.12316094" lon="7.02296499"><ele>959.2000121016</ele><time>2011-05-29T15:03:31Z</time></trkpt>
<trkpt lat="46.12265199" lon="7.02257498"><ele>958.7999877048</ele><time>2011-05-29T15:03:36Z</time></trkpt>
<trkpt lat="46.12253892" lon="7.02245898"><ele>957.4000245408</ele><time>2011-05-29T15:03:38Z</time></trkpt>
<trkpt lat="46.12254596" lon="7.02252192"><ele>956.7999876408</ele><time>2011-05-29T15:03:41Z</time></trkpt>
<trkpt lat="46.12259097" lon="7.02254992"><ele>957.7999876728</ele><time>2011-05-29T15:03:42Z</time></trkpt>
<trkpt lat="46.12282994" lon="7.02285594"><ele>958.9999999032</ele><time>2011-05-29T15:03:47Z</time></trkpt>
<trkpt lat="46.12312398" lon="7.02318292"><ele>954.2000122464</ele><time>2011-05-29T15:03:51Z</time></trkpt>
<trkpt lat="46.12328692" lon="7.02333597"><ele>949.4000242848</ele><time>2011-05-29T15:03:54Z</time></trkpt>
<trkpt lat="46.12339597" lon="7.02348794"><ele>948.7999876896</ele><time>2011-05-29T15:03:58Z</time></trkpt>
<trkpt lat="46.12348096" lon="7.02355893"><ele>948.999999888</ele><time>2011-05-29T15:04:02Z</time></trkpt>
<trkpt lat="46.12352296" lon="7.02364200"><ele>948.4000245576</ele><time>2011-05-29T15:04:04Z</time></trkpt>
<trkpt lat="46.12368297" lon="7.02406897"><ele>943.0000000008</ele><time>2011-05-29T15:04:09Z</time></trkpt>
<trkpt lat="46.12372798" lon="7.02417199"><ele>941.2000121352</ele><time>2011-05-29T15:04:10Z</time></trkpt>
<trkpt lat="46.12392093" lon="7.02444993"><ele>938.4000245424</ele><time>2011-05-29T15:04:13Z</time></trkpt>
<trkpt lat="46.12426098" lon="7.02473793"><ele>932.7999877872</ele><time>2011-05-29T15:04:17Z</time></trkpt>
<trkpt lat="46.12445000" lon="7.02485293"><ele>930.9999999216</ele><time>2011-05-29T15:04:19Z</time></trkpt>
<trkpt lat="46.12502298" lon="7.02532299"><ele>923.4000243672</ele><time>2011-05-29T15:04:25Z</time></trkpt>
<trkpt lat="46.12546798" lon="7.02570696"><ele>921.79998774</ele><time>2011-05-29T15:04:29Z</time></trkpt>
<trkpt lat="46.12582195" lon="7.02596999"><ele>916.7999878848</ele><time>2011-05-29T15:04:33Z</time></trkpt>
<trkpt lat="46.12625496" lon="7.02648195"><ele>912.5999755584</ele><time>2011-05-29T15:04:39Z</time></trkpt>
<trkpt lat="46.12658395" lon="7.02682695"><ele>906.000000036</ele><time>2011-05-29T15:04:43Z</time></trkpt>
<trkpt lat="46.12679693" lon="7.02700197"><ele>902.99999994</ele><time>2011-05-29T15:04:46Z</time></trkpt>
<trkpt lat="46.12716498" lon="7.02716692"><ele>897.4000244496</ele><time>2011-05-29T15:04:52Z</time></trkpt>
<trkpt lat="46.12731099" lon="7.02724697"><ele>893.9999999568</ele><time>2011-05-29T15:04:54Z</time></trkpt>
<trkpt lat="46.12756094" lon="7.02746700"><ele>885.7999878072</ele><time>2011-05-29T15:04:57Z</time></trkpt>
<trkpt lat="46.12779194" lon="7.02783496"><ele>884.5999755768</ele><time>2011-05-29T15:05:01Z</time></trkpt>
<trkpt lat="46.12791499" lon="7.02797494"><ele>883.200012108</ele><time>2011-05-29T15:05:03Z</time></trkpt>
<trkpt lat="46.12816997" lon="7.02815892"><ele>878.799987888</ele><time>2011-05-29T15:05:07Z</time></trkpt>
<trkpt lat="46.12848798" lon="7.02855497"><ele>870.2000123016</ele><time>2011-05-29T15:05:12Z</time></trkpt>
<trkpt lat="46.12860600" lon="7.02870400"><ele>867.5999756424</ele><time>2011-05-29T15:05:14Z</time></trkpt>
<trkpt lat="46.12874396" lon="7.02895998"><ele>861.7999876488</ele><time>2011-05-29T15:05:17Z</time></trkpt>
<trkpt lat="46.12885896" lon="7.02911697"><ele>857.2000121904</ele><time>2011-05-29T15:05:21Z</time></trkpt>
<trkpt lat="46.12891495" lon="7.02916492"><ele>855.2000121264</ele><time>2011-05-29T15:05:24Z</time></trkpt>
<trkpt lat="46.12904496" lon="7.02927095"><ele>851.5999754352</ele><time>2011-05-29T15:05:28Z</time></trkpt>
<trkpt lat="46.12920798" lon="7.02942995"><ele>845.2000121112</ele><time>2011-05-29T15:05:32Z</time></trkpt>
<trkpt lat="46.12913498" lon="7.02944194"><ele>846.4000243416</ele><time>2011-05-29T15:05:35Z</time></trkpt>
<trkpt lat="46.12896499" lon="7.02939198"><ele>851.0000001048</ele><time>2011-05-29T15:05:38Z</time></trkpt>
<trkpt lat="46.12874698" lon="7.02938796"><ele>855.4000243248</ele><time>2011-05-29T15:05:42Z</time></trkpt>
<trkpt lat="46.12880699" lon="7.02944999"><ele>853.5999754992</ele><time>2011-05-29T15:05:44Z</time></trkpt>
<trkpt lat="46.12887899" lon="7.02943599"><ele>852.2000123352</ele><time>2011-05-29T15:05:46Z</time></trkpt>
<trkpt lat="46.12892493" lon="7.02949592"><ele>850.2000122712</ele><time>2011-05-29T15:05:47Z</time></trkpt>
<trkpt lat="46.12927998" lon="7.02972592"><ele>836.7999877632</ele><time>2011-05-29T15:05:52Z</time></trkpt>
<trkpt lat="46.12944092" lon="7.02973992"><ele>833.0000001384</ele><time>2011-05-29T15:05:54Z</time></trkpt>
<trkpt lat="46.12956497" lon="7.02974696"><ele>830.2000122408</ele><time>2011-05-29T15:05:56Z</time></trkpt>
<trkpt lat="46.12955499" lon="7.02981493"><ele>828.4000243752</ele><time>2011-05-29T15:05:59Z</time></trkpt>
<trkpt lat="46.12939096" lon="7.02990194"><ele>829.799987844</ele><time>2011-05-29T15:06:02Z</time></trkpt>
<trkpt lat="46.12937193" lon="7.03003898"><ele>827.79998778</ele><time>2011-05-29T15:06:05Z</time></trkpt>
<trkpt lat="46.12938593" lon="7.03001996"><ele>827.4000243432</ele><time>2011-05-29T15:06:07Z</time></trkpt>
<trkpt lat="46.12945097" lon="7.02994796"><ele>827.2000121448</ele><time>2011-05-29T15:06:09Z</time></trkpt>
<trkpt lat="46.12977695" lon="7.02992792"><ele>819.7999878288</ele><time>2011-05-29T15:06:13Z</time></trkpt>
<trkpt lat="46.12986194" lon="7.02996296"><ele>816.5999755344</ele><time>2011-05-29T15:06:14Z</time></trkpt>
<trkpt lat="46.13002799" lon="7.03004795"><ele>810.5999756472</ele><time>2011-05-29T15:06:16Z</time></trkpt>
<trkpt lat="46.12994400" lon="7.03015096"><ele>810.000000012</ele><time>2011-05-29T15:06:19Z</time></trkpt>
<trkpt lat="46.12973194" lon="7.03014493"><ele>816.7999877328</ele><time>2011-05-29T15:06:23Z</time></trkpt>
<trkpt lat="46.12970394" lon="7.03027996"><ele>816.2000120976</ele><time>2011-05-29T15:06:26Z</time></trkpt>
<trkpt lat="46.12987895" lon="7.03025197"><ele>810.2000122104</ele><time>2011-05-29T15:06:31Z</time></trkpt>
<trkpt lat="46.13001198" lon="7.03030695"><ele>804.4000245216</ele><time>2011-05-29T15:06:33Z</time></trkpt>
<trkpt lat="46.13011692" lon="7.03036697"><ele>802.0000000608</ele><time>2011-05-29T15:06:36Z</time></trkpt>
<trkpt lat="46.12998792" lon="7.03036194"><ele>803.7999879264</ele><time>2011-05-29T15:06:39Z</time></trkpt>
<trkpt lat="46.12994693" lon="7.03042698"><ele>804.0000001248</ele><time>2011-05-29T15:06:41Z</time></trkpt>
<trkpt lat="46.13002899" lon="7.03048096"><ele>799.9999999968</ele><time>2011-05-29T15:06:46Z</time></trkpt>
<trkpt lat="46.13011197" lon="7.03054793"><ele>797.4000242976</ele><time>2011-05-29T15:06:49Z</time></trkpt>
<trkpt lat="46.13020199" lon="7.03059697"><ele>795.0000001416</ele><time>2011-05-29T15:06:52Z</time></trkpt>
<trkpt lat="46.13025094" lon="7.03053997"><ele>795.7999876704</ele><time>2011-05-29T15:06:55Z</time></trkpt>
<trkpt lat="46.13040098" lon="7.03063393"><ele>791.200012212</ele><time>2011-05-29T15:06:59Z</time></trkpt>
<trkpt lat="46.13048295" lon="7.03078095"><ele>785.4000245232</ele><time>2011-05-29T15:07:01Z</time></trkpt>
<trkpt lat="46.13070600" lon="7.03104598"><ele>772.2000122136</ele><time>2011-05-29T15:07:05Z</time></trkpt>
<trkpt lat="46.13074497" lon="7.03108798"><ele>769.5999755544</ele><time>2011-05-29T15:07:06Z</time></trkpt>
<trkpt lat="46.13072695" lon="7.03118596"><ele>766.4000245248</ele><time>2011-05-29T15:07:09Z</time></trkpt>
<trkpt lat="46.13058496" lon="7.03114699"><ele>772.5999756504</ele><time>2011-05-29T15:07:12Z</time></trkpt>
<trkpt lat="46.13048396" lon="7.03117599"><ele>775.2000123096</ele><time>2011-05-29T15:07:15Z</time></trkpt>
<trkpt lat="46.13047097" lon="7.03128194"><ele>773.0000000472</ele><time>2011-05-29T15:07:17Z</time></trkpt>
<trkpt lat="46.13047298" lon="7.03146399"><ele>768.400024284</ele><time>2011-05-29T15:07:21Z</time></trkpt>
<trkpt lat="46.13068697" lon="7.03133499"><ele>762.4000243968</ele><time>2011-05-29T15:07:25Z</time></trkpt>
<trkpt lat="46.13099400" lon="7.03136793"><ele>751.4000243496</ele><time>2011-05-29T15:07:29Z</time></trkpt>
<trkpt lat="46.13108997" lon="7.03149299"><ele>743.5999756368</ele><time>2011-05-29T15:07:33Z</time></trkpt>
<trkpt lat="46.13097900" lon="7.03152493"><ele>744.5999756688</ele><time>2011-05-29T15:07:36Z</time></trkpt>
<trkpt lat="46.13080298" lon="7.03160799"><ele>746.200012296</ele><time>2011-05-29T15:07:39Z</time></trkpt>
<trkpt lat="46.13073793" lon="7.03184595"><ele>746.5999757328</ele><time>2011-05-29T15:07:44Z</time></trkpt>
<trkpt lat="46.13118494" lon="7.03163397"><ele>734.5999756536</ele><time>2011-05-29T15:07:50Z</time></trkpt>
<trkpt lat="46.13136096" lon="7.03163498"><ele>730.2000120888</ele><time>2011-05-29T15:07:52Z</time></trkpt>
<trkpt lat="46.13158392" lon="7.03160699"><ele>726.2000122656</ele><time>2011-05-29T15:07:55Z</time></trkpt>
<trkpt lat="46.13159892" lon="7.03168192"><ele>721.9999999392</ele><time>2011-05-29T15:07:58Z</time></trkpt>
<trkpt lat="46.13147998" lon="7.03173992"><ele>723.2000121696</ele><time>2011-05-29T15:08:00Z</time></trkpt>
<trkpt lat="46.13124797" lon="7.03207897"><ele>722.400024336</ele><time>2011-05-29T15:08:06Z</time></trkpt>
<trkpt lat="46.13128594" lon="7.03229296"><ele>715.5999756552</ele><time>2011-05-29T15:08:08Z</time></trkpt>
<trkpt lat="46.13135098" lon="7.03262698"><ele>707.2000122672</ele><time>2011-05-29T15:08:11Z</time></trkpt>
<trkpt lat="46.13139692" lon="7.03273796"><ele>704.599975608</ele><time>2011-05-29T15:08:12Z</time></trkpt>
<trkpt lat="46.13158392" lon="7.03288196"><ele>692.7999877272</ele><time>2011-05-29T15:08:16Z</time></trkpt>
<trkpt lat="46.13152499" lon="7.03272597"><ele>696.5999756568</ele><time>2011-05-29T15:08:18Z</time></trkpt>
<trkpt lat="46.13149599" lon="7.03264399"><ele>698.200012284</ele><time>2011-05-29T15:08:19Z</time></trkpt>
<trkpt lat="46.13146699" lon="7.03245398"><ele>701.4000242736</ele><time>2011-05-29T15:08:21Z</time></trkpt>
<trkpt lat="46.13147294" lon="7.03214100"><ele>710.7999876936</ele><time>2011-05-29T15:08:24Z</time></trkpt>
<trkpt lat="46.13165692" lon="7.03189298"><ele>712.2000121224</ele><time>2011-05-29T15:08:28Z</time></trkpt>
<trkpt lat="46.13177092" lon="7.03192592"><ele>705.59997564</ele><time>2011-05-29T15:08:32Z</time></trkpt>
<trkpt lat="46.13166899" lon="7.03210093"><ele>703.599975576</ele><time>2011-05-29T15:08:35Z</time></trkpt>
<trkpt lat="46.13163094" lon="7.03217494"><ele>702.4000243056</ele><time>2011-05-29T15:08:36Z</time></trkpt>
<trkpt lat="46.13158895" lon="7.03231299"><ele>699.4000245144</ele><time>2011-05-29T15:08:38Z</time></trkpt>
<trkpt lat="46.13165994" lon="7.03242095"><ele>691.4000245632</ele><time>2011-05-29T15:08:42Z</time></trkpt>
<trkpt lat="46.13168995" lon="7.03236999"><ele>691.5999754968</ele><time>2011-05-29T15:08:43Z</time></trkpt>
<trkpt lat="46.13178894" lon="7.03215198"><ele>694.9999999896</ele><time>2011-05-29T15:08:46Z</time></trkpt>
<trkpt lat="46.13191400" lon="7.03201099"><ele>694.7999877912</ele><time>2011-05-29T15:08:50Z</time></trkpt>
<trkpt lat="46.13193797" lon="7.03209498"><ele>689.5999757376</ele><time>2011-05-29T15:08:52Z</time></trkpt>
<trkpt lat="46.13188399" lon="7.03222699"><ele>686.5999756416</ele><time>2011-05-29T15:08:55Z</time></trkpt>
<trkpt lat="46.13181693" lon="7.03245892"><ele>680.2000123176</ele><time>2011-05-29T15:08:58Z</time></trkpt>
<trkpt lat="46.13183496" lon="7.03263897"><ele>676.2000121896</ele><time>2011-05-29T15:09:01Z</time></trkpt>
<trkpt lat="46.13187896" lon="7.03258499"><ele>673.5999755304</ele><time>2011-05-29T15:09:03Z</time></trkpt>
<trkpt lat="46.13186999" lon="7.03251894"><ele>674.7999877608</ele><time>2011-05-29T15:09:04Z</time></trkpt>
<trkpt lat="46.13190796" lon="7.03225197"><ele>683.9999999424</ele><time>2011-05-29T15:09:08Z</time></trkpt>
<trkpt lat="46.13199195" lon="7.03221895"><ele>680.799987648</ele><time>2011-05-29T15:09:11Z</time></trkpt>
<trkpt lat="46.13198994" lon="7.03228198"><ele>677.7999878568</ele><time>2011-05-29T15:09:14Z</time></trkpt>
<trkpt lat="46.13196597" lon="7.03236999"><ele>674.9999999592</ele><time>2011-05-29T15:09:16Z</time></trkpt>
<trkpt lat="46.13193093" lon="7.03279395"><ele>667.7999878416</ele><time>2011-05-29T15:09:21Z</time></trkpt>
<trkpt lat="46.13190092" lon="7.03300400"><ele>668.00000004</ele><time>2011-05-29T15:09:24Z</time></trkpt>
<trkpt lat="46.13189698" lon="7.03291993"><ele>669.2000122704</ele><time>2011-05-29T15:09:26Z</time></trkpt>
<trkpt lat="46.13195700" lon="7.03274198"><ele>666.5999756112</ele><time>2011-05-29T15:09:29Z</time></trkpt>
<trkpt lat="46.13195398" lon="7.03270292"><ele>667.2000122064</ele><time>2011-05-29T15:09:31Z</time></trkpt>
<trkpt lat="46.13216193" lon="7.03244895"><ele>659.2000122552</ele><time>2011-05-29T15:09:38Z</time></trkpt>
<trkpt lat="46.13228892" lon="7.03232598"><ele>658.2000122232</ele><time>2011-05-29T15:09:42Z</time></trkpt>
<trkpt lat="46.13233393" lon="7.03244995"><ele>648.4000244064</ele><time>2011-05-29T15:09:46Z</time></trkpt>
<trkpt lat="46.13231197" lon="7.03270996"><ele>641.5999757256</ele><time>2011-05-29T15:09:50Z</time></trkpt>
<trkpt lat="46.13231993" lon="7.03287299"><ele>636.799987764</ele><time>2011-05-29T15:09:52Z</time></trkpt>
<trkpt lat="46.13225497" lon="7.03323198"><ele>633.400024536</ele><time>2011-05-29T15:09:56Z</time></trkpt>
<trkpt lat="46.13223595" lon="7.03312696"><ele>637.5999755976</ele><time>2011-05-29T15:09:59Z</time></trkpt>
<trkpt lat="46.13225598" lon="7.03293795"><ele>640.2000122568</ele><time>2011-05-29T15:10:01Z</time></trkpt>
<trkpt lat="46.13227895" lon="7.03276696"><ele>642.5999754528</ele><time>2011-05-29T15:10:03Z</time></trkpt>
<trkpt lat="46.13243896" lon="7.03246797"><ele>640.799987892</ele><time>2011-05-29T15:10:07Z</time></trkpt>
<trkpt lat="46.13248598" lon="7.03241592"><ele>641.0000000904</ele><time>2011-05-29T15:10:08Z</time></trkpt>
<trkpt lat="46.13249595" lon="7.03259697"><ele>632.0000001072</ele><time>2011-05-29T15:10:12Z</time></trkpt>
<trkpt lat="46.13249897" lon="7.03264592"><ele>630.2000122416</ele><time>2011-05-29T15:10:13Z</time></trkpt>
<trkpt lat="46.13244499" lon="7.03296293"><ele>624.4000245528</ele><time>2011-05-29T15:10:17Z</time></trkpt>
<trkpt lat="46.13238296" lon="7.03311196"><ele>625.2000120816</ele><time>2011-05-29T15:10:21Z</time></trkpt>
<trkpt lat="46.13248698" lon="7.03291398"><ele>622.5999757272</ele><time>2011-05-29T15:10:24Z</time></trkpt>
<trkpt lat="46.13253099" lon="7.03285195"><ele>622.4000244888</ele><time>2011-05-29T15:10:25Z</time></trkpt>
<trkpt lat="46.13265194" lon="7.03271398"><ele>622.5999757272</ele><time>2011-05-29T15:10:28Z</time></trkpt>
<trkpt lat="46.13263794" lon="7.03286293"><ele>617.7999877656</ele><time>2011-05-29T15:10:32Z</time></trkpt>
<trkpt lat="46.13253099" lon="7.03325395"><ele>608.9999999808</ele><time>2011-05-29T15:10:37Z</time></trkpt>
<trkpt lat="46.13250693" lon="7.03332695"><ele>607.7999877504</ele><time>2011-05-29T15:10:38Z</time></trkpt>
<trkpt lat="46.13246393" lon="7.03345000"><ele>613.2000123072</ele><time>2011-05-29T15:10:40Z</time></trkpt>
<trkpt lat="46.13246896" lon="7.03337800"><ele>611.59997568</ele><time>2011-05-29T15:10:44Z</time></trkpt>
<trkpt lat="46.13264892" lon="7.03301397"><ele>612.0000000768</ele><time>2011-05-29T15:10:49Z</time></trkpt>
<trkpt lat="46.13290792" lon="7.03292496"><ele>604.7999876544</ele><time>2011-05-29T15:10:53Z</time></trkpt>
<trkpt lat="46.13313499" lon="7.03295094"><ele>594.5999754408</ele><time>2011-05-29T15:10:56Z</time></trkpt>
<trkpt lat="46.13315796" lon="7.03305496"><ele>588.799987752</ele><time>2011-05-29T15:10:58Z</time></trkpt>
<trkpt lat="46.13308093" lon="7.03306795"><ele>591.4000244112</ele><time>2011-05-29T15:11:00Z</time></trkpt>
<trkpt lat="46.13285294" lon="7.03312797"><ele>598.7999877672</ele><time>2011-05-29T15:11:04Z</time></trkpt>
<trkpt lat="46.13274992" lon="7.03342393"><ele>595.2000123408</ele><time>2011-05-29T15:11:08Z</time></trkpt>
<trkpt lat="46.13273098" lon="7.03354295"><ele>595.9999998696</ele><time>2011-05-29T15:11:09Z</time></trkpt>
<trkpt lat="46.13275697" lon="7.03407093"><ele>592.0000000464</ele><time>2011-05-29T15:11:15Z</time></trkpt>
<trkpt lat="46.13271698" lon="7.03387697"><ele>596.5999755048</ele><time>2011-05-29T15:11:18Z</time></trkpt>
<trkpt lat="46.13274800" lon="7.03360800"><ele>594.799987944</ele><time>2011-05-29T15:11:21Z</time></trkpt>
<trkpt lat="46.13289493" lon="7.03341396"><ele>587.2000120848</ele><time>2011-05-29T15:11:24Z</time></trkpt>
<trkpt lat="46.13295696" lon="7.03337397"><ele>584.5999757304</ele><time>2011-05-29T15:11:25Z</time></trkpt>
<trkpt lat="46.13315293" lon="7.03336098"><ele>574.7999879136</ele><time>2011-05-29T15:11:29Z</time></trkpt>
<trkpt lat="46.13308294" lon="7.03352896"><ele>573.2000122464</ele><time>2011-05-29T15:11:32Z</time></trkpt>
<trkpt lat="46.13301898" lon="7.03369299"><ele>573.000000048</ele><time>2011-05-29T15:11:34Z</time></trkpt>
<trkpt lat="46.13299493" lon="7.03387295"><ele>570.5999755872</ele><time>2011-05-29T15:11:39Z</time></trkpt>
<trkpt lat="46.13317799" lon="7.03351295"><ele>567.5999754912</ele><time>2011-05-29T15:11:44Z</time></trkpt>
<trkpt lat="46.13332895" lon="7.03352896"><ele>557.0000001456</ele><time>2011-05-29T15:11:47Z</time></trkpt>
<trkpt lat="46.13330095" lon="7.03365100"><ele>553.0000000176</ele><time>2011-05-29T15:11:50Z</time></trkpt>
<trkpt lat="46.13312594" lon="7.03393196"><ele>556.4000245104</ele><time>2011-05-29T15:11:54Z</time></trkpt>
<trkpt lat="46.13305494" lon="7.03404495"><ele>560.2000121352</ele><time>2011-05-29T15:11:57Z</time></trkpt>
<trkpt lat="46.13304899" lon="7.03404595"><ele>560.7999877704</ele><time>2011-05-29T15:11:58Z</time></trkpt>
<trkpt lat="46.13313792" lon="7.03384898"><ele>558.2000120712</ele><time>2011-05-29T15:12:02Z</time></trkpt>
<trkpt lat="46.13334395" lon="7.03368092"><ele>548.200012056</ele><time>2011-05-29T15:12:05Z</time></trkpt>
<trkpt lat="46.13343598" lon="7.03364396"><ele>544.0000000344</ele><time>2011-05-29T15:12:06Z</time></trkpt>
<trkpt lat="46.13396497" lon="7.03336400"><ele>520.2000120744</ele><time>2011-05-29T15:12:11Z</time></trkpt>
<trkpt lat="46.13405792" lon="7.03327892"><ele>518.2000123152</ele><time>2011-05-29T15:12:12Z</time></trkpt>
<trkpt lat="46.13434299" lon="7.03308396"><ele>516.4000244496</ele><time>2011-05-29T15:12:16Z</time></trkpt>
<trkpt lat="46.13424894" lon="7.03321899"><ele>511.3999938096</ele><time>2011-05-29T15:12:20Z</time></trkpt>
<trkpt lat="46.13413998" lon="7.03329896"><ele>510.9999998928</ele><time>2011-05-29T15:12:22Z</time></trkpt>
<trkpt lat="46.13380395" lon="7.03368595"><ele>517.2000122832</ele><time>2011-05-29T15:12:27Z</time></trkpt>
<trkpt lat="46.13365894" lon="7.03394797"><ele>514.599975624</ele><time>2011-05-29T15:12:30Z</time></trkpt>
<trkpt lat="46.13356599" lon="7.03407194"><ele>514.599975624</ele><time>2011-05-29T15:12:32Z</time></trkpt>
<trkpt lat="46.13344495" lon="7.03413094"><ele>519.0000001488</ele><time>2011-05-29T15:12:36Z</time></trkpt>
<trkpt lat="46.13357093" lon="7.03397797"><ele>518.7999876456</ele><time>2011-05-29T15:12:39Z</time></trkpt>
<trkpt lat="46.13367797" lon="7.03389198"><ele>516.0000000528</ele><time>2011-05-29T15:12:40Z</time></trkpt>
<trkpt lat="46.13404593" lon="7.03359492"><ele>504.7999878072</ele><time>2011-05-29T15:12:43Z</time></trkpt>
<trkpt lat="46.13435498" lon="7.03347498"><ele>494.9999999904</ele><time>2011-05-29T15:12:46Z</time></trkpt>
<trkpt lat="46.13444592" lon="7.03352694"><ele>490.3999937472</ele><time>2011-05-29T15:12:49Z</time></trkpt>
<trkpt lat="46.13435095" lon="7.03360800"><ele>490.3999937472</ele><time>2011-05-29T15:12:52Z</time></trkpt>
<trkpt lat="46.13412598" lon="7.03374395"><ele>493.3999938432</ele><time>2011-05-29T15:12:56Z</time></trkpt>
<trkpt lat="46.13405298" lon="7.03386499"><ele>493.2000121248</ele><time>2011-05-29T15:12:58Z</time></trkpt>
<trkpt lat="46.13399095" lon="7.03398099"><ele>492.2000120928</ele><time>2011-05-29T15:13:01Z</time></trkpt>
<trkpt lat="46.13399296" lon="7.03403397"><ele>490.0000001352</ele><time>2011-05-29T15:13:04Z</time></trkpt>
<trkpt lat="46.13392498" lon="7.03414000"><ele>489.6000062184</ele><time>2011-05-29T15:13:08Z</time></trkpt>
<trkpt lat="46.13390394" lon="7.03419800"><ele>488.6000061864</ele><time>2011-05-29T15:13:09Z</time></trkpt>
<trkpt lat="46.13389699" lon="7.03464794"><ele>473.2000120944</ele><time>2011-05-29T15:13:14Z</time></trkpt>
<trkpt lat="46.13401400" lon="7.03510894"><ele>458.200012224</ele><time>2011-05-29T15:13:18Z</time></trkpt>
<trkpt lat="46.13419999" lon="7.03535596"><ele>454.9999999296</ele><time>2011-05-29T15:13:21Z</time></trkpt>
<trkpt lat="46.13453393" lon="7.03567397"><ele>454.7999877312</ele><time>2011-05-29T15:13:26Z</time></trkpt>
<trkpt lat="46.13477600" lon="7.03585292"><ele>454.6000060128</ele><time>2011-05-29T15:13:30Z</time></trkpt>
<trkpt lat="46.13484398" lon="7.03584094"><ele>454.6000060128</ele><time>2011-05-29T15:13:31Z</time></trkpt>
<trkpt lat="46.13505595" lon="7.03576500"><ele>454.7999877312</ele><time>2011-05-29T15:13:34Z</time></trkpt>
<trkpt lat="46.13561193" lon="7.03546794"><ele>453.7999876992</ele><time>2011-05-29T15:13:42Z</time></trkpt>
<trkpt lat="46.13612699" lon="7.03513996"><ele>453.7999876992</ele><time>2011-05-29T15:13:50Z</time></trkpt>
<trkpt lat="46.13669897" lon="7.03478498"><ele>454.200012096</ele><time>2011-05-29T15:13:59Z</time></trkpt>
<trkpt lat="46.13732896" lon="7.03439296"><ele>453.6000059808</ele><time>2011-05-29T15:14:09Z</time></trkpt>
<trkpt lat="46.13769298" lon="7.03417595"><ele>452.6000062536</ele><time>2011-05-29T15:14:15Z</time></trkpt>
<trkpt lat="46.13800194" lon="7.03398594"><ele>454.200012096</ele><time>2011-05-29T15:14:21Z</time></trkpt>
<trkpt lat="46.13833093" lon="7.03381092"><ele>455.3999938464</ele><time>2011-05-29T15:14:29Z</time></trkpt>
<trkpt lat="46.13836999" lon="7.03360800"><ele>457.200012192</ele><time>2011-05-29T15:14:33Z</time></trkpt>
<trkpt lat="46.13836396" lon="7.03354094"><ele>457.7999878272</ele><time>2011-05-29T15:14:34Z</time></trkpt>
<trkpt lat="46.13830696" lon="7.03312294"><ele>463.600005996</ele><time>2011-05-29T15:14:40Z</time></trkpt>
<trkpt lat="46.13829497" lon="7.03300995"><ele>465.3999938616</ele><time>2011-05-29T15:14:42Z</time></trkpt>
<trkpt lat="46.13842900" lon="7.03292093"><ele>466.7999878104</ele><time>2011-05-29T15:14:46Z</time></trkpt>
<trkpt lat="46.13858700" lon="7.03288296"><ele>467.3999939256</ele><time>2011-05-29T15:14:49Z</time></trkpt>
<trkpt lat="46.13868096" lon="7.03281499"><ele>468.600006156</ele><time>2011-05-29T15:14:51Z</time></trkpt>
<trkpt lat="46.13887793" lon="7.03280099"><ele>468.7999878744</ele><time>2011-05-29T15:14:55Z</time></trkpt>
<trkpt lat="46.13918195" lon="7.03283493"><ele>468.0000000408</ele><time>2011-05-29T15:15:01Z</time></trkpt>
<trkpt lat="46.13942695" lon="7.03278892"><ele>467.2000122072</ele><time>2011-05-29T15:15:06Z</time></trkpt>
<trkpt lat="46.13951094" lon="7.03274994"><ele>467.3999939256</ele><time>2011-05-29T15:15:08Z</time></trkpt>
<trkpt lat="46.13981394" lon="7.03272195"><ele>465.9999999768</ele><time>2011-05-29T15:15:14Z</time></trkpt>
<trkpt lat="46.14003992" lon="7.03260393"><ele>466.2000121752</ele><time>2011-05-29T15:15:19Z</time></trkpt>
<trkpt lat="46.14019599" lon="7.03243897"><ele>466.7999878104</ele><time>2011-05-29T15:15:24Z</time></trkpt>
<trkpt lat="46.14028894" lon="7.03232397"><ele>468.2000122392</ele><time>2011-05-29T15:15:28Z</time></trkpt>
<trkpt lat="46.14037000" lon="7.03218693"><ele>469.7999879064</ele><time>2011-05-29T15:15:32Z</time></trkpt>
<trkpt lat="46.14039397" lon="7.03215994"><ele>470.0000001048</ele><time>2011-05-29T15:15:33Z</time></trkpt>
<trkpt lat="46.14053193" lon="7.03202097"><ele>470.0000001048</ele><time>2011-05-29T15:15:38Z</time></trkpt>
<trkpt lat="46.14063595" lon="7.03191896"><ele>469.3999939896</ele><time>2011-05-29T15:15:42Z</time></trkpt>
<trkpt lat="46.14088196" lon="7.03170497"><ele>467.600006124</ele><time>2011-05-29T15:15:47Z</time></trkpt>
<trkpt lat="46.14094499" lon="7.03164496"><ele>468.0000000408</ele><time>2011-05-29T15:15:48Z</time></trkpt>
<trkpt lat="46.14127197" lon="7.03139794"><ele>469.600006188</ele><time>2011-05-29T15:15:53Z</time></trkpt>
<trkpt lat="46.14137197" lon="7.03129199"><ele>470.2000123032</ele><time>2011-05-29T15:15:55Z</time></trkpt>
<trkpt lat="46.14156593" lon="7.03108295"><ele>470.60000622</ele><time>2011-05-29T15:16:00Z</time></trkpt>
<trkpt lat="46.14170993" lon="7.03098798"><ele>469.3999939896</ele><time>2011-05-29T15:16:04Z</time></trkpt>
<trkpt lat="46.14201394" lon="7.03086192"><ele>466.2000121752</ele><time>2011-05-29T15:16:11Z</time></trkpt>
<trkpt lat="46.14220999" lon="7.03082194"><ele>463.3999937976</ele><time>2011-05-29T15:16:16Z</time></trkpt>
<trkpt lat="46.14227495" lon="7.03076796"><ele>463.2000120792</ele><time>2011-05-29T15:16:18Z</time></trkpt>
<trkpt lat="46.14245399" lon="7.03061700"><ele>462.600005964</ele><time>2011-05-29T15:16:24Z</time></trkpt>
<trkpt lat="46.14249397" lon="7.03050694"><ele>463.600005996</ele><time>2011-05-29T15:16:28Z</time></trkpt>
<trkpt lat="46.14258793" lon="7.03038096"><ele>464.3999938296</ele><time>2011-05-29T15:16:33Z</time></trkpt>
<trkpt lat="46.14266597" lon="7.03032397"><ele>464.3999938296</ele><time>2011-05-29T15:16:39Z</time></trkpt>
<trkpt lat="46.14273797" lon="7.03024099"><ele>464.7999877464</ele><time>2011-05-29T15:16:42Z</time></trkpt>
<trkpt lat="46.14291499" lon="7.03009095"><ele>464.2000121112</ele><time>2011-05-29T15:16:46Z</time></trkpt>
<trkpt lat="46.14301600" lon="7.03001895"><ele>463.600005996</ele><time>2011-05-29T15:16:48Z</time></trkpt>
<trkpt lat="46.14322697" lon="7.02987093"><ele>479.3999940048</ele><time>2011-05-29T15:16:53Z</time></trkpt>
<trkpt lat="46.14331297" lon="7.02981795"><ele>485.6000060904</ele><time>2011-05-29T15:16:55Z</time></trkpt>
<trkpt lat="46.14353199" lon="7.02961394"><ele>501.200012076</ele><time>2011-05-29T15:17:02Z</time></trkpt>
<trkpt lat="46.14359996" lon="7.02950698"><ele>507.3999939864</ele><time>2011-05-29T15:17:07Z</time></trkpt>
<trkpt lat="46.14365998" lon="7.02945493"><ele>507.0000000696</ele><time>2011-05-29T15:17:12Z</time></trkpt>
<trkpt lat="46.14373692" lon="7.02944797"><ele>500.2000123488</ele><time>2011-05-29T15:17:15Z</time></trkpt>
<trkpt lat="46.14377397" lon="7.02940992"><ele>499.3999940352</ele><time>2011-05-29T15:17:19Z</time></trkpt>
<trkpt lat="46.14379996" lon="7.02929995"><ele>504.200012172</ele><time>2011-05-29T15:17:25Z</time></trkpt>
<trkpt lat="46.14385595" lon="7.02921898"><ele>502.200012108</ele><time>2011-05-29T15:17:32Z</time></trkpt>
<trkpt lat="46.14392895" lon="7.02917095"><ele>494.6000060736</ele><time>2011-05-29T15:17:37Z</time></trkpt>
<trkpt lat="46.14395795" lon="7.02914195"><ele>494.799987792</ele><time>2011-05-29T15:17:40Z</time></trkpt>
<trkpt lat="46.14398193" lon="7.02916400"><ele>487.7999878728</ele><time>2011-05-29T15:17:45Z</time></trkpt>
<trkpt lat="46.14400699" lon="7.02933499"><ele>478.000000056</ele><time>2011-05-29T15:17:50Z</time></trkpt>
<trkpt lat="46.14409097" lon="7.02952593"><ele>464.600006028</ele><time>2011-05-29T15:17:55Z</time></trkpt>
<trkpt lat="46.14418393" lon="7.02967596"><ele>457.200012192</ele><time>2011-05-29T15:18:00Z</time></trkpt>
<trkpt lat="46.14426699" lon="7.02983094"><ele>455.7999877632</ele><time>2011-05-29T15:18:04Z</time></trkpt>
<trkpt lat="46.14436800" lon="7.02996799"><ele>454.6000060128</ele><time>2011-05-29T15:18:11Z</time></trkpt>
<trkpt lat="46.14444494" lon="7.03015298"><ele>453.6000059808</ele><time>2011-05-29T15:18:16Z</time></trkpt>
<trkpt lat="46.14455198" lon="7.03038599"><ele>452.3999937504</ele><time>2011-05-29T15:18:21Z</time></trkpt>
<trkpt lat="46.14468894" lon="7.03031693"><ele>452.3999937504</ele><time>2011-05-29T15:18:24Z</time></trkpt>
<trkpt lat="46.14501198" lon="7.03015893"><ele>452.3999937504</ele><time>2011-05-29T15:18:30Z</time></trkpt>
<trkpt lat="46.14507392" lon="7.03014694"><ele>452.3999937504</ele><time>2011-05-29T15:18:31Z</time></trkpt>
<trkpt lat="46.14542797" lon="7.03007494"><ele>452.7999876672</ele><time>2011-05-29T15:18:37Z</time></trkpt>
<trkpt lat="46.14595494" lon="7.02993697"><ele>453.6000059808</ele><time>2011-05-29T15:18:46Z</time></trkpt>
<trkpt lat="46.14632894" lon="7.02986992"><ele>455.7999877632</ele><time>2011-05-29T15:18:52Z</time></trkpt>
<trkpt lat="46.14679598" lon="7.02978794"><ele>457.7999878272</ele><time>2011-05-29T15:19:00Z</time></trkpt>
<trkpt lat="46.14735992" lon="7.02963095"><ele>458.6000061408</ele><time>2011-05-29T15:19:10Z</time></trkpt>
<trkpt lat="46.14760199" lon="7.02960698"><ele>459.0000000576</ele><time>2011-05-29T15:19:14Z</time></trkpt>
<trkpt lat="46.14795092" lon="7.02953096"><ele>460.0000000896</ele><time>2011-05-29T15:19:21Z</time></trkpt>
<trkpt lat="46.14828696" lon="7.02945594"><ele>461.3999940384</ele><time>2011-05-29T15:19:28Z</time></trkpt>
<trkpt lat="46.14841092" lon="7.02946692"><ele>461.7999876504</ele><time>2011-05-29T15:19:31Z</time></trkpt>
<trkpt lat="46.14874695" lon="7.02958896"><ele>461.7999876504</ele><time>2011-05-29T15:19:39Z</time></trkpt>
<trkpt lat="46.14907192" lon="7.02974696"><ele>461.0000001216</ele><time>2011-05-29T15:19:46Z</time></trkpt>
<trkpt lat="46.14927493" lon="7.02987595"><ele>460.6000062048</ele><time>2011-05-29T15:19:51Z</time></trkpt>
<trkpt lat="46.14946897" lon="7.03002498"><ele>460.3999940064</ele><time>2011-05-29T15:19:56Z</time></trkpt>
<trkpt lat="46.14974298" lon="7.03014594"><ele>461.7999876504</ele><time>2011-05-29T15:20:02Z</time></trkpt>
<trkpt lat="46.15021898" lon="7.03018994"><ele>463.9999999128</ele><time>2011-05-29T15:20:11Z</time></trkpt>
<trkpt lat="46.15060598" lon="7.03015893"><ele>465.3999938616</ele><time>2011-05-29T15:20:18Z</time></trkpt>
<trkpt lat="46.15098794" lon="7.03023193"><ele>465.7999877784</ele><time>2011-05-29T15:20:25Z</time></trkpt>
<trkpt lat="46.15126094" lon="7.03032497"><ele>465.3999938616</ele><time>2011-05-29T15:20:30Z</time></trkpt>
<trkpt lat="46.15183292" lon="7.03044400"><ele>464.9999999448</ele><time>2011-05-29T15:20:40Z</time></trkpt>
<trkpt lat="46.15235494" lon="7.03056092"><ele>464.3999938296</ele><time>2011-05-29T15:20:49Z</time></trkpt>
<trkpt lat="46.15290899" lon="7.03067098"><ele>464.7999877464</ele><time>2011-05-29T15:20:58Z</time></trkpt>
<trkpt lat="46.15344694" lon="7.03077097"><ele>464.9999999448</ele><time>2011-05-29T15:21:07Z</time></trkpt>
<trkpt lat="46.15400895" lon="7.03087793"><ele>465.2000121432</ele><time>2011-05-29T15:21:16Z</time></trkpt>
<trkpt lat="46.15443994" lon="7.03094993"><ele>464.9999999448</ele><time>2011-05-29T15:21:23Z</time></trkpt>
<trkpt lat="46.15492693" lon="7.03103593"><ele>463.7999877144</ele><time>2011-05-29T15:21:32Z</time></trkpt>
<trkpt lat="46.15532700" lon="7.03108898"><ele>460.3999940064</ele><time>2011-05-29T15:21:40Z</time></trkpt>
<trkpt lat="46.15564493" lon="7.03106392"><ele>458.200012224</ele><time>2011-05-29T15:21:47Z</time></trkpt>
<trkpt lat="46.15587794" lon="7.03095797"><ele>457.3999939104</ele><time>2011-05-29T15:21:53Z</time></trkpt>
<trkpt lat="46.15625094" lon="7.03071599"><ele>457.200012192</ele><time>2011-05-29T15:22:01Z</time></trkpt>
<trkpt lat="46.15660993" lon="7.03046395"><ele>455.7999877632</ele><time>2011-05-29T15:22:09Z</time></trkpt>
<trkpt lat="46.15689693" lon="7.03018592"><ele>455.3999938464</ele><time>2011-05-29T15:22:16Z</time></trkpt>
<trkpt lat="46.15692593" lon="7.03013998"><ele>455.6000060448</ele><time>2011-05-29T15:22:17Z</time></trkpt>
<trkpt lat="46.15705795" lon="7.03011794"><ele>454.6000060128</ele><time>2011-05-29T15:22:21Z</time></trkpt>
<trkpt lat="46.15710899" lon="7.03015993"><ele>453.9999998976</ele><time>2011-05-29T15:22:22Z</time></trkpt>
<trkpt lat="46.15718393" lon="7.03031399"><ele>452.6000062536</ele><time>2011-05-29T15:22:25Z</time></trkpt>
<trkpt lat="46.15728795" lon="7.03068598"><ele>450.799987908</ele><time>2011-05-29T15:22:31Z</time></trkpt>
<trkpt lat="46.15729398" lon="7.03075195"><ele>450.6000061896</ele><time>2011-05-29T15:22:32Z</time></trkpt>
<trkpt lat="46.15733497" lon="7.03111799"><ele>450.6000061896</ele><time>2011-05-29T15:22:37Z</time></trkpt>
<trkpt lat="46.15734394" lon="7.03119895"><ele>450.6000061896</ele><time>2011-05-29T15:22:38Z</time></trkpt>
<trkpt lat="46.15739699" lon="7.03156197"><ele>450.799987908</ele><time>2011-05-29T15:22:42Z</time></trkpt>
<trkpt lat="46.15753697" lon="7.03190899"><ele>450.799987908</ele><time>2011-05-29T15:22:46Z</time></trkpt>
<trkpt lat="46.15762699" lon="7.03193597"><ele>450.6000061896</ele><time>2011-05-29T15:22:50Z</time></trkpt>
<trkpt lat="46.15794593" lon="7.03195098"><ele>450.0000000744</ele><time>2011-05-29T15:22:58Z</time></trkpt>
<trkpt lat="46.15819294" lon="7.03201896"><ele>449.6000061576</ele><time>2011-05-29T15:23:04Z</time></trkpt>
<trkpt lat="46.15868295" lon="7.03216195"><ele>449.2000122408</ele><time>2011-05-29T15:23:14Z</time></trkpt>
<trkpt lat="46.15919994" lon="7.03227494"><ele>449.0000000424</ele><time>2011-05-29T15:23:24Z</time></trkpt>
<trkpt lat="46.15962599" lon="7.03236898"><ele>450.6000061896</ele><time>2011-05-29T15:23:31Z</time></trkpt>
<trkpt lat="46.16008993" lon="7.03248600"><ele>452.0000001384</ele><time>2011-05-29T15:23:39Z</time></trkpt>
<trkpt lat="46.16046293" lon="7.03252992"><ele>452.3999937504</ele><time>2011-05-29T15:23:45Z</time></trkpt>
<trkpt lat="46.16081296" lon="7.03251299"><ele>452.7999876672</ele><time>2011-05-29T15:23:51Z</time></trkpt>
<trkpt lat="46.16135694" lon="7.03240092"><ele>451.2000123048</ele><time>2011-05-29T15:24:00Z</time></trkpt>
<trkpt lat="46.16166498" lon="7.03231492"><ele>450.3999939912</ele><time>2011-05-29T15:24:05Z</time></trkpt>
<trkpt lat="46.16215699" lon="7.03216296"><ele>449.3999939592</ele><time>2011-05-29T15:24:13Z</time></trkpt>
<trkpt lat="46.16263795" lon="7.03201200"><ele>448.6000061256</ele><time>2011-05-29T15:24:22Z</time></trkpt>
<trkpt lat="46.16311094" lon="7.03184796"><ele>449.3999939592</ele><time>2011-05-29T15:24:31Z</time></trkpt>
<trkpt lat="46.16362592" lon="7.03164093"><ele>450.6000061896</ele><time>2011-05-29T15:24:40Z</time></trkpt>
<trkpt lat="46.16403395" lon="7.03146692"><ele>451.6000062216</ele><time>2011-05-29T15:24:47Z</time></trkpt>
<trkpt lat="46.16451197" lon="7.03121899"><ele>451.3999940232</ele><time>2011-05-29T15:24:56Z</time></trkpt>
<trkpt lat="46.16494398" lon="7.03094892"><ele>450.2000122728</ele><time>2011-05-29T15:25:04Z</time></trkpt>
<trkpt lat="46.16543096" lon="7.03064692"><ele>451.0000001064</ele><time>2011-05-29T15:25:13Z</time></trkpt>
<trkpt lat="46.16593095" lon="7.03037292"><ele>451.79998794</ele><time>2011-05-29T15:25:22Z</time></trkpt>
<trkpt lat="46.16645297" lon="7.03014292"><ele>451.3999940232</ele><time>2011-05-29T15:25:31Z</time></trkpt>
<trkpt lat="46.16691699" lon="7.02996598"><ele>450.6000061896</ele><time>2011-05-29T15:25:39Z</time></trkpt>
<trkpt lat="46.16717700" lon="7.02983798"><ele>450.2000122728</ele><time>2011-05-29T15:25:44Z</time></trkpt>
<trkpt lat="46.16728194" lon="7.02978694"><ele>450.0000000744</ele><time>2011-05-29T15:25:46Z</time></trkpt>
<trkpt lat="46.16756693" lon="7.02973095"><ele>450.0000000744</ele><time>2011-05-29T15:25:51Z</time></trkpt>
<trkpt lat="46.16813094" lon="7.02946197"><ele>450.2000122728</ele><time>2011-05-29T15:26:01Z</time></trkpt>
<trkpt lat="46.16851492" lon="7.02931797"><ele>450.0000000744</ele><time>2011-05-29T15:26:08Z</time></trkpt>
<trkpt lat="46.16862095" lon="7.02927900"><ele>450.0000000744</ele><time>2011-05-29T15:26:10Z</time></trkpt>
<trkpt lat="46.16885195" lon="7.02913198"><ele>449.799987876</ele><time>2011-05-29T15:26:16Z</time></trkpt>
<trkpt lat="46.16898598" lon="7.02906593"><ele>449.799987876</ele><time>2011-05-29T15:26:22Z</time></trkpt>
<trkpt lat="46.16904893" lon="7.02903793"><ele>449.799987876</ele><time>2011-05-29T15:26:24Z</time></trkpt>
<trkpt lat="46.16937993" lon="7.02895495"><ele>450.0000000744</ele><time>2011-05-29T15:26:31Z</time></trkpt>
<trkpt lat="46.16974899" lon="7.02883693"><ele>450.2000122728</ele><time>2011-05-29T15:26:38Z</time></trkpt>
<trkpt lat="46.17023296" lon="7.02861096"><ele>450.6000061896</ele><time>2011-05-29T15:26:47Z</time></trkpt>
<trkpt lat="46.17059095" lon="7.02843695"><ele>450.799987908</ele><time>2011-05-29T15:26:54Z</time></trkpt>
<trkpt lat="46.17101097" lon="7.02823394"><ele>451.0000001064</ele><time>2011-05-29T15:27:02Z</time></trkpt>
<trkpt lat="46.17155797" lon="7.02797192"><ele>451.3999940232</ele><time>2011-05-29T15:27:12Z</time></trkpt>
<trkpt lat="46.17205200" lon="7.02774192"><ele>450.2000122728</ele><time>2011-05-29T15:27:21Z</time></trkpt>
<trkpt lat="46.17249498" lon="7.02753799"><ele>449.799987876</ele><time>2011-05-29T15:27:29Z</time></trkpt>
<trkpt lat="46.17323192" lon="7.02719299"><ele>452.6000062536</ele><time>2011-05-29T15:27:42Z</time></trkpt>
<trkpt lat="46.17369594" lon="7.02699694"><ele>452.9999998656</ele><time>2011-05-29T15:27:50Z</time></trkpt>
<trkpt lat="46.17432794" lon="7.02680097"><ele>452.6000062536</ele><time>2011-05-29T15:28:01Z</time></trkpt>
<trkpt lat="46.17495993" lon="7.02667993"><ele>451.0000001064</ele><time>2011-05-29T15:28:12Z</time></trkpt>
<trkpt lat="46.17532094" lon="7.02663995"><ele>450.6000061896</ele><time>2011-05-29T15:28:19Z</time></trkpt>
<trkpt lat="46.17567399" lon="7.02668597"><ele>450.2000122728</ele><time>2011-05-29T15:28:26Z</time></trkpt>
<trkpt lat="46.17618796" lon="7.02674598"><ele>451.6000062216</ele><time>2011-05-29T15:28:35Z</time></trkpt>
<trkpt lat="46.17662994" lon="7.02679292"><ele>453.6000059808</ele><time>2011-05-29T15:28:43Z</time></trkpt>
<trkpt lat="46.17681392" lon="7.02684799"><ele>453.7999876992</ele><time>2011-05-29T15:28:48Z</time></trkpt>
<trkpt lat="46.17702096" lon="7.02692494"><ele>453.7999876992</ele><time>2011-05-29T15:28:56Z</time></trkpt>
<trkpt lat="46.17719899" lon="7.02698797"><ele>453.6000059808</ele><time>2011-05-29T15:29:03Z</time></trkpt>
<trkpt lat="46.17751700" lon="7.02708193"><ele>453.3999937824</ele><time>2011-05-29T15:29:13Z</time></trkpt>
<trkpt lat="46.17780693" lon="7.02717195"><ele>454.200012096</ele><time>2011-05-29T15:29:22Z</time></trkpt>
<trkpt lat="46.17796795" lon="7.02724999"><ele>454.200012096</ele><time>2011-05-29T15:29:29Z</time></trkpt>
<trkpt lat="46.17809594" lon="7.02734093"><ele>454.200012096</ele><time>2011-05-29T15:29:34Z</time></trkpt>
<trkpt lat="46.17831194" lon="7.02749097"><ele>453.9999998976</ele><time>2011-05-29T15:29:39Z</time></trkpt>
<trkpt lat="46.17867898" lon="7.02775399"><ele>453.7999876992</ele><time>2011-05-29T15:29:46Z</time></trkpt>
<trkpt lat="46.17893195" lon="7.02794292"><ele>453.3999937824</ele><time>2011-05-29T15:29:52Z</time></trkpt>
<trkpt lat="46.17929597" lon="7.02824492"><ele>452.7999876672</ele><time>2011-05-29T15:30:02Z</time></trkpt>
<trkpt lat="46.17958892" lon="7.02846495"><ele>453.7999876992</ele><time>2011-05-29T15:30:10Z</time></trkpt>
<trkpt lat="46.17983996" lon="7.02867793"><ele>454.200012096</ele><time>2011-05-29T15:30:16Z</time></trkpt>
<trkpt lat="46.18013198" lon="7.02897792"><ele>453.9999998976</ele><time>2011-05-29T15:30:22Z</time></trkpt>
<trkpt lat="46.18018094" lon="7.02902393"><ele>453.9999998976</ele><time>2011-05-29T15:30:23Z</time></trkpt>
<trkpt lat="46.18048193" lon="7.02886996"><ele>455.6000060448</ele><time>2011-05-29T15:30:31Z</time></trkpt>
<trkpt lat="46.18076096" lon="7.02899996"><ele>455.6000060448</ele><time>2011-05-29T15:30:40Z</time></trkpt>
<trkpt lat="46.18109498" lon="7.02911597"><ele>455.7999877632</ele><time>2011-05-29T15:30:50Z</time></trkpt>
<trkpt lat="46.18147493" lon="7.02922099"><ele>456.20001216</ele><time>2011-05-29T15:31:01Z</time></trkpt>
<trkpt lat="46.18179898" lon="7.02930397"><ele>457.200012192</ele><time>2011-05-29T15:31:10Z</time></trkpt>
<trkpt lat="46.18217197" lon="7.02934295"><ele>459.6000061728</ele><time>2011-05-29T15:31:21Z</time></trkpt>
<trkpt lat="46.18248495" lon="7.02934295"><ele>461.7999876504</ele><time>2011-05-29T15:31:31Z</time></trkpt>
<trkpt lat="46.18265695" lon="7.02934295"><ele>461.9999998488</ele><time>2011-05-29T15:31:38Z</time></trkpt>
<trkpt lat="46.18292098" lon="7.02932895"><ele>462.3999937656</ele><time>2011-05-29T15:31:47Z</time></trkpt>
<trkpt lat="46.18324695" lon="7.02928193"><ele>463.2000120792</ele><time>2011-05-29T15:31:58Z</time></trkpt>
<trkpt lat="46.18352297" lon="7.02920792"><ele>463.7999877144</ele><time>2011-05-29T15:32:07Z</time></trkpt>
<trkpt lat="46.18374492" lon="7.02913793"><ele>464.600006028</ele><time>2011-05-29T15:32:15Z</time></trkpt>
<trkpt lat="46.18401499" lon="7.02903793"><ele>465.60000606</ele><time>2011-05-29T15:32:24Z</time></trkpt>
<trkpt lat="46.18434498" lon="7.02889393"><ele>466.3999938936</ele><time>2011-05-29T15:32:34Z</time></trkpt>
<trkpt lat="46.18459292" lon="7.02873300"><ele>467.2000122072</ele><time>2011-05-29T15:32:42Z</time></trkpt>
<trkpt lat="46.18483893" lon="7.02856192"><ele>468.3999939576</ele><time>2011-05-29T15:32:50Z</time></trkpt>
<trkpt lat="46.18522793" lon="7.02839194"><ele>469.2000122712</ele><time>2011-05-29T15:33:01Z</time></trkpt>
<trkpt lat="46.18549892" lon="7.02828398"><ele>469.3999939896</ele><time>2011-05-29T15:33:08Z</time></trkpt>
<trkpt lat="46.18594400" lon="7.02812498"><ele>468.600006156</ele><time>2011-05-29T15:33:18Z</time></trkpt>
<trkpt lat="46.18641992" lon="7.02798793"><ele>466.600006092</ele><time>2011-05-29T15:33:28Z</time></trkpt>
<trkpt lat="46.18690196" lon="7.02784393"><ele>466.3999938936</ele><time>2011-05-29T15:33:38Z</time></trkpt>
<trkpt lat="46.18745299" lon="7.02767495"><ele>467.7999878424</ele><time>2011-05-29T15:33:50Z</time></trkpt>
<trkpt lat="46.18782699" lon="7.02753598"><ele>468.2000122392</ele><time>2011-05-29T15:33:58Z</time></trkpt>
<trkpt lat="46.18823293" lon="7.02735795"><ele>469.0000000728</ele><time>2011-05-29T15:34:07Z</time></trkpt>
<trkpt lat="46.18860592" lon="7.02710699"><ele>469.0000000728</ele><time>2011-05-29T15:34:16Z</time></trkpt>
<trkpt lat="46.18894598" lon="7.02682796"><ele>468.3999939576</ele><time>2011-05-29T15:34:25Z</time></trkpt>
<trkpt lat="46.18935292" lon="7.02645597"><ele>468.2000122392</ele><time>2011-05-29T15:34:35Z</time></trkpt>
<trkpt lat="46.18978894" lon="7.02604492"><ele>469.2000122712</ele><time>2011-05-29T15:34:45Z</time></trkpt>
<trkpt lat="46.19030200" lon="7.02561795"><ele>471.0000001368</ele><time>2011-05-29T15:34:56Z</time></trkpt>
<trkpt lat="46.19092695" lon="7.02522400"><ele>470.60000622</ele><time>2011-05-29T15:35:09Z</time></trkpt>
<trkpt lat="46.19151193" lon="7.02491697"><ele>469.0000000728</ele><time>2011-05-29T15:35:20Z</time></trkpt>
<trkpt lat="46.19206396" lon="7.02462796"><ele>469.3999939896</ele><time>2011-05-29T15:35:30Z</time></trkpt>
<trkpt lat="46.19247694" lon="7.02441598"><ele>470.3999940216</ele><time>2011-05-29T15:35:38Z</time></trkpt>
<trkpt lat="46.19298798" lon="7.02416595"><ele>470.2000123032</ele><time>2011-05-29T15:35:48Z</time></trkpt>
<trkpt lat="46.19343499" lon="7.02390896"><ele>468.7999878744</ele><time>2011-05-29T15:35:57Z</time></trkpt>
<trkpt lat="46.19391292" lon="7.02362197"><ele>465.7999877784</ele><time>2011-05-29T15:36:06Z</time></trkpt>
<trkpt lat="46.19442296" lon="7.02323196"><ele>463.7999877144</ele><time>2011-05-29T15:36:15Z</time></trkpt>
<trkpt lat="46.19492596" lon="7.02276198"><ele>464.2000121112</ele><time>2011-05-29T15:36:24Z</time></trkpt>
<trkpt lat="46.19539795" lon="7.02229000"><ele>463.7999877144</ele><time>2011-05-29T15:36:32Z</time></trkpt>
<trkpt lat="46.19597395" lon="7.02173193"><ele>461.0000001216</ele><time>2011-05-29T15:36:41Z</time></trkpt>
<trkpt lat="46.19666495" lon="7.02112894"><ele>458.200012224</ele><time>2011-05-29T15:36:51Z</time></trkpt>
<trkpt lat="46.19720399" lon="7.02066097"><ele>456.3999938784</ele><time>2011-05-29T15:36:59Z</time></trkpt>
<trkpt lat="46.19776692" lon="7.02017692"><ele>452.3999937504</ele><time>2011-05-29T15:37:08Z</time></trkpt>
<trkpt lat="46.19816800" lon="7.01983594"><ele>448.3999939272</ele><time>2011-05-29T15:37:14Z</time></trkpt>
<trkpt lat="46.19865398" lon="7.01939195"><ele>444.3999937992</ele><time>2011-05-29T15:37:20Z</time></trkpt>
<trkpt lat="46.19921498" lon="7.01888292"><ele>438.6000061104</ele><time>2011-05-29T15:37:26Z</time></trkpt>
<trkpt lat="46.19948194" lon="7.01837992"><ele>435.2000120976</ele><time>2011-05-29T15:37:30Z</time></trkpt>
<trkpt lat="46.19952193" lon="7.01823399"><ele>434.9999998992</ele><time>2011-05-29T15:37:31Z</time></trkpt>
<trkpt lat="46.19970197" lon="7.01727293"><ele>436.2000121296</ele><time>2011-05-29T15:37:38Z</time></trkpt>
<trkpt lat="46.20017094" lon="7.01513395"><ele>435.6000060144</ele><time>2011-05-29T15:37:55Z</time></trkpt>
<trkpt lat="46.20043396" lon="7.01416399"><ele>431.6000061912</ele><time>2011-05-29T15:38:04Z</time></trkpt>
<trkpt lat="46.20076798" lon="7.01326294"><ele>428.3999938968</ele><time>2011-05-29T15:38:13Z</time></trkpt>
<trkpt lat="46.20116394" lon="7.01243598"><ele>425.6000059992</ele><time>2011-05-29T15:38:22Z</time></trkpt>
<trkpt lat="46.20218796" lon="7.01080696"><ele>421.0000000608</ele><time>2011-05-29T15:38:40Z</time></trkpt>
<trkpt lat="46.20265894" lon="7.01028493"><ele>419.7999878304</ele><time>2011-05-29T15:38:47Z</time></trkpt>
<trkpt lat="46.20325296" lon="7.00971697"><ele>418.60000608</ele><time>2011-05-29T15:38:56Z</time></trkpt>
<trkpt lat="46.20392192" lon="7.00918992"><ele>417.9999999648</ele><time>2011-05-29T15:39:06Z</time></trkpt>
<trkpt lat="46.20447094" lon="7.00875792"><ele>417.9999999648</ele><time>2011-05-29T15:39:15Z</time></trkpt>
<trkpt lat="46.20488995" lon="7.00843094"><ele>419.2000121952</ele><time>2011-05-29T15:39:23Z</time></trkpt>
<trkpt lat="46.20548800" lon="7.00796298"><ele>419.7999878304</ele><time>2011-05-29T15:39:35Z</time></trkpt>
<trkpt lat="46.20584498" lon="7.00769593"><ele>420.600006144</ele><time>2011-05-29T15:39:43Z</time></trkpt>
<trkpt lat="46.20626299" lon="7.00738999"><ele>420.2000122272</ele><time>2011-05-29T15:39:53Z</time></trkpt>
<trkpt lat="46.20675894" lon="7.00702295"><ele>421.600006176</ele><time>2011-05-29T15:40:05Z</time></trkpt>
<trkpt lat="46.20716094" lon="7.00672497"><ele>422.3999940096</ele><time>2011-05-29T15:40:15Z</time></trkpt>
<trkpt lat="46.20745498" lon="7.00650092"><ele>422.600006208</ele><time>2011-05-29T15:40:23Z</time></trkpt>
<trkpt lat="46.20773393" lon="7.00624997"><ele>423.2000123232</ele><time>2011-05-29T15:40:31Z</time></trkpt>
<trkpt lat="46.20800198" lon="7.00594093"><ele>423.999999852</ele><time>2011-05-29T15:40:39Z</time></trkpt>
<trkpt lat="46.20811396" lon="7.00585694"><ele>423.999999852</ele><time>2011-05-29T15:40:42Z</time></trkpt>
<trkpt lat="46.20837992" lon="7.00583993"><ele>423.7999876536</ele><time>2011-05-29T15:40:48Z</time></trkpt>
<trkpt lat="46.20857094" lon="7.00601997"><ele>423.3999940416</ele><time>2011-05-29T15:40:53Z</time></trkpt>
<trkpt lat="46.20860095" lon="7.00626598"><ele>422.7999879264</ele><time>2011-05-29T15:40:57Z</time></trkpt>
<trkpt lat="46.20858192" lon="7.00640394"><ele>422.600006208</ele><time>2011-05-29T15:41:02Z</time></trkpt>
<trkpt lat="46.20854194" lon="7.00655700"><ele>422.2000122912</ele><time>2011-05-29T15:41:07Z</time></trkpt>
<trkpt lat="46.20855493" lon="7.00675297"><ele>421.7999878944</ele><time>2011-05-29T15:41:11Z</time></trkpt>
<trkpt lat="46.20870497" lon="7.00686394"><ele>421.600006176</ele><time>2011-05-29T15:41:15Z</time></trkpt>
<trkpt lat="46.20882994" lon="7.00677895"><ele>421.600006176</ele><time>2011-05-29T15:41:18Z</time></trkpt>
<trkpt lat="46.20897898" lon="7.00659597"><ele>422.0000000928</ele><time>2011-05-29T15:41:22Z</time></trkpt>
<trkpt lat="46.20938592" lon="7.00643093"><ele>422.0000000928</ele><time>2011-05-29T15:41:30Z</time></trkpt>
<trkpt lat="46.20986293" lon="7.00626992"><ele>421.600006176</ele><time>2011-05-29T15:41:38Z</time></trkpt>
<trkpt lat="46.21041496" lon="7.00609993"><ele>421.2000122592</ele><time>2011-05-29T15:41:46Z</time></trkpt>
<trkpt lat="46.21093598" lon="7.00596197"><ele>420.2000122272</ele><time>2011-05-29T15:41:53Z</time></trkpt>
<trkpt lat="46.21148592" lon="7.00590195"><ele>417.600006048</ele><time>2011-05-29T15:42:00Z</time></trkpt>
<trkpt lat="46.21180192" lon="7.00591897"><ele>416.3999938176</ele><time>2011-05-29T15:42:04Z</time></trkpt>
<trkpt lat="46.21200392" lon="7.00577999"><ele>416.3999938176</ele><time>2011-05-29T15:42:07Z</time></trkpt>
<trkpt lat="46.21220492" lon="7.00562200"><ele>416.600006016</ele><time>2011-05-29T15:42:10Z</time></trkpt>
<trkpt lat="46.21285695" lon="7.00544095"><ele>415.9999999008</ele><time>2011-05-29T15:42:19Z</time></trkpt>
<trkpt lat="46.21352792" lon="7.00525193"><ele>415.9999999008</ele><time>2011-05-29T15:42:29Z</time></trkpt>
<trkpt lat="46.21403695" lon="7.00511397"><ele>416.3999938176</ele><time>2011-05-29T15:42:37Z</time></trkpt>
<trkpt lat="46.21453894" lon="7.00494993"><ele>414.9999998688</ele><time>2011-05-29T15:42:45Z</time></trkpt>
<trkpt lat="46.21498595" lon="7.00485094"><ele>413.0000001096</ele><time>2011-05-29T15:42:52Z</time></trkpt>
<trkpt lat="46.21510598" lon="7.00480199"><ele>413.200012308</ele><time>2011-05-29T15:42:54Z</time></trkpt>
<trkpt lat="46.21554100" lon="7.00469596"><ele>413.7999879432</ele><time>2011-05-29T15:43:01Z</time></trkpt>
<trkpt lat="46.21617199" lon="7.00456395"><ele>415.9999999008</ele><time>2011-05-29T15:43:11Z</time></trkpt>
<trkpt lat="46.21640098" lon="7.00453294"><ele>416.9999999328</ele><time>2011-05-29T15:43:15Z</time></trkpt>
<trkpt lat="46.21676694" lon="7.00447493"><ele>417.9999999648</ele><time>2011-05-29T15:43:23Z</time></trkpt>
<trkpt lat="46.21699392" lon="7.00441198"><ele>417.9999999648</ele><time>2011-05-29T15:43:28Z</time></trkpt>
<trkpt lat="46.21708595" lon="7.00439799"><ele>417.9999999648</ele><time>2011-05-29T15:43:31Z</time></trkpt>
<trkpt lat="46.21735199" lon="7.00448600"><ele>417.600006048</ele><time>2011-05-29T15:43:37Z</time></trkpt>
<trkpt lat="46.21750396" lon="7.00451693"><ele>417.3999938496</ele><time>2011-05-29T15:43:41Z</time></trkpt>
<trkpt lat="46.21764394" lon="7.00446798"><ele>417.3999938496</ele><time>2011-05-29T15:43:48Z</time></trkpt>
<trkpt lat="46.21790193" lon="7.00447393"><ele>417.2000121312</ele><time>2011-05-29T15:43:55Z</time></trkpt>
<trkpt lat="46.21805700" lon="7.00450192"><ele>416.9999999328</ele><time>2011-05-29T15:44:00Z</time></trkpt>
<trkpt lat="46.21824794" lon="7.00453193"><ele>416.600006016</ele><time>2011-05-29T15:44:05Z</time></trkpt>
<trkpt lat="46.21845597" lon="7.00458398"><ele>416.7999877344</ele><time>2011-05-29T15:44:10Z</time></trkpt>
<trkpt lat="46.21859897" lon="7.00459194"><ele>417.3999938496</ele><time>2011-05-29T15:44:14Z</time></trkpt>
<trkpt lat="46.21875194" lon="7.00462195"><ele>417.7999877664</ele><time>2011-05-29T15:44:18Z</time></trkpt>
<trkpt lat="46.21895394" lon="7.00461893"><ele>418.60000608</ele><time>2011-05-29T15:44:24Z</time></trkpt>
<trkpt lat="46.21915896" lon="7.00464492"><ele>419.2000121952</ele><time>2011-05-29T15:44:30Z</time></trkpt>
<trkpt lat="46.21933700" lon="7.00465498"><ele>420.0000000288</ele><time>2011-05-29T15:44:35Z</time></trkpt>
<trkpt lat="46.21960497" lon="7.00466596"><ele>421.2000122592</ele><time>2011-05-29T15:44:41Z</time></trkpt>
<trkpt lat="46.21981795" lon="7.00465397"><ele>422.3999940096</ele><time>2011-05-29T15:44:47Z</time></trkpt>
<trkpt lat="46.21997394" lon="7.00465095"><ele>423.2000123232</ele><time>2011-05-29T15:44:51Z</time></trkpt>
<trkpt lat="46.22025498" lon="7.00461198"><ele>424.3999937688</ele><time>2011-05-29T15:44:57Z</time></trkpt>
<trkpt lat="46.22053192" lon="7.00457895"><ele>426.6000060312</ele><time>2011-05-29T15:45:02Z</time></trkpt>
<trkpt lat="46.22080400" lon="7.00457392"><ele>428.2000121784</ele><time>2011-05-29T15:45:06Z</time></trkpt>
<trkpt lat="46.22104498" lon="7.00448097"><ele>432.2000123064</ele><time>2011-05-29T15:45:11Z</time></trkpt>
<trkpt lat="46.22134195" lon="7.00448499"><ele>430.7999878776</ele><time>2011-05-29T15:45:17Z</time></trkpt>
<trkpt lat="46.22167194" lon="7.00441894"><ele>431.7999879096</ele><time>2011-05-29T15:45:23Z</time></trkpt>
<trkpt lat="46.22197294" lon="7.00423596"><ele>430.2000122424</ele><time>2011-05-29T15:45:29Z</time></trkpt>
<trkpt lat="46.22249899" lon="7.00385794"><ele>437.9999999952</ele><time>2011-05-29T15:45:40Z</time></trkpt>
<trkpt lat="46.22296795" lon="7.00354999"><ele>437.39999388</ele><time>2011-05-29T15:45:49Z</time></trkpt>
<trkpt lat="46.22330499" lon="7.00334094"><ele>422.600006208</ele><time>2011-05-29T15:45:56Z</time></trkpt>
<trkpt lat="46.22333793" lon="7.00330792"><ele>421.7999878944</ele><time>2011-05-29T15:45:57Z</time></trkpt>
<trkpt lat="46.22373196" lon="7.00296896"><ele>425.6000059992</ele><time>2011-05-29T15:46:05Z</time></trkpt>
<trkpt lat="46.22416598" lon="7.00251298"><ele>418.7999877984</ele><time>2011-05-29T15:46:14Z</time></trkpt>
<trkpt lat="46.22465598" lon="7.00225398"><ele>422.2000122912</ele><time>2011-05-29T15:46:21Z</time></trkpt>
<trkpt lat="46.22503392" lon="7.00210596"><ele>420.0000000288</ele><time>2011-05-29T15:46:27Z</time></trkpt>
<trkpt lat="46.22537398" lon="7.00192398"><ele>420.2000122272</ele><time>2011-05-29T15:46:33Z</time></trkpt>
<trkpt lat="46.22547892" lon="7.00186296"><ele>419.600006112</ele><time>2011-05-29T15:46:35Z</time></trkpt>
<trkpt lat="46.22557498" lon="7.00163799"><ele>421.2000122592</ele><time>2011-05-29T15:46:39Z</time></trkpt>
<trkpt lat="46.22570498" lon="7.00128897"><ele>428.6000060952</ele><time>2011-05-29T15:46:45Z</time></trkpt>
<trkpt lat="46.22590296" lon="7.00126098"><ele>424.2000123552</ele><time>2011-05-29T15:46:49Z</time></trkpt>
<trkpt lat="46.22599692" lon="7.00126793"><ele>423.0000001248</ele><time>2011-05-29T15:46:51Z</time></trkpt>
<trkpt lat="46.22638693" lon="7.00122795"><ele>419.2000121952</ele><time>2011-05-29T15:46:58Z</time></trkpt>
<trkpt lat="46.22681793" lon="7.00116492"><ele>416.9999999328</ele><time>2011-05-29T15:47:06Z</time></trkpt>
<trkpt lat="46.22721992" lon="7.00109694"><ele>419.3999939136</ele><time>2011-05-29T15:47:13Z</time></trkpt>
<trkpt lat="46.22774798" lon="7.00098597"><ele>423.2000123232</ele><time>2011-05-29T15:47:22Z</time></trkpt>
<trkpt lat="46.22821393" lon="7.00086795"><ele>425.999999916</ele><time>2011-05-29T15:47:30Z</time></trkpt>
<trkpt lat="46.22871400" lon="7.00067793"><ele>425.6000059992</ele><time>2011-05-29T15:47:38Z</time></trkpt>
<trkpt lat="46.22916000" lon="7.00042899"><ele>424.2000123552</ele><time>2011-05-29T15:47:44Z</time></trkpt>
<trkpt lat="46.22961296" lon="7.00011299"><ele>420.3999939456</ele><time>2011-05-29T15:47:50Z</time></trkpt>
<trkpt lat="46.23016398" lon="6.99962500"><ele>415.3999937856</ele><time>2011-05-29T15:47:58Z</time></trkpt>
<trkpt lat="46.23075893" lon="6.99903399"><ele>412.6000061928</ele><time>2011-05-29T15:48:07Z</time></trkpt>
<trkpt lat="46.23107594" lon="6.99865697"><ele>414.600005952</ele><time>2011-05-29T15:48:13Z</time></trkpt>
<trkpt lat="46.23142999" lon="6.99825699"><ele>412.6000061928</ele><time>2011-05-29T15:48:20Z</time></trkpt>
<trkpt lat="46.23181094" lon="6.99777796"><ele>408.9999999816</ele><time>2011-05-29T15:48:28Z</time></trkpt>
<trkpt lat="46.23219400" lon="6.99737496"><ele>408.3999938664</ele><time>2011-05-29T15:48:35Z</time></trkpt>
<trkpt lat="46.23264394" lon="6.99687297"><ele>406.3999938024</ele><time>2011-05-29T15:48:43Z</time></trkpt>
<trkpt lat="46.23282792" lon="6.99655093"><ele>406.200012084</ele><time>2011-05-29T15:48:47Z</time></trkpt>
<trkpt lat="46.23305993" lon="6.99630300"><ele>406.3999938024</ele><time>2011-05-29T15:48:51Z</time></trkpt>
<trkpt lat="46.23332396" lon="6.99608892"><ele>406.6000060008</ele><time>2011-05-29T15:48:55Z</time></trkpt>
<trkpt lat="46.23389896" lon="6.99540295"><ele>405.2000123568</ele><time>2011-05-29T15:49:05Z</time></trkpt>
<trkpt lat="46.23404799" lon="6.99521695"><ele>404.9999998536</ele><time>2011-05-29T15:49:08Z</time></trkpt>
<trkpt lat="46.23427296" lon="6.99514495"><ele>404.3999940432</ele><time>2011-05-29T15:49:12Z</time></trkpt>
<trkpt lat="46.23451193" lon="6.99516993"><ele>404.2000123248</ele><time>2011-05-29T15:49:16Z</time></trkpt>
<trkpt lat="46.23476598" lon="6.99529096"><ele>404.0000001264</ele><time>2011-05-29T15:49:20Z</time></trkpt>
<trkpt lat="46.23513395" lon="6.99562892"><ele>403.2000122928</ele><time>2011-05-29T15:49:26Z</time></trkpt>
<trkpt lat="46.23563695" lon="6.99613494"><ele>399.9999999984</ele><time>2011-05-29T15:49:34Z</time></trkpt>
<trkpt lat="46.23576494" lon="6.99609697"><ele>399.3999938832</ele><time>2011-05-29T15:49:37Z</time></trkpt>
<trkpt lat="46.23579897" lon="6.99603796"><ele>399.3999938832</ele><time>2011-05-29T15:49:38Z</time></trkpt>
<trkpt lat="46.23609594" lon="6.99555692"><ele>399.3999938832</ele><time>2011-05-29T15:49:45Z</time></trkpt>
<trkpt lat="46.23633198" lon="6.99532399"><ele>399.3999938832</ele><time>2011-05-29T15:49:50Z</time></trkpt>
<trkpt lat="46.23651294" lon="6.99522592"><ele>399.3999938832</ele><time>2011-05-29T15:49:55Z</time></trkpt>
<trkpt lat="46.23683900" lon="6.99505099"><ele>399.6000060816</ele><time>2011-05-29T15:50:02Z</time></trkpt>
<trkpt lat="46.23717193" lon="6.99486894"><ele>399.3999938832</ele><time>2011-05-29T15:50:09Z</time></trkpt>
<trkpt lat="46.23744694" lon="6.99476198"><ele>399.2000121648</ele><time>2011-05-29T15:50:13Z</time></trkpt>
<trkpt lat="46.23779898" lon="6.99468194"><ele>399.6000060816</ele><time>2011-05-29T15:50:17Z</time></trkpt>
<trkpt lat="46.23841697" lon="6.99443995"><ele>399.7999878</ele><time>2011-05-29T15:50:24Z</time></trkpt>
<trkpt lat="46.23900496" lon="6.99408992"><ele>398.3999938512</ele><time>2011-05-29T15:50:31Z</time></trkpt>
<trkpt lat="46.23977995" lon="6.99350595"><ele>398.799987768</ele><time>2011-05-29T15:50:41Z</time></trkpt>
<trkpt lat="46.24015194" lon="6.99311796"><ele>398.6000060496</ele><time>2011-05-29T15:50:47Z</time></trkpt>
<trkpt lat="46.24070800" lon="6.99249292"><ele>398.799987768</ele><time>2011-05-29T15:50:57Z</time></trkpt>
<trkpt lat="46.24112693" lon="6.99204599"><ele>398.9999999664</ele><time>2011-05-29T15:51:05Z</time></trkpt>
<trkpt lat="46.24150696" lon="6.99167795"><ele>398.2000121328</ele><time>2011-05-29T15:51:13Z</time></trkpt>
<trkpt lat="46.24191198" lon="6.99134996"><ele>398.6000060496</ele><time>2011-05-29T15:51:21Z</time></trkpt>
<trkpt lat="46.24225396" lon="6.99094696"><ele>399.6000060816</ele><time>2011-05-29T15:51:28Z</time></trkpt>
<trkpt lat="46.24257096" lon="6.99057296"><ele>399.9999999984</ele><time>2011-05-29T15:51:35Z</time></trkpt>
<trkpt lat="46.24279099" lon="6.99030692"><ele>399.3999938832</ele><time>2011-05-29T15:51:41Z</time></trkpt>
<trkpt lat="46.24284195" lon="6.99020994"><ele>399.2000121648</ele><time>2011-05-29T15:51:43Z</time></trkpt>
<trkpt lat="46.24294697" lon="6.99024900"><ele>398.799987768</ele><time>2011-05-29T15:51:47Z</time></trkpt>
<trkpt lat="46.24309994" lon="6.99053398"><ele>398.3999938512</ele><time>2011-05-29T15:51:53Z</time></trkpt>
<trkpt lat="46.24332592" lon="6.99094092"><ele>398.2000121328</ele><time>2011-05-29T15:52:00Z</time></trkpt>
<trkpt lat="46.24345198" lon="6.99115399"><ele>398.799987768</ele><time>2011-05-29T15:52:03Z</time></trkpt>
<trkpt lat="46.24372498" lon="6.99165699"><ele>400.3999939152</ele><time>2011-05-29T15:52:10Z</time></trkpt>
<trkpt lat="46.24414198" lon="6.99241597"><ele>402.6000061776</ele><time>2011-05-29T15:52:21Z</time></trkpt>
<trkpt lat="46.24417199" lon="6.99248797"><ele>402.799987896</ele><time>2011-05-29T15:52:22Z</time></trkpt>
<trkpt lat="46.24436192" lon="6.99321594"><ele>402.2000122608</ele><time>2011-05-29T15:52:32Z</time></trkpt>
<trkpt lat="46.24450098" lon="6.99381692"><ele>402.6000061776</ele><time>2011-05-29T15:52:41Z</time></trkpt>
<trkpt lat="46.24471195" lon="6.99447499"><ele>403.0000000944</ele><time>2011-05-29T15:52:51Z</time></trkpt>
<trkpt lat="46.24474992" lon="6.99460499"><ele>403.0000000944</ele><time>2011-05-29T15:52:53Z</time></trkpt>
<trkpt lat="46.24480499" lon="6.99487095"><ele>403.0000000944</ele><time>2011-05-29T15:52:57Z</time></trkpt>
<trkpt lat="46.24496894" lon="6.99562297"><ele>403.6000062096</ele><time>2011-05-29T15:53:08Z</time></trkpt>
<trkpt lat="46.24508092" lon="6.99617995"><ele>404.2000123248</ele><time>2011-05-29T15:53:17Z</time></trkpt>
<trkpt lat="46.24522392" lon="6.99658899"><ele>404.6000062416</ele><time>2011-05-29T15:53:24Z</time></trkpt>
<trkpt lat="46.24525895" lon="6.99671094"><ele>404.6000062416</ele><time>2011-05-29T15:53:26Z</time></trkpt>
<trkpt lat="46.24541192" lon="6.99694999"><ele>404.7999876552</ele><time>2011-05-29T15:53:31Z</time></trkpt>
<trkpt lat="46.24544897" lon="6.99699098"><ele>404.7999876552</ele><time>2011-05-29T15:53:32Z</time></trkpt>
<trkpt lat="46.24548392" lon="6.99724495"><ele>404.9999998536</ele><time>2011-05-29T15:53:36Z</time></trkpt>
<trkpt lat="46.24543497" lon="6.99744092"><ele>405.3999937704</ele><time>2011-05-29T15:53:39Z</time></trkpt>
<trkpt lat="46.24542500" lon="6.99777494"><ele>405.7999876872</ele><time>2011-05-29T15:53:44Z</time></trkpt>
<trkpt lat="46.24543699" lon="6.99784292"><ele>405.9999998856</ele><time>2011-05-29T15:53:45Z</time></trkpt>
<trkpt lat="46.24559993" lon="6.99858095"><ele>407.7999877512</ele><time>2011-05-29T15:53:56Z</time></trkpt>
<trkpt lat="46.24571099" lon="6.99911898"><ele>409.7999878152</ele><time>2011-05-29T15:54:04Z</time></trkpt>
<trkpt lat="46.24583194" lon="6.99966799"><ele>410.7999878472</ele><time>2011-05-29T15:54:12Z</time></trkpt>
<trkpt lat="46.24598994" lon="7.00038792"><ele>410.200012212</ele><time>2011-05-29T15:54:22Z</time></trkpt>
<trkpt lat="46.24615297" lon="7.00110893"><ele>409.20001218</ele><time>2011-05-29T15:54:32Z</time></trkpt>
<trkpt lat="46.24624399" lon="7.00155996"><ele>408.9999999816</ele><time>2011-05-29T15:54:39Z</time></trkpt>
<trkpt lat="46.24628096" lon="7.00168493"><ele>408.7999877832</ele><time>2011-05-29T15:54:41Z</time></trkpt>
<trkpt lat="46.24641499" lon="7.00221894"><ele>410.7999878472</ele><time>2011-05-29T15:54:48Z</time></trkpt>
<trkpt lat="46.24644994" lon="7.00236294"><ele>411.3999939624</ele><time>2011-05-29T15:54:50Z</time></trkpt>
<trkpt lat="46.24660098" lon="7.00290098"><ele>412.7999879112</ele><time>2011-05-29T15:54:58Z</time></trkpt>
<trkpt lat="46.24674196" lon="7.00331395"><ele>413.7999879432</ele><time>2011-05-29T15:55:05Z</time></trkpt>
<trkpt lat="46.24681195" lon="7.00356399"><ele>414.0000001416</ele><time>2011-05-29T15:55:10Z</time></trkpt>
<trkpt lat="46.24680500" lon="7.00376993"><ele>414.20001234</ele><time>2011-05-29T15:55:14Z</time></trkpt>
<trkpt lat="46.24700197" lon="7.00401393"><ele>414.3999937536</ele><time>2011-05-29T15:55:20Z</time></trkpt>
<trkpt lat="46.24704195" lon="7.00405894"><ele>414.3999937536</ele><time>2011-05-29T15:55:21Z</time></trkpt>
<trkpt lat="46.24726198" lon="7.00446898"><ele>414.0000001416</ele><time>2011-05-29T15:55:28Z</time></trkpt>
<trkpt lat="46.24751494" lon="7.00524699"><ele>413.6000062248</ele><time>2011-05-29T15:55:40Z</time></trkpt>
<trkpt lat="46.24765098" lon="7.00586599"><ele>415.3999937856</ele><time>2011-05-29T15:55:49Z</time></trkpt>
<trkpt lat="46.24773799" lon="7.00639497"><ele>416.600006016</ele><time>2011-05-29T15:55:57Z</time></trkpt>
<trkpt lat="46.24775098" lon="7.00650997"><ele>416.7999877344</ele><time>2011-05-29T15:55:59Z</time></trkpt>
<trkpt lat="46.24760195" lon="7.00679798"><ele>416.9999999328</ele><time>2011-05-29T15:56:06Z</time></trkpt>
<trkpt lat="46.24741595" lon="7.00705396"><ele>417.2000121312</ele><time>2011-05-29T15:56:13Z</time></trkpt>
<trkpt lat="46.24723197" lon="7.00722495"><ele>417.9999999648</ele><time>2011-05-29T15:56:19Z</time></trkpt>
<trkpt lat="46.24719794" lon="7.00725395"><ele>418.2000121632</ele><time>2011-05-29T15:56:20Z</time></trkpt>
<trkpt lat="46.24697498" lon="7.00742193"><ele>419.3999939136</ele><time>2011-05-29T15:56:26Z</time></trkpt>
<trkpt lat="46.24668195" lon="7.00766894"><ele>420.600006144</ele><time>2011-05-29T15:56:34Z</time></trkpt>
<trkpt lat="46.24647793" lon="7.00797999"><ele>421.3999939776</ele><time>2011-05-29T15:56:42Z</time></trkpt>
<trkpt lat="46.24634198" lon="7.00822793"><ele>422.2000122912</ele><time>2011-05-29T15:56:49Z</time></trkpt>
<trkpt lat="46.24618398" lon="7.00859196"><ele>423.60000624</ele><time>2011-05-29T15:56:58Z</time></trkpt>
<trkpt lat="46.24603495" lon="7.00887694"><ele>424.7999876856</ele><time>2011-05-29T15:57:05Z</time></trkpt>
<trkpt lat="46.24599497" lon="7.00908297"><ele>424.999999884</ele><time>2011-05-29T15:57:09Z</time></trkpt>
<trkpt lat="46.24606797" lon="7.00930995"><ele>424.999999884</ele><time>2011-05-29T15:57:14Z</time></trkpt>
<trkpt lat="46.24617493" lon="7.00962896"><ele>425.2000120824</ele><time>2011-05-29T15:57:21Z</time></trkpt>
<trkpt lat="46.24631792" lon="7.01006298"><ele>424.999999884</ele><time>2011-05-29T15:57:31Z</time></trkpt>
<trkpt lat="46.24640493" lon="7.01049197"><ele>424.999999884</ele><time>2011-05-29T15:57:40Z</time></trkpt>
<trkpt lat="46.24648992" lon="7.01088198"><ele>425.6000059992</ele><time>2011-05-29T15:57:48Z</time></trkpt>
<trkpt lat="46.24653795" lon="7.01130099"><ele>427.3999938648</ele><time>2011-05-29T15:57:56Z</time></trkpt>
<trkpt lat="46.24657994" lon="7.01172394"><ele>429.000000012</ele><time>2011-05-29T15:58:04Z</time></trkpt>
<trkpt lat="46.24658799" lon="7.01177498"><ele>429.000000012</ele><time>2011-05-29T15:58:05Z</time></trkpt>
<trkpt lat="46.24649696" lon="7.01190993"><ele>429.2000122104</ele><time>2011-05-29T15:58:09Z</time></trkpt>
<trkpt lat="46.24623796" lon="7.01219399"><ele>430.6000061592</ele><time>2011-05-29T15:58:18Z</time></trkpt>
<trkpt lat="46.24616194" lon="7.01239994"><ele>431.3999939928</ele><time>2011-05-29T15:58:23Z</time></trkpt>
<trkpt lat="46.24616696" lon="7.01246599"><ele>431.3999939928</ele><time>2011-05-29T15:58:25Z</time></trkpt>
</trkseg></trk></gpx>